<?xml version="1.0" encoding="UTF-8" standalone="no" ?>
<gpx xmlns="http://www.topografix.com/GPX/1/1" xmlns:xsi="http://www.w3.org/2001/XMLSchema-instance" xsi:schemaLocation="http://www.topografix.com/GPX/1/1 http://www.topografix.com/GPX/1/1/gpx.xsd" version="1.1" creator="VisuGPX - https://www.visugpx.com">
  <metadata>
    <name>Sous la cima </name>
    <desc><![CDATA[Un petit tour]]></desc>
  </metadata>
  <trk>
    <name><![CDATA[Sous la Cima avec JF]]></name>
    <trkseg>
      <trkpt lat="43.78251" lon="7.25189">
        <ele>532</ele>
        <time>2013-05-13T17:02:05.000Z</time>
      </trkpt>
      <trkpt lat="43.78245" lon="7.25198">
        <ele>532</ele>
        <time>2013-05-13T17:02:09.000Z</time>
      </trkpt>
      <trkpt lat="43.78243" lon="7.25201">
        <ele>531.59997558594</ele>
        <time>2013-05-13T17:02:10.000Z</time>
      </trkpt>
      <trkpt lat="43.7824" lon="7.25206">
        <ele>531.59997558594</ele>
        <time>2013-05-13T17:02:12.000Z</time>
      </trkpt>
      <trkpt lat="43.78229" lon="7.25223">
        <ele>531.59997558594</ele>
        <time>2013-05-13T17:02:19.000Z</time>
      </trkpt>
      <trkpt lat="43.78218" lon="7.2524">
        <ele>531.59997558594</ele>
        <time>2013-05-13T17:02:26.000Z</time>
      </trkpt>
      <trkpt lat="43.78214" lon="7.25245">
        <ele>532.20001220703</ele>
        <time>2013-05-13T17:02:28.000Z</time>
      </trkpt>
      <trkpt lat="43.78213" lon="7.25248">
        <ele>532.40002441406</ele>
        <time>2013-05-13T17:02:29.000Z</time>
      </trkpt>
      <trkpt lat="43.78212" lon="7.25251">
        <ele>533.20001220703</ele>
        <time>2013-05-13T17:02:30.000Z</time>
      </trkpt>
      <trkpt lat="43.78211" lon="7.25253">
        <ele>533.40002441406</ele>
        <time>2013-05-13T17:02:31.000Z</time>
      </trkpt>
      <trkpt lat="43.7821" lon="7.25256">
        <ele>534</ele>
        <time>2013-05-13T17:02:32.000Z</time>
      </trkpt>
      <trkpt lat="43.7821" lon="7.25263">
        <ele>534</ele>
        <time>2013-05-13T17:02:34.000Z</time>
      </trkpt>
      <trkpt lat="43.78211" lon="7.25264">
        <ele>534</ele>
        <time>2013-05-13T17:02:35.000Z</time>
      </trkpt>
      <trkpt lat="43.78217" lon="7.2526">
        <ele>534</ele>
        <time>2013-05-13T17:02:38.000Z</time>
      </trkpt>
      <trkpt lat="43.78224" lon="7.25256">
        <ele>534</ele>
        <time>2013-05-13T17:02:41.000Z</time>
      </trkpt>
      <trkpt lat="43.78226" lon="7.25255">
        <ele>534.59997558594</ele>
        <time>2013-05-13T17:02:42.000Z</time>
      </trkpt>
      <trkpt lat="43.78228" lon="7.25254">
        <ele>535.20001220703</ele>
        <time>2013-05-13T17:02:43.000Z</time>
      </trkpt>
      <trkpt lat="43.78229" lon="7.25252">
        <ele>535.40002441406</ele>
        <time>2013-05-13T17:02:44.000Z</time>
      </trkpt>
      <trkpt lat="43.78232" lon="7.2525">
        <ele>536</ele>
        <time>2013-05-13T17:02:45.000Z</time>
      </trkpt>
      <trkpt lat="43.78241" lon="7.25243">
        <ele>536.40002441406</ele>
        <time>2013-05-13T17:02:50.000Z</time>
      </trkpt>
      <trkpt lat="43.78243" lon="7.25242">
        <ele>536.59997558594</ele>
        <time>2013-05-13T17:02:51.000Z</time>
      </trkpt>
      <trkpt lat="43.78245" lon="7.25241">
        <ele>537.20001220703</ele>
        <time>2013-05-13T17:02:52.000Z</time>
      </trkpt>
      <trkpt lat="43.78247" lon="7.25239">
        <ele>537.40002441406</ele>
        <time>2013-05-13T17:02:53.000Z</time>
      </trkpt>
      <trkpt lat="43.78249" lon="7.25238">
        <ele>538</ele>
        <time>2013-05-13T17:02:54.000Z</time>
      </trkpt>
      <trkpt lat="43.78257" lon="7.25231">
        <ele>538</ele>
        <time>2013-05-13T17:02:59.000Z</time>
      </trkpt>
      <trkpt lat="43.7826" lon="7.25229">
        <ele>538.40002441406</ele>
        <time>2013-05-13T17:03:01.000Z</time>
      </trkpt>
      <trkpt lat="43.78262" lon="7.25228">
        <ele>538.59997558594</ele>
        <time>2013-05-13T17:03:02.000Z</time>
      </trkpt>
      <trkpt lat="43.78264" lon="7.25228">
        <ele>539.20001220703</ele>
        <time>2013-05-13T17:03:03.000Z</time>
      </trkpt>
      <trkpt lat="43.78266" lon="7.25227">
        <ele>539.59997558594</ele>
        <time>2013-05-13T17:03:04.000Z</time>
      </trkpt>
      <trkpt lat="43.78268" lon="7.25226">
        <ele>540.20001220703</ele>
        <time>2013-05-13T17:03:05.000Z</time>
      </trkpt>
      <trkpt lat="43.78269" lon="7.25225">
        <ele>540.20001220703</ele>
        <time>2013-05-13T17:03:06.000Z</time>
      </trkpt>
      <trkpt lat="43.78272" lon="7.25222">
        <ele>540.20001220703</ele>
        <time>2013-05-13T17:03:08.000Z</time>
      </trkpt>
      <trkpt lat="43.78275" lon="7.25219">
        <ele>540.40002441406</ele>
        <time>2013-05-13T17:03:10.000Z</time>
      </trkpt>
      <trkpt lat="43.78277" lon="7.25218">
        <ele>541</ele>
        <time>2013-05-13T17:03:11.000Z</time>
      </trkpt>
      <trkpt lat="43.78279" lon="7.25217">
        <ele>541.40002441406</ele>
        <time>2013-05-13T17:03:12.000Z</time>
      </trkpt>
      <trkpt lat="43.7828" lon="7.25216">
        <ele>541.59997558594</ele>
        <time>2013-05-13T17:03:13.000Z</time>
      </trkpt>
      <trkpt lat="43.78281" lon="7.25216">
        <ele>542.20001220703</ele>
        <time>2013-05-13T17:03:14.000Z</time>
      </trkpt>
      <trkpt lat="43.78283" lon="7.25215">
        <ele>542.20001220703</ele>
        <time>2013-05-13T17:03:15.000Z</time>
      </trkpt>
      <trkpt lat="43.78293" lon="7.25206">
        <ele>542.40002441406</ele>
        <time>2013-05-13T17:03:21.000Z</time>
      </trkpt>
      <trkpt lat="43.78295" lon="7.25205">
        <ele>543</ele>
        <time>2013-05-13T17:03:22.000Z</time>
      </trkpt>
      <trkpt lat="43.78296" lon="7.25203">
        <ele>543.40002441406</ele>
        <time>2013-05-13T17:03:23.000Z</time>
      </trkpt>
      <trkpt lat="43.78298" lon="7.25202">
        <ele>544</ele>
        <time>2013-05-13T17:03:24.000Z</time>
      </trkpt>
      <trkpt lat="43.783" lon="7.25201">
        <ele>544.40002441406</ele>
        <time>2013-05-13T17:03:25.000Z</time>
      </trkpt>
      <trkpt lat="43.7831" lon="7.25193">
        <ele>544.59997558594</ele>
        <time>2013-05-13T17:03:31.000Z</time>
      </trkpt>
      <trkpt lat="43.78312" lon="7.25193">
        <ele>545.20001220703</ele>
        <time>2013-05-13T17:03:32.000Z</time>
      </trkpt>
      <trkpt lat="43.78314" lon="7.25192">
        <ele>545.59997558594</ele>
        <time>2013-05-13T17:03:33.000Z</time>
      </trkpt>
      <trkpt lat="43.78316" lon="7.25191">
        <ele>546.20001220703</ele>
        <time>2013-05-13T17:03:34.000Z</time>
      </trkpt>
      <trkpt lat="43.78318" lon="7.2519">
        <ele>546.40002441406</ele>
        <time>2013-05-13T17:03:35.000Z</time>
      </trkpt>
      <trkpt lat="43.78327" lon="7.25185">
        <ele>546.40002441406</ele>
        <time>2013-05-13T17:03:40.000Z</time>
      </trkpt>
      <trkpt lat="43.7833" lon="7.25181">
        <ele>547</ele>
        <time>2013-05-13T17:03:42.000Z</time>
      </trkpt>
      <trkpt lat="43.78332" lon="7.2518">
        <ele>547.40002441406</ele>
        <time>2013-05-13T17:03:43.000Z</time>
      </trkpt>
      <trkpt lat="43.78333" lon="7.25179">
        <ele>547.59997558594</ele>
        <time>2013-05-13T17:03:44.000Z</time>
      </trkpt>
      <trkpt lat="43.78335" lon="7.25178">
        <ele>548.20001220703</ele>
        <time>2013-05-13T17:03:45.000Z</time>
      </trkpt>
      <trkpt lat="43.78337" lon="7.25177">
        <ele>548.40002441406</ele>
        <time>2013-05-13T17:03:46.000Z</time>
      </trkpt>
      <trkpt lat="43.78339" lon="7.25176">
        <ele>548.40002441406</ele>
        <time>2013-05-13T17:03:47.000Z</time>
      </trkpt>
      <trkpt lat="43.78349" lon="7.25168">
        <ele>549</ele>
        <time>2013-05-13T17:03:53.000Z</time>
      </trkpt>
      <trkpt lat="43.78351" lon="7.25167">
        <ele>549.40002441406</ele>
        <time>2013-05-13T17:03:54.000Z</time>
      </trkpt>
      <trkpt lat="43.78352" lon="7.25166">
        <ele>550</ele>
        <time>2013-05-13T17:03:55.000Z</time>
      </trkpt>
      <trkpt lat="43.78354" lon="7.25165">
        <ele>550.59997558594</ele>
        <time>2013-05-13T17:03:56.000Z</time>
      </trkpt>
      <trkpt lat="43.78361" lon="7.2516">
        <ele>550.59997558594</ele>
        <time>2013-05-13T17:04:00.000Z</time>
      </trkpt>
      <trkpt lat="43.78365" lon="7.25158">
        <ele>551.20001220703</ele>
        <time>2013-05-13T17:04:02.000Z</time>
      </trkpt>
      <trkpt lat="43.78367" lon="7.25156">
        <ele>551.40002441406</ele>
        <time>2013-05-13T17:04:03.000Z</time>
      </trkpt>
      <trkpt lat="43.78368" lon="7.25155">
        <ele>552</ele>
        <time>2013-05-13T17:04:04.000Z</time>
      </trkpt>
      <trkpt lat="43.7837" lon="7.25154">
        <ele>552.40002441406</ele>
        <time>2013-05-13T17:04:05.000Z</time>
      </trkpt>
      <trkpt lat="43.78372" lon="7.25153">
        <ele>552.59997558594</ele>
        <time>2013-05-13T17:04:06.000Z</time>
      </trkpt>
      <trkpt lat="43.78378" lon="7.25151">
        <ele>552.59997558594</ele>
        <time>2013-05-13T17:04:09.000Z</time>
      </trkpt>
      <trkpt lat="43.78384" lon="7.25148">
        <ele>553.20001220703</ele>
        <time>2013-05-13T17:04:12.000Z</time>
      </trkpt>
      <trkpt lat="43.78387" lon="7.25147">
        <ele>553.40002441406</ele>
        <time>2013-05-13T17:04:13.000Z</time>
      </trkpt>
      <trkpt lat="43.78389" lon="7.25146">
        <ele>554</ele>
        <time>2013-05-13T17:04:14.000Z</time>
      </trkpt>
      <trkpt lat="43.78391" lon="7.25146">
        <ele>554.40002441406</ele>
        <time>2013-05-13T17:04:15.000Z</time>
      </trkpt>
      <trkpt lat="43.78393" lon="7.25145">
        <ele>554.59997558594</ele>
        <time>2013-05-13T17:04:16.000Z</time>
      </trkpt>
      <trkpt lat="43.78397" lon="7.25143">
        <ele>554.59997558594</ele>
        <time>2013-05-13T17:04:18.000Z</time>
      </trkpt>
      <trkpt lat="43.78404" lon="7.25138">
        <ele>555.40002441406</ele>
        <time>2013-05-13T17:04:22.000Z</time>
      </trkpt>
      <trkpt lat="43.78406" lon="7.25137">
        <ele>555.59997558594</ele>
        <time>2013-05-13T17:04:23.000Z</time>
      </trkpt>
      <trkpt lat="43.78408" lon="7.25136">
        <ele>556.20001220703</ele>
        <time>2013-05-13T17:04:24.000Z</time>
      </trkpt>
      <trkpt lat="43.7841" lon="7.25135">
        <ele>556.40002441406</ele>
        <time>2013-05-13T17:04:25.000Z</time>
      </trkpt>
      <trkpt lat="43.78412" lon="7.25133">
        <ele>557</ele>
        <time>2013-05-13T17:04:26.000Z</time>
      </trkpt>
      <trkpt lat="43.78424" lon="7.25124">
        <ele>557</ele>
        <time>2013-05-13T17:04:33.000Z</time>
      </trkpt>
      <trkpt lat="43.78426" lon="7.25122">
        <ele>557.40002441406</ele>
        <time>2013-05-13T17:04:34.000Z</time>
      </trkpt>
      <trkpt lat="43.78427" lon="7.2512">
        <ele>557.59997558594</ele>
        <time>2013-05-13T17:04:35.000Z</time>
      </trkpt>
      <trkpt lat="43.78429" lon="7.25118">
        <ele>558.40002441406</ele>
        <time>2013-05-13T17:04:36.000Z</time>
      </trkpt>
      <trkpt lat="43.78431" lon="7.25117">
        <ele>558.59997558594</ele>
        <time>2013-05-13T17:04:37.000Z</time>
      </trkpt>
      <trkpt lat="43.78433" lon="7.25115">
        <ele>559.20001220703</ele>
        <time>2013-05-13T17:04:38.000Z</time>
      </trkpt>
      <trkpt lat="43.78438" lon="7.2511">
        <ele>559.20001220703</ele>
        <time>2013-05-13T17:04:41.000Z</time>
      </trkpt>
      <trkpt lat="43.78445" lon="7.25103">
        <ele>559.40002441406</ele>
        <time>2013-05-13T17:04:45.000Z</time>
      </trkpt>
      <trkpt lat="43.78446" lon="7.25101">
        <ele>560.40002441406</ele>
        <time>2013-05-13T17:04:46.000Z</time>
      </trkpt>
      <trkpt lat="43.78448" lon="7.251">
        <ele>560.59997558594</ele>
        <time>2013-05-13T17:04:47.000Z</time>
      </trkpt>
      <trkpt lat="43.7845" lon="7.25098">
        <ele>561.20001220703</ele>
        <time>2013-05-13T17:04:48.000Z</time>
      </trkpt>
      <trkpt lat="43.7846" lon="7.25086">
        <ele>561.40002441406</ele>
        <time>2013-05-13T17:04:54.000Z</time>
      </trkpt>
      <trkpt lat="43.78461" lon="7.25084">
        <ele>562</ele>
        <time>2013-05-13T17:04:55.000Z</time>
      </trkpt>
      <trkpt lat="43.78462" lon="7.25082">
        <ele>562.40002441406</ele>
        <time>2013-05-13T17:04:56.000Z</time>
      </trkpt>
      <trkpt lat="43.78464" lon="7.2508">
        <ele>562.59997558594</ele>
        <time>2013-05-13T17:04:57.000Z</time>
      </trkpt>
      <trkpt lat="43.78466" lon="7.25078">
        <ele>563.20001220703</ele>
        <time>2013-05-13T17:04:58.000Z</time>
      </trkpt>
      <trkpt lat="43.78473" lon="7.25068">
        <ele>563.20001220703</ele>
        <time>2013-05-13T17:05:03.000Z</time>
      </trkpt>
      <trkpt lat="43.78475" lon="7.25067">
        <ele>563.20001220703</ele>
        <time>2013-05-13T17:05:04.000Z</time>
      </trkpt>
      <trkpt lat="43.78479" lon="7.25061">
        <ele>563.40002441406</ele>
        <time>2013-05-13T17:05:06.000Z</time>
      </trkpt>
      <trkpt lat="43.7848" lon="7.25059">
        <ele>564</ele>
        <time>2013-05-13T17:05:07.000Z</time>
      </trkpt>
      <trkpt lat="43.78481" lon="7.25056">
        <ele>564.40002441406</ele>
        <time>2013-05-13T17:05:08.000Z</time>
      </trkpt>
      <trkpt lat="43.78483" lon="7.25054">
        <ele>564.59997558594</ele>
        <time>2013-05-13T17:05:09.000Z</time>
      </trkpt>
      <trkpt lat="43.78484" lon="7.25051">
        <ele>565.20001220703</ele>
        <time>2013-05-13T17:05:10.000Z</time>
      </trkpt>
      <trkpt lat="43.78491" lon="7.25038">
        <ele>565.20001220703</ele>
        <time>2013-05-13T17:05:15.000Z</time>
      </trkpt>
      <trkpt lat="43.78499" lon="7.25022">
        <ele>565.20001220703</ele>
        <time>2013-05-13T17:05:21.000Z</time>
      </trkpt>
      <trkpt lat="43.78501" lon="7.25019">
        <ele>565.59997558594</ele>
        <time>2013-05-13T17:05:22.000Z</time>
      </trkpt>
      <trkpt lat="43.78503" lon="7.25017">
        <ele>566.20001220703</ele>
        <time>2013-05-13T17:05:23.000Z</time>
      </trkpt>
      <trkpt lat="43.78505" lon="7.25014">
        <ele>566.40002441406</ele>
        <time>2013-05-13T17:05:24.000Z</time>
      </trkpt>
      <trkpt lat="43.78506" lon="7.25011">
        <ele>567</ele>
        <time>2013-05-13T17:05:25.000Z</time>
      </trkpt>
      <trkpt lat="43.78508" lon="7.25008">
        <ele>567.40002441406</ele>
        <time>2013-05-13T17:05:26.000Z</time>
      </trkpt>
      <trkpt lat="43.78512" lon="7.25002">
        <ele>567.40002441406</ele>
        <time>2013-05-13T17:05:28.000Z</time>
      </trkpt>
      <trkpt lat="43.78527" lon="7.24989">
        <ele>567.40002441406</ele>
        <time>2013-05-13T17:05:34.000Z</time>
      </trkpt>
      <trkpt lat="43.78549" lon="7.24969">
        <ele>567.40002441406</ele>
        <time>2013-05-13T17:05:42.000Z</time>
      </trkpt>
      <trkpt lat="43.78572" lon="7.2495">
        <ele>567.40002441406</ele>
        <time>2013-05-13T17:05:51.000Z</time>
      </trkpt>
      <trkpt lat="43.78596" lon="7.24936">
        <ele>567.40002441406</ele>
        <time>2013-05-13T17:05:59.000Z</time>
      </trkpt>
      <trkpt lat="43.78619" lon="7.24927">
        <ele>567.40002441406</ele>
        <time>2013-05-13T17:06:06.000Z</time>
      </trkpt>
      <trkpt lat="43.78638" lon="7.24919">
        <ele>567.40002441406</ele>
        <time>2013-05-13T17:06:12.000Z</time>
      </trkpt>
      <trkpt lat="43.78657" lon="7.2492">
        <ele>567.40002441406</ele>
        <time>2013-05-13T17:06:18.000Z</time>
      </trkpt>
      <trkpt lat="43.78662" lon="7.24919">
        <ele>567.40002441406</ele>
        <time>2013-05-13T17:06:21.000Z</time>
      </trkpt>
      <trkpt lat="43.78662" lon="7.24917">
        <ele>567.40002441406</ele>
        <time>2013-05-13T17:06:22.000Z</time>
      </trkpt>
      <trkpt lat="43.7866" lon="7.24902">
        <ele>567.40002441406</ele>
        <time>2013-05-13T17:06:26.000Z</time>
      </trkpt>
      <trkpt lat="43.78653" lon="7.24868">
        <ele>567.40002441406</ele>
        <time>2013-05-13T17:06:32.000Z</time>
      </trkpt>
      <trkpt lat="43.7865" lon="7.24854">
        <ele>567</ele>
        <time>2013-05-13T17:06:34.000Z</time>
      </trkpt>
      <trkpt lat="43.78648" lon="7.24847">
        <ele>566.40002441406</ele>
        <time>2013-05-13T17:06:35.000Z</time>
      </trkpt>
      <trkpt lat="43.78647" lon="7.24839">
        <ele>566.20001220703</ele>
        <time>2013-05-13T17:06:36.000Z</time>
      </trkpt>
      <trkpt lat="43.78645" lon="7.24832">
        <ele>565.59997558594</ele>
        <time>2013-05-13T17:06:37.000Z</time>
      </trkpt>
      <trkpt lat="43.78644" lon="7.24824">
        <ele>565.40002441406</ele>
        <time>2013-05-13T17:06:38.000Z</time>
      </trkpt>
      <trkpt lat="43.7864" lon="7.24803">
        <ele>565.40002441406</ele>
        <time>2013-05-13T17:06:41.000Z</time>
      </trkpt>
      <trkpt lat="43.78644" lon="7.24791">
        <ele>565.40002441406</ele>
        <time>2013-05-13T17:06:43.000Z</time>
      </trkpt>
      <trkpt lat="43.78659" lon="7.24776">
        <ele>565.40002441406</ele>
        <time>2013-05-13T17:06:47.000Z</time>
      </trkpt>
      <trkpt lat="43.78664" lon="7.24772">
        <ele>565.40002441406</ele>
        <time>2013-05-13T17:06:48.000Z</time>
      </trkpt>
      <trkpt lat="43.78668" lon="7.24767">
        <ele>564.40002441406</ele>
        <time>2013-05-13T17:06:49.000Z</time>
      </trkpt>
      <trkpt lat="43.78673" lon="7.24762">
        <ele>564</ele>
        <time>2013-05-13T17:06:50.000Z</time>
      </trkpt>
      <trkpt lat="43.78678" lon="7.24757">
        <ele>563.40002441406</ele>
        <time>2013-05-13T17:06:51.000Z</time>
      </trkpt>
      <trkpt lat="43.78683" lon="7.24754">
        <ele>563.20001220703</ele>
        <time>2013-05-13T17:06:52.000Z</time>
      </trkpt>
      <trkpt lat="43.78697" lon="7.24758">
        <ele>562.59997558594</ele>
        <time>2013-05-13T17:06:54.000Z</time>
      </trkpt>
      <trkpt lat="43.78703" lon="7.24761">
        <ele>562.40002441406</ele>
        <time>2013-05-13T17:06:55.000Z</time>
      </trkpt>
      <trkpt lat="43.78709" lon="7.24763">
        <ele>562</ele>
        <time>2013-05-13T17:06:56.000Z</time>
      </trkpt>
      <trkpt lat="43.78715" lon="7.24765">
        <ele>561.40002441406</ele>
        <time>2013-05-13T17:06:57.000Z</time>
      </trkpt>
      <trkpt lat="43.7872" lon="7.24765">
        <ele>561</ele>
        <time>2013-05-13T17:06:58.000Z</time>
      </trkpt>
      <trkpt lat="43.7873" lon="7.24765">
        <ele>561</ele>
        <time>2013-05-13T17:07:00.000Z</time>
      </trkpt>
      <trkpt lat="43.78735" lon="7.24765">
        <ele>561</ele>
        <time>2013-05-13T17:07:01.000Z</time>
      </trkpt>
      <trkpt lat="43.78743" lon="7.24763">
        <ele>561</ele>
        <time>2013-05-13T17:07:03.000Z</time>
      </trkpt>
      <trkpt lat="43.78759" lon="7.24752">
        <ele>561.40002441406</ele>
        <time>2013-05-13T17:07:08.000Z</time>
      </trkpt>
      <trkpt lat="43.78761" lon="7.24748">
        <ele>561.59997558594</ele>
        <time>2013-05-13T17:07:09.000Z</time>
      </trkpt>
      <trkpt lat="43.78763" lon="7.24744">
        <ele>562.20001220703</ele>
        <time>2013-05-13T17:07:10.000Z</time>
      </trkpt>
      <trkpt lat="43.78764" lon="7.24739">
        <ele>562.40002441406</ele>
        <time>2013-05-13T17:07:11.000Z</time>
      </trkpt>
      <trkpt lat="43.78765" lon="7.24734">
        <ele>563.20001220703</ele>
        <time>2013-05-13T17:07:12.000Z</time>
      </trkpt>
      <trkpt lat="43.78767" lon="7.24728">
        <ele>563.20001220703</ele>
        <time>2013-05-13T17:07:13.000Z</time>
      </trkpt>
      <trkpt lat="43.78768" lon="7.24724">
        <ele>563.40002441406</ele>
        <time>2013-05-13T17:07:14.000Z</time>
      </trkpt>
      <trkpt lat="43.78769" lon="7.24719">
        <ele>564</ele>
        <time>2013-05-13T17:07:15.000Z</time>
      </trkpt>
      <trkpt lat="43.78771" lon="7.24714">
        <ele>564.40002441406</ele>
        <time>2013-05-13T17:07:16.000Z</time>
      </trkpt>
      <trkpt lat="43.78772" lon="7.24709">
        <ele>564.59997558594</ele>
        <time>2013-05-13T17:07:17.000Z</time>
      </trkpt>
      <trkpt lat="43.78774" lon="7.24704">
        <ele>565.20001220703</ele>
        <time>2013-05-13T17:07:18.000Z</time>
      </trkpt>
      <trkpt lat="43.78778" lon="7.24684">
        <ele>565.20001220703</ele>
        <time>2013-05-13T17:07:22.000Z</time>
      </trkpt>
      <trkpt lat="43.7878" lon="7.24675">
        <ele>565.40002441406</ele>
        <time>2013-05-13T17:07:24.000Z</time>
      </trkpt>
      <trkpt lat="43.78782" lon="7.2467">
        <ele>566</ele>
        <time>2013-05-13T17:07:25.000Z</time>
      </trkpt>
      <trkpt lat="43.78783" lon="7.24665">
        <ele>566.40002441406</ele>
        <time>2013-05-13T17:07:26.000Z</time>
      </trkpt>
      <trkpt lat="43.78784" lon="7.24661">
        <ele>567</ele>
        <time>2013-05-13T17:07:27.000Z</time>
      </trkpt>
      <trkpt lat="43.78785" lon="7.24657">
        <ele>567.40002441406</ele>
        <time>2013-05-13T17:07:28.000Z</time>
      </trkpt>
      <trkpt lat="43.78786" lon="7.24652">
        <ele>567.40002441406</ele>
        <time>2013-05-13T17:07:29.000Z</time>
      </trkpt>
      <trkpt lat="43.78792" lon="7.2463">
        <ele>567.59997558594</ele>
        <time>2013-05-13T17:07:34.000Z</time>
      </trkpt>
      <trkpt lat="43.78793" lon="7.24627">
        <ele>568.20001220703</ele>
        <time>2013-05-13T17:07:35.000Z</time>
      </trkpt>
      <trkpt lat="43.78795" lon="7.24623">
        <ele>568.40002441406</ele>
        <time>2013-05-13T17:07:36.000Z</time>
      </trkpt>
      <trkpt lat="43.78796" lon="7.24619">
        <ele>569</ele>
        <time>2013-05-13T17:07:37.000Z</time>
      </trkpt>
      <trkpt lat="43.78797" lon="7.24615">
        <ele>569.40002441406</ele>
        <time>2013-05-13T17:07:38.000Z</time>
      </trkpt>
      <trkpt lat="43.788" lon="7.24598">
        <ele>569.59997558594</ele>
        <time>2013-05-13T17:07:42.000Z</time>
      </trkpt>
      <trkpt lat="43.78801" lon="7.24594">
        <ele>570.40002441406</ele>
        <time>2013-05-13T17:07:43.000Z</time>
      </trkpt>
      <trkpt lat="43.78803" lon="7.24592">
        <ele>570.59997558594</ele>
        <time>2013-05-13T17:07:44.000Z</time>
      </trkpt>
      <trkpt lat="43.78805" lon="7.24592">
        <ele>571.20001220703</ele>
        <time>2013-05-13T17:07:45.000Z</time>
      </trkpt>
      <trkpt lat="43.78808" lon="7.24594">
        <ele>571.40002441406</ele>
        <time>2013-05-13T17:07:46.000Z</time>
      </trkpt>
      <trkpt lat="43.78812" lon="7.24603">
        <ele>571.40002441406</ele>
        <time>2013-05-13T17:07:49.000Z</time>
      </trkpt>
      <trkpt lat="43.78812" lon="7.24615">
        <ele>571.40002441406</ele>
        <time>2013-05-13T17:07:53.000Z</time>
      </trkpt>
      <trkpt lat="43.78819" lon="7.24626">
        <ele>572</ele>
        <time>2013-05-13T17:07:57.000Z</time>
      </trkpt>
      <trkpt lat="43.78822" lon="7.24628">
        <ele>572.40002441406</ele>
        <time>2013-05-13T17:07:58.000Z</time>
      </trkpt>
      <trkpt lat="43.78824" lon="7.2463">
        <ele>572.59997558594</ele>
        <time>2013-05-13T17:07:59.000Z</time>
      </trkpt>
      <trkpt lat="43.78827" lon="7.24632">
        <ele>573.20001220703</ele>
        <time>2013-05-13T17:08:00.000Z</time>
      </trkpt>
      <trkpt lat="43.7883" lon="7.24633">
        <ele>573.40002441406</ele>
        <time>2013-05-13T17:08:01.000Z</time>
      </trkpt>
      <trkpt lat="43.78833" lon="7.24635">
        <ele>573.40002441406</ele>
        <time>2013-05-13T17:08:02.000Z</time>
      </trkpt>
      <trkpt lat="43.78838" lon="7.24639">
        <ele>574.20001220703</ele>
        <time>2013-05-13T17:08:05.000Z</time>
      </trkpt>
      <trkpt lat="43.7884" lon="7.24641">
        <ele>574.40002441406</ele>
        <time>2013-05-13T17:08:06.000Z</time>
      </trkpt>
      <trkpt lat="43.78842" lon="7.24642">
        <ele>575</ele>
        <time>2013-05-13T17:08:07.000Z</time>
      </trkpt>
      <trkpt lat="43.78844" lon="7.24644">
        <ele>575.40002441406</ele>
        <time>2013-05-13T17:08:08.000Z</time>
      </trkpt>
      <trkpt lat="43.78846" lon="7.24645">
        <ele>575.59997558594</ele>
        <time>2013-05-13T17:08:09.000Z</time>
      </trkpt>
      <trkpt lat="43.78852" lon="7.24648">
        <ele>576.20001220703</ele>
        <time>2013-05-13T17:08:12.000Z</time>
      </trkpt>
      <trkpt lat="43.78854" lon="7.2465">
        <ele>576.40002441406</ele>
        <time>2013-05-13T17:08:13.000Z</time>
      </trkpt>
      <trkpt lat="43.78855" lon="7.24651">
        <ele>577</ele>
        <time>2013-05-13T17:08:14.000Z</time>
      </trkpt>
      <trkpt lat="43.78856" lon="7.24653">
        <ele>577.40002441406</ele>
        <time>2013-05-13T17:08:15.000Z</time>
      </trkpt>
      <trkpt lat="43.78857" lon="7.24654">
        <ele>578</ele>
        <time>2013-05-13T17:08:16.000Z</time>
      </trkpt>
      <trkpt lat="43.78863" lon="7.24657">
        <ele>578.40002441406</ele>
        <time>2013-05-13T17:08:19.000Z</time>
      </trkpt>
      <trkpt lat="43.78865" lon="7.24658">
        <ele>578.59997558594</ele>
        <time>2013-05-13T17:08:20.000Z</time>
      </trkpt>
      <trkpt lat="43.78867" lon="7.24659">
        <ele>579.20001220703</ele>
        <time>2013-05-13T17:08:21.000Z</time>
      </trkpt>
      <trkpt lat="43.7887" lon="7.24659">
        <ele>579.40002441406</ele>
        <time>2013-05-13T17:08:22.000Z</time>
      </trkpt>
      <trkpt lat="43.78872" lon="7.24659">
        <ele>580.20001220703</ele>
        <time>2013-05-13T17:08:23.000Z</time>
      </trkpt>
      <trkpt lat="43.78878" lon="7.24657">
        <ele>580.20001220703</ele>
        <time>2013-05-13T17:08:26.000Z</time>
      </trkpt>
      <trkpt lat="43.78888" lon="7.24649">
        <ele>580.40002441406</ele>
        <time>2013-05-13T17:08:31.000Z</time>
      </trkpt>
      <trkpt lat="43.7889" lon="7.24648">
        <ele>581</ele>
        <time>2013-05-13T17:08:32.000Z</time>
      </trkpt>
      <trkpt lat="43.78892" lon="7.24646">
        <ele>581.40002441406</ele>
        <time>2013-05-13T17:08:33.000Z</time>
      </trkpt>
      <trkpt lat="43.78894" lon="7.24644">
        <ele>581.59997558594</ele>
        <time>2013-05-13T17:08:34.000Z</time>
      </trkpt>
      <trkpt lat="43.78896" lon="7.24642">
        <ele>582.20001220703</ele>
        <time>2013-05-13T17:08:35.000Z</time>
      </trkpt>
      <trkpt lat="43.789" lon="7.2464">
        <ele>582.20001220703</ele>
        <time>2013-05-13T17:08:37.000Z</time>
      </trkpt>
      <trkpt lat="43.78903" lon="7.24639">
        <ele>582.20001220703</ele>
        <time>2013-05-13T17:08:38.000Z</time>
      </trkpt>
      <trkpt lat="43.78914" lon="7.24641">
        <ele>582.20001220703</ele>
        <time>2013-05-13T17:08:43.000Z</time>
      </trkpt>
      <trkpt lat="43.78923" lon="7.24642">
        <ele>582.40002441406</ele>
        <time>2013-05-13T17:08:47.000Z</time>
      </trkpt>
      <trkpt lat="43.78925" lon="7.24643">
        <ele>583</ele>
        <time>2013-05-13T17:08:48.000Z</time>
      </trkpt>
      <trkpt lat="43.78927" lon="7.24643">
        <ele>583.40002441406</ele>
        <time>2013-05-13T17:08:49.000Z</time>
      </trkpt>
      <trkpt lat="43.78929" lon="7.24644">
        <ele>583.59997558594</ele>
        <time>2013-05-13T17:08:50.000Z</time>
      </trkpt>
      <trkpt lat="43.78931" lon="7.24645">
        <ele>584.20001220703</ele>
        <time>2013-05-13T17:08:51.000Z</time>
      </trkpt>
      <trkpt lat="43.78937" lon="7.24652">
        <ele>584.20001220703</ele>
        <time>2013-05-13T17:08:54.000Z</time>
      </trkpt>
      <trkpt lat="43.78948" lon="7.24669">
        <ele>584.20001220703</ele>
        <time>2013-05-13T17:09:02.000Z</time>
      </trkpt>
      <trkpt lat="43.78951" lon="7.24677">
        <ele>584.40002441406</ele>
        <time>2013-05-13T17:09:05.000Z</time>
      </trkpt>
      <trkpt lat="43.78953" lon="7.24679">
        <ele>585</ele>
        <time>2013-05-13T17:09:06.000Z</time>
      </trkpt>
      <trkpt lat="43.78955" lon="7.24681">
        <ele>585.40002441406</ele>
        <time>2013-05-13T17:09:07.000Z</time>
      </trkpt>
      <trkpt lat="43.78957" lon="7.24683">
        <ele>585.59997558594</ele>
        <time>2013-05-13T17:09:08.000Z</time>
      </trkpt>
      <trkpt lat="43.78959" lon="7.24685">
        <ele>586.40002441406</ele>
        <time>2013-05-13T17:09:09.000Z</time>
      </trkpt>
      <trkpt lat="43.78971" lon="7.24694">
        <ele>586.40002441406</ele>
        <time>2013-05-13T17:09:15.000Z</time>
      </trkpt>
      <trkpt lat="43.78978" lon="7.24695">
        <ele>587.20001220703</ele>
        <time>2013-05-13T17:09:18.000Z</time>
      </trkpt>
      <trkpt lat="43.7898" lon="7.24695">
        <ele>587.40002441406</ele>
        <time>2013-05-13T17:09:19.000Z</time>
      </trkpt>
      <trkpt lat="43.78982" lon="7.24694">
        <ele>588</ele>
        <time>2013-05-13T17:09:20.000Z</time>
      </trkpt>
      <trkpt lat="43.78985" lon="7.24694">
        <ele>588.40002441406</ele>
        <time>2013-05-13T17:09:21.000Z</time>
      </trkpt>
      <trkpt lat="43.78997" lon="7.2469">
        <ele>588.40002441406</ele>
        <time>2013-05-13T17:09:27.000Z</time>
      </trkpt>
      <trkpt lat="43.79004" lon="7.24688">
        <ele>588.59997558594</ele>
        <time>2013-05-13T17:09:30.000Z</time>
      </trkpt>
      <trkpt lat="43.79006" lon="7.24687">
        <ele>589.20001220703</ele>
        <time>2013-05-13T17:09:31.000Z</time>
      </trkpt>
      <trkpt lat="43.79008" lon="7.24687">
        <ele>589.40002441406</ele>
        <time>2013-05-13T17:09:32.000Z</time>
      </trkpt>
      <trkpt lat="43.79011" lon="7.24686">
        <ele>590.20001220703</ele>
        <time>2013-05-13T17:09:33.000Z</time>
      </trkpt>
      <trkpt lat="43.79013" lon="7.24686">
        <ele>590.40002441406</ele>
        <time>2013-05-13T17:09:34.000Z</time>
      </trkpt>
      <trkpt lat="43.79015" lon="7.24685">
        <ele>590.40002441406</ele>
        <time>2013-05-13T17:09:35.000Z</time>
      </trkpt>
      <trkpt lat="43.79032" lon="7.2468">
        <ele>591</ele>
        <time>2013-05-13T17:09:43.000Z</time>
      </trkpt>
      <trkpt lat="43.79035" lon="7.2468">
        <ele>591.40002441406</ele>
        <time>2013-05-13T17:09:44.000Z</time>
      </trkpt>
      <trkpt lat="43.79037" lon="7.2468">
        <ele>591.59997558594</ele>
        <time>2013-05-13T17:09:45.000Z</time>
      </trkpt>
      <trkpt lat="43.79039" lon="7.24681">
        <ele>592.20001220703</ele>
        <time>2013-05-13T17:09:46.000Z</time>
      </trkpt>
      <trkpt lat="43.79041" lon="7.24681">
        <ele>592.40002441406</ele>
        <time>2013-05-13T17:09:47.000Z</time>
      </trkpt>
      <trkpt lat="43.79048" lon="7.24683">
        <ele>592.40002441406</ele>
        <time>2013-05-13T17:09:50.000Z</time>
      </trkpt>
      <trkpt lat="43.79061" lon="7.24683">
        <ele>592.40002441406</ele>
        <time>2013-05-13T17:09:55.000Z</time>
      </trkpt>
      <trkpt lat="43.79076" lon="7.24678">
        <ele>592.40002441406</ele>
        <time>2013-05-13T17:10:01.000Z</time>
      </trkpt>
      <trkpt lat="43.79079" lon="7.24676">
        <ele>593</ele>
        <time>2013-05-13T17:10:02.000Z</time>
      </trkpt>
      <trkpt lat="43.79081" lon="7.24675">
        <ele>593.40002441406</ele>
        <time>2013-05-13T17:10:03.000Z</time>
      </trkpt>
      <trkpt lat="43.79084" lon="7.24675">
        <ele>593.59997558594</ele>
        <time>2013-05-13T17:10:04.000Z</time>
      </trkpt>
      <trkpt lat="43.79086" lon="7.24675">
        <ele>594.20001220703</ele>
        <time>2013-05-13T17:10:05.000Z</time>
      </trkpt>
      <trkpt lat="43.79088" lon="7.24674">
        <ele>594.40002441406</ele>
        <time>2013-05-13T17:10:06.000Z</time>
      </trkpt>
      <trkpt lat="43.79104" lon="7.24668">
        <ele>594.40002441406</ele>
        <time>2013-05-13T17:10:12.000Z</time>
      </trkpt>
      <trkpt lat="43.7912" lon="7.24664">
        <ele>595</ele>
        <time>2013-05-13T17:10:18.000Z</time>
      </trkpt>
      <trkpt lat="43.79123" lon="7.24663">
        <ele>595.40002441406</ele>
        <time>2013-05-13T17:10:19.000Z</time>
      </trkpt>
      <trkpt lat="43.79126" lon="7.24663">
        <ele>596</ele>
        <time>2013-05-13T17:10:20.000Z</time>
      </trkpt>
      <trkpt lat="43.79128" lon="7.24661">
        <ele>596.40002441406</ele>
        <time>2013-05-13T17:10:21.000Z</time>
      </trkpt>
      <trkpt lat="43.79131" lon="7.2466">
        <ele>596.59997558594</ele>
        <time>2013-05-13T17:10:22.000Z</time>
      </trkpt>
      <trkpt lat="43.79139" lon="7.24657">
        <ele>596.59997558594</ele>
        <time>2013-05-13T17:10:25.000Z</time>
      </trkpt>
      <trkpt lat="43.7916" lon="7.24648">
        <ele>596.59997558594</ele>
        <time>2013-05-13T17:10:33.000Z</time>
      </trkpt>
      <trkpt lat="43.79162" lon="7.24647">
        <ele>597.20001220703</ele>
        <time>2013-05-13T17:10:34.000Z</time>
      </trkpt>
      <trkpt lat="43.79164" lon="7.24646">
        <ele>597.40002441406</ele>
        <time>2013-05-13T17:10:35.000Z</time>
      </trkpt>
      <trkpt lat="43.79166" lon="7.24644">
        <ele>598</ele>
        <time>2013-05-13T17:10:36.000Z</time>
      </trkpt>
      <trkpt lat="43.79169" lon="7.24643">
        <ele>598.40002441406</ele>
        <time>2013-05-13T17:10:37.000Z</time>
      </trkpt>
      <trkpt lat="43.79171" lon="7.24642">
        <ele>598.59997558594</ele>
        <time>2013-05-13T17:10:38.000Z</time>
      </trkpt>
      <trkpt lat="43.79178" lon="7.2464">
        <ele>598.59997558594</ele>
        <time>2013-05-13T17:10:41.000Z</time>
      </trkpt>
      <trkpt lat="43.79192" lon="7.24635">
        <ele>599.20001220703</ele>
        <time>2013-05-13T17:10:47.000Z</time>
      </trkpt>
      <trkpt lat="43.79195" lon="7.24634">
        <ele>599.40002441406</ele>
        <time>2013-05-13T17:10:48.000Z</time>
      </trkpt>
      <trkpt lat="43.79197" lon="7.24632">
        <ele>600.20001220703</ele>
        <time>2013-05-13T17:10:49.000Z</time>
      </trkpt>
      <trkpt lat="43.79199" lon="7.2463">
        <ele>600.40002441406</ele>
        <time>2013-05-13T17:10:50.000Z</time>
      </trkpt>
      <trkpt lat="43.79201" lon="7.24627">
        <ele>601</ele>
        <time>2013-05-13T17:10:51.000Z</time>
      </trkpt>
      <trkpt lat="43.79205" lon="7.24622">
        <ele>601</ele>
        <time>2013-05-13T17:10:53.000Z</time>
      </trkpt>
      <trkpt lat="43.79212" lon="7.24609">
        <ele>601.59997558594</ele>
        <time>2013-05-13T17:10:57.000Z</time>
      </trkpt>
      <trkpt lat="43.79213" lon="7.24606">
        <ele>602.20001220703</ele>
        <time>2013-05-13T17:10:58.000Z</time>
      </trkpt>
      <trkpt lat="43.79214" lon="7.24603">
        <ele>602.40002441406</ele>
        <time>2013-05-13T17:10:59.000Z</time>
      </trkpt>
      <trkpt lat="43.79216" lon="7.246">
        <ele>603</ele>
        <time>2013-05-13T17:11:00.000Z</time>
      </trkpt>
      <trkpt lat="43.79225" lon="7.24579">
        <ele>603</ele>
        <time>2013-05-13T17:11:07.000Z</time>
      </trkpt>
      <trkpt lat="43.79228" lon="7.2457">
        <ele>603.40002441406</ele>
        <time>2013-05-13T17:11:10.000Z</time>
      </trkpt>
      <trkpt lat="43.7923" lon="7.24567">
        <ele>604</ele>
        <time>2013-05-13T17:11:11.000Z</time>
      </trkpt>
      <trkpt lat="43.79231" lon="7.24564">
        <ele>604.40002441406</ele>
        <time>2013-05-13T17:11:12.000Z</time>
      </trkpt>
      <trkpt lat="43.79233" lon="7.24562">
        <ele>604.59997558594</ele>
        <time>2013-05-13T17:11:13.000Z</time>
      </trkpt>
      <trkpt lat="43.79235" lon="7.24559">
        <ele>605.20001220703</ele>
        <time>2013-05-13T17:11:14.000Z</time>
      </trkpt>
      <trkpt lat="43.79247" lon="7.24542">
        <ele>605.20001220703</ele>
        <time>2013-05-13T17:11:21.000Z</time>
      </trkpt>
      <trkpt lat="43.79249" lon="7.2454">
        <ele>605.40002441406</ele>
        <time>2013-05-13T17:11:22.000Z</time>
      </trkpt>
      <trkpt lat="43.79251" lon="7.24538">
        <ele>606</ele>
        <time>2013-05-13T17:11:23.000Z</time>
      </trkpt>
      <trkpt lat="43.79253" lon="7.24536">
        <ele>606.40002441406</ele>
        <time>2013-05-13T17:11:24.000Z</time>
      </trkpt>
      <trkpt lat="43.79255" lon="7.24534">
        <ele>607</ele>
        <time>2013-05-13T17:11:25.000Z</time>
      </trkpt>
      <trkpt lat="43.79257" lon="7.24532">
        <ele>607.40002441406</ele>
        <time>2013-05-13T17:11:26.000Z</time>
      </trkpt>
      <trkpt lat="43.79266" lon="7.24525">
        <ele>607.40002441406</ele>
        <time>2013-05-13T17:11:30.000Z</time>
      </trkpt>
      <trkpt lat="43.79272" lon="7.24521">
        <ele>607.59997558594</ele>
        <time>2013-05-13T17:11:33.000Z</time>
      </trkpt>
      <trkpt lat="43.79274" lon="7.24519">
        <ele>608.20001220703</ele>
        <time>2013-05-13T17:11:34.000Z</time>
      </trkpt>
      <trkpt lat="43.79276" lon="7.24517">
        <ele>608.40002441406</ele>
        <time>2013-05-13T17:11:35.000Z</time>
      </trkpt>
      <trkpt lat="43.79278" lon="7.24514">
        <ele>609</ele>
        <time>2013-05-13T17:11:36.000Z</time>
      </trkpt>
      <trkpt lat="43.7928" lon="7.24512">
        <ele>609.40002441406</ele>
        <time>2013-05-13T17:11:37.000Z</time>
      </trkpt>
      <trkpt lat="43.79295" lon="7.24496">
        <ele>609.59997558594</ele>
        <time>2013-05-13T17:11:45.000Z</time>
      </trkpt>
      <trkpt lat="43.79297" lon="7.24493">
        <ele>610.40002441406</ele>
        <time>2013-05-13T17:11:46.000Z</time>
      </trkpt>
      <trkpt lat="43.79299" lon="7.24491">
        <ele>611</ele>
        <time>2013-05-13T17:11:47.000Z</time>
      </trkpt>
      <trkpt lat="43.79301" lon="7.24489">
        <ele>611.40002441406</ele>
        <time>2013-05-13T17:11:48.000Z</time>
      </trkpt>
      <trkpt lat="43.7931" lon="7.24477">
        <ele>611.40002441406</ele>
        <time>2013-05-13T17:11:53.000Z</time>
      </trkpt>
      <trkpt lat="43.79315" lon="7.2447">
        <ele>611.59997558594</ele>
        <time>2013-05-13T17:11:56.000Z</time>
      </trkpt>
      <trkpt lat="43.79317" lon="7.24468">
        <ele>612.20001220703</ele>
        <time>2013-05-13T17:11:57.000Z</time>
      </trkpt>
      <trkpt lat="43.79319" lon="7.24466">
        <ele>612.40002441406</ele>
        <time>2013-05-13T17:11:58.000Z</time>
      </trkpt>
      <trkpt lat="43.79321" lon="7.24465">
        <ele>613</ele>
        <time>2013-05-13T17:11:59.000Z</time>
      </trkpt>
      <trkpt lat="43.79324" lon="7.24463">
        <ele>613.40002441406</ele>
        <time>2013-05-13T17:12:00.000Z</time>
      </trkpt>
      <trkpt lat="43.79338" lon="7.24456">
        <ele>614</ele>
        <time>2013-05-13T17:12:06.000Z</time>
      </trkpt>
      <trkpt lat="43.7934" lon="7.24454">
        <ele>614.40002441406</ele>
        <time>2013-05-13T17:12:07.000Z</time>
      </trkpt>
      <trkpt lat="43.79343" lon="7.24453">
        <ele>614.59997558594</ele>
        <time>2013-05-13T17:12:08.000Z</time>
      </trkpt>
      <trkpt lat="43.79345" lon="7.24452">
        <ele>615.20001220703</ele>
        <time>2013-05-13T17:12:09.000Z</time>
      </trkpt>
      <trkpt lat="43.79347" lon="7.24451">
        <ele>615.40002441406</ele>
        <time>2013-05-13T17:12:10.000Z</time>
      </trkpt>
      <trkpt lat="43.79354" lon="7.24447">
        <ele>615.40002441406</ele>
        <time>2013-05-13T17:12:13.000Z</time>
      </trkpt>
      <trkpt lat="43.79358" lon="7.24444">
        <ele>616</ele>
        <time>2013-05-13T17:12:15.000Z</time>
      </trkpt>
      <trkpt lat="43.79359" lon="7.24442">
        <ele>616.40002441406</ele>
        <time>2013-05-13T17:12:16.000Z</time>
      </trkpt>
      <trkpt lat="43.79361" lon="7.2444">
        <ele>616.59997558594</ele>
        <time>2013-05-13T17:12:17.000Z</time>
      </trkpt>
      <trkpt lat="43.79363" lon="7.24438">
        <ele>617.40002441406</ele>
        <time>2013-05-13T17:12:18.000Z</time>
      </trkpt>
      <trkpt lat="43.79365" lon="7.24437">
        <ele>617.59997558594</ele>
        <time>2013-05-13T17:12:19.000Z</time>
      </trkpt>
      <trkpt lat="43.79373" lon="7.24433">
        <ele>618.20001220703</ele>
        <time>2013-05-13T17:12:23.000Z</time>
      </trkpt>
      <trkpt lat="43.79375" lon="7.24431">
        <ele>618.40002441406</ele>
        <time>2013-05-13T17:12:24.000Z</time>
      </trkpt>
      <trkpt lat="43.79377" lon="7.2443">
        <ele>619</ele>
        <time>2013-05-13T17:12:25.000Z</time>
      </trkpt>
      <trkpt lat="43.79379" lon="7.24428">
        <ele>619.40002441406</ele>
        <time>2013-05-13T17:12:26.000Z</time>
      </trkpt>
      <trkpt lat="43.79381" lon="7.24427">
        <ele>619.59997558594</ele>
        <time>2013-05-13T17:12:27.000Z</time>
      </trkpt>
      <trkpt lat="43.79395" lon="7.24417">
        <ele>619.59997558594</ele>
        <time>2013-05-13T17:12:34.000Z</time>
      </trkpt>
      <trkpt lat="43.794" lon="7.24412">
        <ele>619.59997558594</ele>
        <time>2013-05-13T17:12:38.000Z</time>
      </trkpt>
      <trkpt lat="43.79403" lon="7.2441">
        <ele>620.20001220703</ele>
        <time>2013-05-13T17:12:39.000Z</time>
      </trkpt>
      <trkpt lat="43.79405" lon="7.24408">
        <ele>620.40002441406</ele>
        <time>2013-05-13T17:12:40.000Z</time>
      </trkpt>
      <trkpt lat="43.79407" lon="7.24407">
        <ele>621</ele>
        <time>2013-05-13T17:12:41.000Z</time>
      </trkpt>
      <trkpt lat="43.79409" lon="7.24405">
        <ele>621.40002441406</ele>
        <time>2013-05-13T17:12:42.000Z</time>
      </trkpt>
      <trkpt lat="43.79411" lon="7.24404">
        <ele>621.59997558594</ele>
        <time>2013-05-13T17:12:43.000Z</time>
      </trkpt>
      <trkpt lat="43.79422" lon="7.24394">
        <ele>621.59997558594</ele>
        <time>2013-05-13T17:12:49.000Z</time>
      </trkpt>
      <trkpt lat="43.79424" lon="7.24392">
        <ele>622.20001220703</ele>
        <time>2013-05-13T17:12:50.000Z</time>
      </trkpt>
      <trkpt lat="43.79426" lon="7.2439">
        <ele>622.40002441406</ele>
        <time>2013-05-13T17:12:51.000Z</time>
      </trkpt>
      <trkpt lat="43.79428" lon="7.24388">
        <ele>623</ele>
        <time>2013-05-13T17:12:52.000Z</time>
      </trkpt>
      <trkpt lat="43.7943" lon="7.24386">
        <ele>623.40002441406</ele>
        <time>2013-05-13T17:12:53.000Z</time>
      </trkpt>
      <trkpt lat="43.79432" lon="7.24384">
        <ele>623.59997558594</ele>
        <time>2013-05-13T17:12:54.000Z</time>
      </trkpt>
      <trkpt lat="43.79434" lon="7.24383">
        <ele>623.59997558594</ele>
        <time>2013-05-13T17:12:55.000Z</time>
      </trkpt>
      <trkpt lat="43.79446" lon="7.24371">
        <ele>624.20001220703</ele>
        <time>2013-05-13T17:13:01.000Z</time>
      </trkpt>
      <trkpt lat="43.79447" lon="7.2437">
        <ele>624.40002441406</ele>
        <time>2013-05-13T17:13:02.000Z</time>
      </trkpt>
      <trkpt lat="43.79449" lon="7.24368">
        <ele>625.20001220703</ele>
        <time>2013-05-13T17:13:03.000Z</time>
      </trkpt>
      <trkpt lat="43.79451" lon="7.24366">
        <ele>625.40002441406</ele>
        <time>2013-05-13T17:13:04.000Z</time>
      </trkpt>
      <trkpt lat="43.79453" lon="7.24365">
        <ele>626</ele>
        <time>2013-05-13T17:13:05.000Z</time>
      </trkpt>
      <trkpt lat="43.79461" lon="7.24358">
        <ele>626</ele>
        <time>2013-05-13T17:13:09.000Z</time>
      </trkpt>
      <trkpt lat="43.79464" lon="7.24354">
        <ele>626</ele>
        <time>2013-05-13T17:13:11.000Z</time>
      </trkpt>
      <trkpt lat="43.79466" lon="7.24352">
        <ele>626.40002441406</ele>
        <time>2013-05-13T17:13:12.000Z</time>
      </trkpt>
      <trkpt lat="43.79468" lon="7.2435">
        <ele>626.59997558594</ele>
        <time>2013-05-13T17:13:13.000Z</time>
      </trkpt>
      <trkpt lat="43.7947" lon="7.24348">
        <ele>627.20001220703</ele>
        <time>2013-05-13T17:13:14.000Z</time>
      </trkpt>
      <trkpt lat="43.79472" lon="7.24346">
        <ele>627.40002441406</ele>
        <time>2013-05-13T17:13:15.000Z</time>
      </trkpt>
      <trkpt lat="43.79474" lon="7.24344">
        <ele>628</ele>
        <time>2013-05-13T17:13:16.000Z</time>
      </trkpt>
      <trkpt lat="43.79481" lon="7.24336">
        <ele>628</ele>
        <time>2013-05-13T17:13:20.000Z</time>
      </trkpt>
      <trkpt lat="43.79488" lon="7.24329">
        <ele>628.40002441406</ele>
        <time>2013-05-13T17:13:24.000Z</time>
      </trkpt>
      <trkpt lat="43.7949" lon="7.24326">
        <ele>629.20001220703</ele>
        <time>2013-05-13T17:13:25.000Z</time>
      </trkpt>
      <trkpt lat="43.79492" lon="7.24324">
        <ele>629.40002441406</ele>
        <time>2013-05-13T17:13:26.000Z</time>
      </trkpt>
      <trkpt lat="43.79493" lon="7.24322">
        <ele>630</ele>
        <time>2013-05-13T17:13:27.000Z</time>
      </trkpt>
      <trkpt lat="43.79503" lon="7.24308">
        <ele>630</ele>
        <time>2013-05-13T17:13:33.000Z</time>
      </trkpt>
      <trkpt lat="43.79507" lon="7.24305">
        <ele>630.40002441406</ele>
        <time>2013-05-13T17:13:35.000Z</time>
      </trkpt>
      <trkpt lat="43.79509" lon="7.24303">
        <ele>630.59997558594</ele>
        <time>2013-05-13T17:13:36.000Z</time>
      </trkpt>
      <trkpt lat="43.79511" lon="7.24301">
        <ele>631.40002441406</ele>
        <time>2013-05-13T17:13:37.000Z</time>
      </trkpt>
      <trkpt lat="43.79513" lon="7.24299">
        <ele>631.59997558594</ele>
        <time>2013-05-13T17:13:38.000Z</time>
      </trkpt>
      <trkpt lat="43.79514" lon="7.24297">
        <ele>632.20001220703</ele>
        <time>2013-05-13T17:13:39.000Z</time>
      </trkpt>
      <trkpt lat="43.79516" lon="7.24294">
        <ele>632.20001220703</ele>
        <time>2013-05-13T17:13:40.000Z</time>
      </trkpt>
      <trkpt lat="43.79528" lon="7.24278">
        <ele>632.40002441406</ele>
        <time>2013-05-13T17:13:47.000Z</time>
      </trkpt>
      <trkpt lat="43.7953" lon="7.24276">
        <ele>633</ele>
        <time>2013-05-13T17:13:48.000Z</time>
      </trkpt>
      <trkpt lat="43.79531" lon="7.24273">
        <ele>633.40002441406</ele>
        <time>2013-05-13T17:13:49.000Z</time>
      </trkpt>
      <trkpt lat="43.79533" lon="7.2427">
        <ele>634.20001220703</ele>
        <time>2013-05-13T17:13:50.000Z</time>
      </trkpt>
      <trkpt lat="43.79539" lon="7.24261">
        <ele>634.20001220703</ele>
        <time>2013-05-13T17:13:54.000Z</time>
      </trkpt>
      <trkpt lat="43.79553" lon="7.24241">
        <ele>634.40002441406</ele>
        <time>2013-05-13T17:14:02.000Z</time>
      </trkpt>
      <trkpt lat="43.79554" lon="7.24238">
        <ele>635</ele>
        <time>2013-05-13T17:14:03.000Z</time>
      </trkpt>
      <trkpt lat="43.79555" lon="7.24235">
        <ele>635.40002441406</ele>
        <time>2013-05-13T17:14:04.000Z</time>
      </trkpt>
      <trkpt lat="43.79556" lon="7.24232">
        <ele>635.59997558594</ele>
        <time>2013-05-13T17:14:05.000Z</time>
      </trkpt>
      <trkpt lat="43.79557" lon="7.24229">
        <ele>636.20001220703</ele>
        <time>2013-05-13T17:14:06.000Z</time>
      </trkpt>
      <trkpt lat="43.79561" lon="7.2422">
        <ele>636.20001220703</ele>
        <time>2013-05-13T17:14:09.000Z</time>
      </trkpt>
      <trkpt lat="43.79568" lon="7.24194">
        <ele>636.40002441406</ele>
        <time>2013-05-13T17:14:17.000Z</time>
      </trkpt>
      <trkpt lat="43.79569" lon="7.24191">
        <ele>637</ele>
        <time>2013-05-13T17:14:18.000Z</time>
      </trkpt>
      <trkpt lat="43.79571" lon="7.24189">
        <ele>637.40002441406</ele>
        <time>2013-05-13T17:14:19.000Z</time>
      </trkpt>
      <trkpt lat="43.79572" lon="7.24186">
        <ele>637.59997558594</ele>
        <time>2013-05-13T17:14:20.000Z</time>
      </trkpt>
      <trkpt lat="43.79573" lon="7.24184">
        <ele>638.20001220703</ele>
        <time>2013-05-13T17:14:21.000Z</time>
      </trkpt>
      <trkpt lat="43.79577" lon="7.24173">
        <ele>638.20001220703</ele>
        <time>2013-05-13T17:14:25.000Z</time>
      </trkpt>
      <trkpt lat="43.79581" lon="7.24163">
        <ele>638.40002441406</ele>
        <time>2013-05-13T17:14:29.000Z</time>
      </trkpt>
      <trkpt lat="43.79582" lon="7.24161">
        <ele>639.20001220703</ele>
        <time>2013-05-13T17:14:30.000Z</time>
      </trkpt>
      <trkpt lat="43.79583" lon="7.24159">
        <ele>639.40002441406</ele>
        <time>2013-05-13T17:14:31.000Z</time>
      </trkpt>
      <trkpt lat="43.79584" lon="7.24157">
        <ele>640</ele>
        <time>2013-05-13T17:14:32.000Z</time>
      </trkpt>
      <trkpt lat="43.79584" lon="7.24155">
        <ele>640.40002441406</ele>
        <time>2013-05-13T17:14:33.000Z</time>
      </trkpt>
      <trkpt lat="43.79586" lon="7.24155">
        <ele>640.40002441406</ele>
        <time>2013-05-13T17:14:34.000Z</time>
      </trkpt>
      <trkpt lat="43.79589" lon="7.24157">
        <ele>640.40002441406</ele>
        <time>2013-05-13T17:14:37.000Z</time>
      </trkpt>
      <trkpt lat="43.79587" lon="7.24165">
        <ele>640.59997558594</ele>
        <time>2013-05-13T17:14:41.000Z</time>
      </trkpt>
      <trkpt lat="43.79586" lon="7.24167">
        <ele>641.20001220703</ele>
        <time>2013-05-13T17:14:42.000Z</time>
      </trkpt>
      <trkpt lat="43.79585" lon="7.24169">
        <ele>641.40002441406</ele>
        <time>2013-05-13T17:14:43.000Z</time>
      </trkpt>
      <trkpt lat="43.79584" lon="7.24171">
        <ele>642.20001220703</ele>
        <time>2013-05-13T17:14:44.000Z</time>
      </trkpt>
      <trkpt lat="43.79583" lon="7.24174">
        <ele>642.40002441406</ele>
        <time>2013-05-13T17:14:45.000Z</time>
      </trkpt>
      <trkpt lat="43.7958" lon="7.24184">
        <ele>642.40002441406</ele>
        <time>2013-05-13T17:14:49.000Z</time>
      </trkpt>
      <trkpt lat="43.7958" lon="7.24187">
        <ele>643</ele>
        <time>2013-05-13T17:14:50.000Z</time>
      </trkpt>
      <trkpt lat="43.7958" lon="7.2419">
        <ele>643.40002441406</ele>
        <time>2013-05-13T17:14:51.000Z</time>
      </trkpt>
      <trkpt lat="43.79579" lon="7.24192">
        <ele>643.59997558594</ele>
        <time>2013-05-13T17:14:52.000Z</time>
      </trkpt>
      <trkpt lat="43.79579" lon="7.24195">
        <ele>644.20001220703</ele>
        <time>2013-05-13T17:14:53.000Z</time>
      </trkpt>
      <trkpt lat="43.79578" lon="7.24197">
        <ele>644.40002441406</ele>
        <time>2013-05-13T17:14:54.000Z</time>
      </trkpt>
      <trkpt lat="43.79577" lon="7.242">
        <ele>644.40002441406</ele>
        <time>2013-05-13T17:14:55.000Z</time>
      </trkpt>
      <trkpt lat="43.79576" lon="7.24213">
        <ele>645</ele>
        <time>2013-05-13T17:15:00.000Z</time>
      </trkpt>
      <trkpt lat="43.79576" lon="7.24215">
        <ele>645.40002441406</ele>
        <time>2013-05-13T17:15:01.000Z</time>
      </trkpt>
      <trkpt lat="43.79576" lon="7.24218">
        <ele>645.59997558594</ele>
        <time>2013-05-13T17:15:02.000Z</time>
      </trkpt>
      <trkpt lat="43.79576" lon="7.2422">
        <ele>646.20001220703</ele>
        <time>2013-05-13T17:15:03.000Z</time>
      </trkpt>
      <trkpt lat="43.79576" lon="7.24223">
        <ele>646.40002441406</ele>
        <time>2013-05-13T17:15:04.000Z</time>
      </trkpt>
      <trkpt lat="43.79574" lon="7.24238">
        <ele>646.40002441406</ele>
        <time>2013-05-13T17:15:10.000Z</time>
      </trkpt>
      <trkpt lat="43.79574" lon="7.2424">
        <ele>647</ele>
        <time>2013-05-13T17:15:11.000Z</time>
      </trkpt>
      <trkpt lat="43.79573" lon="7.24242">
        <ele>647.40002441406</ele>
        <time>2013-05-13T17:15:12.000Z</time>
      </trkpt>
      <trkpt lat="43.79573" lon="7.24245">
        <ele>648</ele>
        <time>2013-05-13T17:15:13.000Z</time>
      </trkpt>
      <trkpt lat="43.79573" lon="7.24247">
        <ele>648.40002441406</ele>
        <time>2013-05-13T17:15:14.000Z</time>
      </trkpt>
      <trkpt lat="43.79572" lon="7.24249">
        <ele>648.59997558594</ele>
        <time>2013-05-13T17:15:15.000Z</time>
      </trkpt>
      <trkpt lat="43.79571" lon="7.24254">
        <ele>648.59997558594</ele>
        <time>2013-05-13T17:15:17.000Z</time>
      </trkpt>
      <trkpt lat="43.79569" lon="7.24267">
        <ele>649.20001220703</ele>
        <time>2013-05-13T17:15:22.000Z</time>
      </trkpt>
      <trkpt lat="43.79568" lon="7.24269">
        <ele>649.40002441406</ele>
        <time>2013-05-13T17:15:23.000Z</time>
      </trkpt>
      <trkpt lat="43.79567" lon="7.24271">
        <ele>650</ele>
        <time>2013-05-13T17:15:24.000Z</time>
      </trkpt>
      <trkpt lat="43.79566" lon="7.24273">
        <ele>650.40002441406</ele>
        <time>2013-05-13T17:15:25.000Z</time>
      </trkpt>
      <trkpt lat="43.79565" lon="7.24276">
        <ele>650.59997558594</ele>
        <time>2013-05-13T17:15:26.000Z</time>
      </trkpt>
      <trkpt lat="43.7956" lon="7.2429">
        <ele>650.59997558594</ele>
        <time>2013-05-13T17:15:32.000Z</time>
      </trkpt>
      <trkpt lat="43.79558" lon="7.24295">
        <ele>651.20001220703</ele>
        <time>2013-05-13T17:15:34.000Z</time>
      </trkpt>
      <trkpt lat="43.79556" lon="7.24297">
        <ele>651.40002441406</ele>
        <time>2013-05-13T17:15:35.000Z</time>
      </trkpt>
      <trkpt lat="43.79556" lon="7.24299">
        <ele>652</ele>
        <time>2013-05-13T17:15:36.000Z</time>
      </trkpt>
      <trkpt lat="43.79555" lon="7.24302">
        <ele>652.40002441406</ele>
        <time>2013-05-13T17:15:37.000Z</time>
      </trkpt>
      <trkpt lat="43.79554" lon="7.24304">
        <ele>652.59997558594</ele>
        <time>2013-05-13T17:15:38.000Z</time>
      </trkpt>
      <trkpt lat="43.79545" lon="7.2432">
        <ele>652.59997558594</ele>
        <time>2013-05-13T17:15:45.000Z</time>
      </trkpt>
      <trkpt lat="43.79541" lon="7.24329">
        <ele>653.20001220703</ele>
        <time>2013-05-13T17:15:49.000Z</time>
      </trkpt>
      <trkpt lat="43.7954" lon="7.24331">
        <ele>653.40002441406</ele>
        <time>2013-05-13T17:15:50.000Z</time>
      </trkpt>
      <trkpt lat="43.79539" lon="7.24334">
        <ele>654</ele>
        <time>2013-05-13T17:15:51.000Z</time>
      </trkpt>
      <trkpt lat="43.79538" lon="7.24336">
        <ele>654.40002441406</ele>
        <time>2013-05-13T17:15:52.000Z</time>
      </trkpt>
      <trkpt lat="43.79537" lon="7.24339">
        <ele>654.59997558594</ele>
        <time>2013-05-13T17:15:53.000Z</time>
      </trkpt>
      <trkpt lat="43.79531" lon="7.24349">
        <ele>654.59997558594</ele>
        <time>2013-05-13T17:15:58.000Z</time>
      </trkpt>
      <trkpt lat="43.79528" lon="7.24353">
        <ele>654.59997558594</ele>
        <time>2013-05-13T17:16:00.000Z</time>
      </trkpt>
      <trkpt lat="43.79524" lon="7.2436">
        <ele>655.20001220703</ele>
        <time>2013-05-13T17:16:03.000Z</time>
      </trkpt>
      <trkpt lat="43.79523" lon="7.24362">
        <ele>655.40002441406</ele>
        <time>2013-05-13T17:16:04.000Z</time>
      </trkpt>
      <trkpt lat="43.79521" lon="7.24364">
        <ele>656</ele>
        <time>2013-05-13T17:16:05.000Z</time>
      </trkpt>
      <trkpt lat="43.7952" lon="7.24366">
        <ele>656.40002441406</ele>
        <time>2013-05-13T17:16:06.000Z</time>
      </trkpt>
      <trkpt lat="43.79519" lon="7.24368">
        <ele>657</ele>
        <time>2013-05-13T17:16:07.000Z</time>
      </trkpt>
      <trkpt lat="43.79515" lon="7.24375">
        <ele>657</ele>
        <time>2013-05-13T17:16:10.000Z</time>
      </trkpt>
      <trkpt lat="43.79506" lon="7.24388">
        <ele>657</ele>
        <time>2013-05-13T17:16:16.000Z</time>
      </trkpt>
      <trkpt lat="43.79504" lon="7.2439">
        <ele>657.40002441406</ele>
        <time>2013-05-13T17:16:17.000Z</time>
      </trkpt>
      <trkpt lat="43.79503" lon="7.24393">
        <ele>657.59997558594</ele>
        <time>2013-05-13T17:16:18.000Z</time>
      </trkpt>
      <trkpt lat="43.79502" lon="7.24395">
        <ele>658.40002441406</ele>
        <time>2013-05-13T17:16:19.000Z</time>
      </trkpt>
      <trkpt lat="43.795" lon="7.24398">
        <ele>659</ele>
        <time>2013-05-13T17:16:20.000Z</time>
      </trkpt>
      <trkpt lat="43.79495" lon="7.24407">
        <ele>659</ele>
        <time>2013-05-13T17:16:24.000Z</time>
      </trkpt>
      <trkpt lat="43.79488" lon="7.24418">
        <ele>659.40002441406</ele>
        <time>2013-05-13T17:16:29.000Z</time>
      </trkpt>
      <trkpt lat="43.79487" lon="7.2442">
        <ele>659.59997558594</ele>
        <time>2013-05-13T17:16:30.000Z</time>
      </trkpt>
      <trkpt lat="43.79486" lon="7.24423">
        <ele>660.40002441406</ele>
        <time>2013-05-13T17:16:31.000Z</time>
      </trkpt>
      <trkpt lat="43.79485" lon="7.24425">
        <ele>660.59997558594</ele>
        <time>2013-05-13T17:16:32.000Z</time>
      </trkpt>
      <trkpt lat="43.79484" lon="7.24427">
        <ele>661.20001220703</ele>
        <time>2013-05-13T17:16:33.000Z</time>
      </trkpt>
      <trkpt lat="43.79476" lon="7.24439">
        <ele>661.20001220703</ele>
        <time>2013-05-13T17:16:38.000Z</time>
      </trkpt>
      <trkpt lat="43.79468" lon="7.24453">
        <ele>661.40002441406</ele>
        <time>2013-05-13T17:16:44.000Z</time>
      </trkpt>
      <trkpt lat="43.79466" lon="7.24455">
        <ele>662</ele>
        <time>2013-05-13T17:16:45.000Z</time>
      </trkpt>
      <trkpt lat="43.79464" lon="7.24457">
        <ele>662.40002441406</ele>
        <time>2013-05-13T17:16:46.000Z</time>
      </trkpt>
      <trkpt lat="43.79462" lon="7.24459">
        <ele>662.59997558594</ele>
        <time>2013-05-13T17:16:47.000Z</time>
      </trkpt>
      <trkpt lat="43.7946" lon="7.2446">
        <ele>663.20001220703</ele>
        <time>2013-05-13T17:16:48.000Z</time>
      </trkpt>
      <trkpt lat="43.79455" lon="7.24466">
        <ele>663.20001220703</ele>
        <time>2013-05-13T17:16:51.000Z</time>
      </trkpt>
      <trkpt lat="43.79445" lon="7.24476">
        <ele>663.20001220703</ele>
        <time>2013-05-13T17:16:57.000Z</time>
      </trkpt>
      <trkpt lat="43.79438" lon="7.24483">
        <ele>663.40002441406</ele>
        <time>2013-05-13T17:17:01.000Z</time>
      </trkpt>
      <trkpt lat="43.79437" lon="7.24484">
        <ele>664</ele>
        <time>2013-05-13T17:17:02.000Z</time>
      </trkpt>
      <trkpt lat="43.79435" lon="7.24486">
        <ele>664.40002441406</ele>
        <time>2013-05-13T17:17:03.000Z</time>
      </trkpt>
      <trkpt lat="43.79434" lon="7.24488">
        <ele>665</ele>
        <time>2013-05-13T17:17:04.000Z</time>
      </trkpt>
      <trkpt lat="43.79432" lon="7.24491">
        <ele>665.40002441406</ele>
        <time>2013-05-13T17:17:05.000Z</time>
      </trkpt>
      <trkpt lat="43.79424" lon="7.24501">
        <ele>665.40002441406</ele>
        <time>2013-05-13T17:17:10.000Z</time>
      </trkpt>
      <trkpt lat="43.79418" lon="7.24508">
        <ele>665.59997558594</ele>
        <time>2013-05-13T17:17:14.000Z</time>
      </trkpt>
      <trkpt lat="43.79416" lon="7.2451">
        <ele>666.20001220703</ele>
        <time>2013-05-13T17:17:15.000Z</time>
      </trkpt>
      <trkpt lat="43.79415" lon="7.24512">
        <ele>666.40002441406</ele>
        <time>2013-05-13T17:17:16.000Z</time>
      </trkpt>
      <trkpt lat="43.79413" lon="7.24514">
        <ele>667.20001220703</ele>
        <time>2013-05-13T17:17:17.000Z</time>
      </trkpt>
      <trkpt lat="43.79412" lon="7.24515">
        <ele>667.40002441406</ele>
        <time>2013-05-13T17:17:18.000Z</time>
      </trkpt>
      <trkpt lat="43.79405" lon="7.24526">
        <ele>667.40002441406</ele>
        <time>2013-05-13T17:17:23.000Z</time>
      </trkpt>
      <trkpt lat="43.794" lon="7.24531">
        <ele>668</ele>
        <time>2013-05-13T17:17:26.000Z</time>
      </trkpt>
      <trkpt lat="43.79399" lon="7.24533">
        <ele>668.40002441406</ele>
        <time>2013-05-13T17:17:27.000Z</time>
      </trkpt>
      <trkpt lat="43.79397" lon="7.24536">
        <ele>668.59997558594</ele>
        <time>2013-05-13T17:17:28.000Z</time>
      </trkpt>
      <trkpt lat="43.79396" lon="7.24537">
        <ele>669.20001220703</ele>
        <time>2013-05-13T17:17:29.000Z</time>
      </trkpt>
      <trkpt lat="43.79394" lon="7.2454">
        <ele>669.40002441406</ele>
        <time>2013-05-13T17:17:30.000Z</time>
      </trkpt>
      <trkpt lat="43.79393" lon="7.24542">
        <ele>669.40002441406</ele>
        <time>2013-05-13T17:17:31.000Z</time>
      </trkpt>
      <trkpt lat="43.79384" lon="7.24555">
        <ele>670</ele>
        <time>2013-05-13T17:17:37.000Z</time>
      </trkpt>
      <trkpt lat="43.79383" lon="7.24557">
        <ele>670.40002441406</ele>
        <time>2013-05-13T17:17:38.000Z</time>
      </trkpt>
      <trkpt lat="43.79381" lon="7.24559">
        <ele>671</ele>
        <time>2013-05-13T17:17:39.000Z</time>
      </trkpt>
      <trkpt lat="43.7938" lon="7.24561">
        <ele>671.40002441406</ele>
        <time>2013-05-13T17:17:40.000Z</time>
      </trkpt>
      <trkpt lat="43.79379" lon="7.24563">
        <ele>671.59997558594</ele>
        <time>2013-05-13T17:17:41.000Z</time>
      </trkpt>
      <trkpt lat="43.79376" lon="7.2457">
        <ele>671.59997558594</ele>
        <time>2013-05-13T17:17:44.000Z</time>
      </trkpt>
      <trkpt lat="43.79372" lon="7.24581">
        <ele>672.20001220703</ele>
        <time>2013-05-13T17:17:48.000Z</time>
      </trkpt>
      <trkpt lat="43.79371" lon="7.24584">
        <ele>672.40002441406</ele>
        <time>2013-05-13T17:17:49.000Z</time>
      </trkpt>
      <trkpt lat="43.7937" lon="7.24586">
        <ele>673</ele>
        <time>2013-05-13T17:17:50.000Z</time>
      </trkpt>
      <trkpt lat="43.79369" lon="7.24588">
        <ele>673.40002441406</ele>
        <time>2013-05-13T17:17:51.000Z</time>
      </trkpt>
      <trkpt lat="43.79368" lon="7.24591">
        <ele>674</ele>
        <time>2013-05-13T17:17:52.000Z</time>
      </trkpt>
      <trkpt lat="43.79363" lon="7.24602">
        <ele>674</ele>
        <time>2013-05-13T17:17:57.000Z</time>
      </trkpt>
      <trkpt lat="43.79361" lon="7.24608">
        <ele>674.40002441406</ele>
        <time>2013-05-13T17:17:59.000Z</time>
      </trkpt>
      <trkpt lat="43.79361" lon="7.2461">
        <ele>674.59997558594</ele>
        <time>2013-05-13T17:18:00.000Z</time>
      </trkpt>
      <trkpt lat="43.7936" lon="7.24613">
        <ele>675.20001220703</ele>
        <time>2013-05-13T17:18:01.000Z</time>
      </trkpt>
      <trkpt lat="43.79359" lon="7.24615">
        <ele>675.40002441406</ele>
        <time>2013-05-13T17:18:02.000Z</time>
      </trkpt>
      <trkpt lat="43.79358" lon="7.24617">
        <ele>676</ele>
        <time>2013-05-13T17:18:03.000Z</time>
      </trkpt>
      <trkpt lat="43.7935" lon="7.24641">
        <ele>676</ele>
        <time>2013-05-13T17:18:12.000Z</time>
      </trkpt>
      <trkpt lat="43.79347" lon="7.24649">
        <ele>676.40002441406</ele>
        <time>2013-05-13T17:18:15.000Z</time>
      </trkpt>
      <trkpt lat="43.79346" lon="7.24652">
        <ele>676.59997558594</ele>
        <time>2013-05-13T17:18:16.000Z</time>
      </trkpt>
      <trkpt lat="43.79345" lon="7.24655">
        <ele>677.20001220703</ele>
        <time>2013-05-13T17:18:17.000Z</time>
      </trkpt>
      <trkpt lat="43.79344" lon="7.24658">
        <ele>677.59997558594</ele>
        <time>2013-05-13T17:18:18.000Z</time>
      </trkpt>
      <trkpt lat="43.79344" lon="7.24661">
        <ele>678.20001220703</ele>
        <time>2013-05-13T17:18:19.000Z</time>
      </trkpt>
      <trkpt lat="43.79342" lon="7.24664">
        <ele>678.20001220703</ele>
        <time>2013-05-13T17:18:20.000Z</time>
      </trkpt>
      <trkpt lat="43.79336" lon="7.24687">
        <ele>678.40002441406</ele>
        <time>2013-05-13T17:18:28.000Z</time>
      </trkpt>
      <trkpt lat="43.79336" lon="7.24689">
        <ele>679</ele>
        <time>2013-05-13T17:18:29.000Z</time>
      </trkpt>
      <trkpt lat="43.79335" lon="7.24692">
        <ele>679.40002441406</ele>
        <time>2013-05-13T17:18:30.000Z</time>
      </trkpt>
      <trkpt lat="43.79334" lon="7.24696">
        <ele>679.59997558594</ele>
        <time>2013-05-13T17:18:31.000Z</time>
      </trkpt>
      <trkpt lat="43.79334" lon="7.24698">
        <ele>680.20001220703</ele>
        <time>2013-05-13T17:18:32.000Z</time>
      </trkpt>
      <trkpt lat="43.79331" lon="7.2471">
        <ele>680.20001220703</ele>
        <time>2013-05-13T17:18:36.000Z</time>
      </trkpt>
      <trkpt lat="43.79327" lon="7.24732">
        <ele>680.20001220703</ele>
        <time>2013-05-13T17:18:43.000Z</time>
      </trkpt>
      <trkpt lat="43.79325" lon="7.24741">
        <ele>680.40002441406</ele>
        <time>2013-05-13T17:18:46.000Z</time>
      </trkpt>
      <trkpt lat="43.79325" lon="7.24744">
        <ele>681.40002441406</ele>
        <time>2013-05-13T17:18:47.000Z</time>
      </trkpt>
      <trkpt lat="43.79325" lon="7.24748">
        <ele>681.59997558594</ele>
        <time>2013-05-13T17:18:48.000Z</time>
      </trkpt>
      <trkpt lat="43.79325" lon="7.24751">
        <ele>682.20001220703</ele>
        <time>2013-05-13T17:18:49.000Z</time>
      </trkpt>
      <trkpt lat="43.79325" lon="7.24754">
        <ele>682.20001220703</ele>
        <time>2013-05-13T17:18:50.000Z</time>
      </trkpt>
      <trkpt lat="43.79328" lon="7.24778">
        <ele>682.20001220703</ele>
        <time>2013-05-13T17:18:58.000Z</time>
      </trkpt>
      <trkpt lat="43.79331" lon="7.24787">
        <ele>682.20001220703</ele>
        <time>2013-05-13T17:19:04.000Z</time>
      </trkpt>
      <trkpt lat="43.79332" lon="7.24788">
        <ele>682.20001220703</ele>
        <time>2013-05-13T17:19:09.000Z</time>
      </trkpt>
      <trkpt lat="43.79332" lon="7.24788">
        <ele>682.40002441406</ele>
        <time>2013-05-13T17:19:10.000Z</time>
      </trkpt>
      <trkpt lat="43.79332" lon="7.24788">
        <ele>683</ele>
        <time>2013-05-13T17:19:11.000Z</time>
      </trkpt>
      <trkpt lat="43.79332" lon="7.24788">
        <ele>683.59997558594</ele>
        <time>2013-05-13T17:19:12.000Z</time>
      </trkpt>
      <trkpt lat="43.79332" lon="7.24788">
        <ele>684.40002441406</ele>
        <time>2013-05-13T17:19:13.000Z</time>
      </trkpt>
      <trkpt lat="43.79332" lon="7.24788">
        <ele>684.40002441406</ele>
        <time>2013-05-13T17:19:15.000Z</time>
      </trkpt>
      <trkpt lat="43.79332" lon="7.24789">
        <ele>684.40002441406</ele>
        <time>2013-05-13T17:19:25.000Z</time>
      </trkpt>
      <trkpt lat="43.79332" lon="7.24788">
        <ele>684.40002441406</ele>
        <time>2013-05-13T17:19:30.000Z</time>
      </trkpt>
      <trkpt lat="43.79332" lon="7.24788">
        <ele>684.40002441406</ele>
        <time>2013-05-13T17:19:38.000Z</time>
      </trkpt>
      <trkpt lat="43.79333" lon="7.24788">
        <ele>684.40002441406</ele>
        <time>2013-05-13T17:19:48.000Z</time>
      </trkpt>
      <trkpt lat="43.79333" lon="7.24788">
        <ele>684.40002441406</ele>
        <time>2013-05-13T17:19:59.000Z</time>
      </trkpt>
      <trkpt lat="43.79333" lon="7.24788">
        <ele>684.40002441406</ele>
        <time>2013-05-13T17:20:12.000Z</time>
      </trkpt>
      <trkpt lat="43.79333" lon="7.24788">
        <ele>684.40002441406</ele>
        <time>2013-05-13T17:20:18.000Z</time>
      </trkpt>
      <trkpt lat="43.79333" lon="7.24788">
        <ele>684.40002441406</ele>
        <time>2013-05-13T17:20:30.000Z</time>
      </trkpt>
      <trkpt lat="43.79333" lon="7.24788">
        <ele>684.40002441406</ele>
        <time>2013-05-13T17:20:42.000Z</time>
      </trkpt>
      <trkpt lat="43.79333" lon="7.24788">
        <ele>684.40002441406</ele>
        <time>2013-05-13T17:20:53.000Z</time>
      </trkpt>
      <trkpt lat="43.79333" lon="7.24788">
        <ele>684.40002441406</ele>
        <time>2013-05-13T17:21:00.000Z</time>
      </trkpt>
      <trkpt lat="43.79333" lon="7.24788">
        <ele>684.40002441406</ele>
        <time>2013-05-13T17:21:09.000Z</time>
      </trkpt>
      <trkpt lat="43.79333" lon="7.24788">
        <ele>684.40002441406</ele>
        <time>2013-05-13T17:21:19.000Z</time>
      </trkpt>
      <trkpt lat="43.79333" lon="7.24789">
        <ele>684.40002441406</ele>
        <time>2013-05-13T17:21:29.000Z</time>
      </trkpt>
      <trkpt lat="43.79335" lon="7.24801">
        <ele>684.40002441406</ele>
        <time>2013-05-13T17:21:32.000Z</time>
      </trkpt>
      <trkpt lat="43.79337" lon="7.24807">
        <ele>684.40002441406</ele>
        <time>2013-05-13T17:21:33.000Z</time>
      </trkpt>
      <trkpt lat="43.79349" lon="7.24824">
        <ele>683.59997558594</ele>
        <time>2013-05-13T17:21:36.000Z</time>
      </trkpt>
      <trkpt lat="43.79354" lon="7.24829">
        <ele>683.20001220703</ele>
        <time>2013-05-13T17:21:37.000Z</time>
      </trkpt>
      <trkpt lat="43.79358" lon="7.24832">
        <ele>682.59997558594</ele>
        <time>2013-05-13T17:21:38.000Z</time>
      </trkpt>
      <trkpt lat="43.79362" lon="7.24835">
        <ele>682.20001220703</ele>
        <time>2013-05-13T17:21:39.000Z</time>
      </trkpt>
      <trkpt lat="43.79364" lon="7.24837">
        <ele>681.20001220703</ele>
        <time>2013-05-13T17:21:40.000Z</time>
      </trkpt>
      <trkpt lat="43.79367" lon="7.24839">
        <ele>680.40002441406</ele>
        <time>2013-05-13T17:21:41.000Z</time>
      </trkpt>
      <trkpt lat="43.7937" lon="7.24838">
        <ele>680</ele>
        <time>2013-05-13T17:21:42.000Z</time>
      </trkpt>
      <trkpt lat="43.79374" lon="7.24839">
        <ele>679.40002441406</ele>
        <time>2013-05-13T17:21:43.000Z</time>
      </trkpt>
      <trkpt lat="43.79387" lon="7.24843">
        <ele>679.40002441406</ele>
        <time>2013-05-13T17:21:46.000Z</time>
      </trkpt>
      <trkpt lat="43.79397" lon="7.24847">
        <ele>679.40002441406</ele>
        <time>2013-05-13T17:21:48.000Z</time>
      </trkpt>
      <trkpt lat="43.79416" lon="7.24855">
        <ele>679.40002441406</ele>
        <time>2013-05-13T17:21:52.000Z</time>
      </trkpt>
      <trkpt lat="43.79424" lon="7.24861">
        <ele>679.40002441406</ele>
        <time>2013-05-13T17:21:54.000Z</time>
      </trkpt>
      <trkpt lat="43.79428" lon="7.24864">
        <ele>679.40002441406</ele>
        <time>2013-05-13T17:21:55.000Z</time>
      </trkpt>
      <trkpt lat="43.79451" lon="7.24873">
        <ele>679.40002441406</ele>
        <time>2013-05-13T17:22:01.000Z</time>
      </trkpt>
      <trkpt lat="43.79469" lon="7.24881">
        <ele>679.40002441406</ele>
        <time>2013-05-13T17:22:06.000Z</time>
      </trkpt>
      <trkpt lat="43.79495" lon="7.24892">
        <ele>679.40002441406</ele>
        <time>2013-05-13T17:22:13.000Z</time>
      </trkpt>
      <trkpt lat="43.79521" lon="7.24897">
        <ele>679.59997558594</ele>
        <time>2013-05-13T17:22:20.000Z</time>
      </trkpt>
      <trkpt lat="43.79524" lon="7.24898">
        <ele>680.40002441406</ele>
        <time>2013-05-13T17:22:21.000Z</time>
      </trkpt>
      <trkpt lat="43.79528" lon="7.24898">
        <ele>680.59997558594</ele>
        <time>2013-05-13T17:22:22.000Z</time>
      </trkpt>
      <trkpt lat="43.79531" lon="7.24898">
        <ele>681.20001220703</ele>
        <time>2013-05-13T17:22:23.000Z</time>
      </trkpt>
      <trkpt lat="43.79535" lon="7.24899">
        <ele>681.40002441406</ele>
        <time>2013-05-13T17:22:24.000Z</time>
      </trkpt>
      <trkpt lat="43.79552" lon="7.24901">
        <ele>681.40002441406</ele>
        <time>2013-05-13T17:22:29.000Z</time>
      </trkpt>
      <trkpt lat="43.79567" lon="7.24901">
        <ele>682</ele>
        <time>2013-05-13T17:22:33.000Z</time>
      </trkpt>
      <trkpt lat="43.7957" lon="7.24901">
        <ele>682.40002441406</ele>
        <time>2013-05-13T17:22:34.000Z</time>
      </trkpt>
      <trkpt lat="43.79574" lon="7.24901">
        <ele>683</ele>
        <time>2013-05-13T17:22:35.000Z</time>
      </trkpt>
      <trkpt lat="43.79577" lon="7.24902">
        <ele>683.40002441406</ele>
        <time>2013-05-13T17:22:36.000Z</time>
      </trkpt>
      <trkpt lat="43.7958" lon="7.24902">
        <ele>683.59997558594</ele>
        <time>2013-05-13T17:22:37.000Z</time>
      </trkpt>
      <trkpt lat="43.79596" lon="7.24903">
        <ele>683.59997558594</ele>
        <time>2013-05-13T17:22:43.000Z</time>
      </trkpt>
      <trkpt lat="43.796" lon="7.24902">
        <ele>684.20001220703</ele>
        <time>2013-05-13T17:22:44.000Z</time>
      </trkpt>
      <trkpt lat="43.79602" lon="7.24902">
        <ele>684.40002441406</ele>
        <time>2013-05-13T17:22:45.000Z</time>
      </trkpt>
      <trkpt lat="43.79605" lon="7.24902">
        <ele>685</ele>
        <time>2013-05-13T17:22:46.000Z</time>
      </trkpt>
      <trkpt lat="43.79608" lon="7.24901">
        <ele>685.40002441406</ele>
        <time>2013-05-13T17:22:47.000Z</time>
      </trkpt>
      <trkpt lat="43.7961" lon="7.24902">
        <ele>685.59997558594</ele>
        <time>2013-05-13T17:22:48.000Z</time>
      </trkpt>
      <trkpt lat="43.79612" lon="7.24901">
        <ele>685.59997558594</ele>
        <time>2013-05-13T17:22:49.000Z</time>
      </trkpt>
      <trkpt lat="43.7962" lon="7.24901">
        <ele>686.40002441406</ele>
        <time>2013-05-13T17:22:53.000Z</time>
      </trkpt>
      <trkpt lat="43.79622" lon="7.24901">
        <ele>687.20001220703</ele>
        <time>2013-05-13T17:22:54.000Z</time>
      </trkpt>
      <trkpt lat="43.79624" lon="7.24901">
        <ele>687.40002441406</ele>
        <time>2013-05-13T17:22:55.000Z</time>
      </trkpt>
      <trkpt lat="43.79626" lon="7.249">
        <ele>688</ele>
        <time>2013-05-13T17:22:56.000Z</time>
      </trkpt>
      <trkpt lat="43.79628" lon="7.249">
        <ele>688</ele>
        <time>2013-05-13T17:22:57.000Z</time>
      </trkpt>
      <trkpt lat="43.79639" lon="7.24897">
        <ele>688.40002441406</ele>
        <time>2013-05-13T17:23:03.000Z</time>
      </trkpt>
      <trkpt lat="43.7964" lon="7.24895">
        <ele>688.59997558594</ele>
        <time>2013-05-13T17:23:04.000Z</time>
      </trkpt>
      <trkpt lat="43.79642" lon="7.24894">
        <ele>689.20001220703</ele>
        <time>2013-05-13T17:23:05.000Z</time>
      </trkpt>
      <trkpt lat="43.79644" lon="7.24892">
        <ele>689.40002441406</ele>
        <time>2013-05-13T17:23:06.000Z</time>
      </trkpt>
      <trkpt lat="43.79646" lon="7.24891">
        <ele>690</ele>
        <time>2013-05-13T17:23:07.000Z</time>
      </trkpt>
      <trkpt lat="43.79652" lon="7.24885">
        <ele>690</ele>
        <time>2013-05-13T17:23:11.000Z</time>
      </trkpt>
      <trkpt lat="43.79656" lon="7.24882">
        <ele>690.40002441406</ele>
        <time>2013-05-13T17:23:13.000Z</time>
      </trkpt>
      <trkpt lat="43.79657" lon="7.24881">
        <ele>691</ele>
        <time>2013-05-13T17:23:14.000Z</time>
      </trkpt>
      <trkpt lat="43.79659" lon="7.2488">
        <ele>691.40002441406</ele>
        <time>2013-05-13T17:23:15.000Z</time>
      </trkpt>
      <trkpt lat="43.7966" lon="7.24878">
        <ele>691.59997558594</ele>
        <time>2013-05-13T17:23:16.000Z</time>
      </trkpt>
      <trkpt lat="43.79662" lon="7.24876">
        <ele>692.40002441406</ele>
        <time>2013-05-13T17:23:17.000Z</time>
      </trkpt>
      <trkpt lat="43.79668" lon="7.24871">
        <ele>692.59997558594</ele>
        <time>2013-05-13T17:23:20.000Z</time>
      </trkpt>
      <trkpt lat="43.7967" lon="7.2487">
        <ele>693.20001220703</ele>
        <time>2013-05-13T17:23:21.000Z</time>
      </trkpt>
      <trkpt lat="43.79671" lon="7.24868">
        <ele>693.40002441406</ele>
        <time>2013-05-13T17:23:22.000Z</time>
      </trkpt>
      <trkpt lat="43.79673" lon="7.24867">
        <ele>694.20001220703</ele>
        <time>2013-05-13T17:23:23.000Z</time>
      </trkpt>
      <trkpt lat="43.79675" lon="7.24866">
        <ele>694.40002441406</ele>
        <time>2013-05-13T17:23:24.000Z</time>
      </trkpt>
      <trkpt lat="43.7968" lon="7.2486">
        <ele>694.40002441406</ele>
        <time>2013-05-13T17:23:27.000Z</time>
      </trkpt>
      <trkpt lat="43.79683" lon="7.24857">
        <ele>695</ele>
        <time>2013-05-13T17:23:29.000Z</time>
      </trkpt>
      <trkpt lat="43.79685" lon="7.24855">
        <ele>695.40002441406</ele>
        <time>2013-05-13T17:23:30.000Z</time>
      </trkpt>
      <trkpt lat="43.79686" lon="7.24853">
        <ele>695.59997558594</ele>
        <time>2013-05-13T17:23:31.000Z</time>
      </trkpt>
      <trkpt lat="43.79688" lon="7.24851">
        <ele>696.20001220703</ele>
        <time>2013-05-13T17:23:32.000Z</time>
      </trkpt>
      <trkpt lat="43.79689" lon="7.24849">
        <ele>696.40002441406</ele>
        <time>2013-05-13T17:23:33.000Z</time>
      </trkpt>
      <trkpt lat="43.79698" lon="7.24838">
        <ele>697</ele>
        <time>2013-05-13T17:23:39.000Z</time>
      </trkpt>
      <trkpt lat="43.797" lon="7.24836">
        <ele>697.40002441406</ele>
        <time>2013-05-13T17:23:40.000Z</time>
      </trkpt>
      <trkpt lat="43.79702" lon="7.24834">
        <ele>698</ele>
        <time>2013-05-13T17:23:41.000Z</time>
      </trkpt>
      <trkpt lat="43.79703" lon="7.24831">
        <ele>698.40002441406</ele>
        <time>2013-05-13T17:23:42.000Z</time>
      </trkpt>
      <trkpt lat="43.79705" lon="7.2483">
        <ele>698.59997558594</ele>
        <time>2013-05-13T17:23:43.000Z</time>
      </trkpt>
      <trkpt lat="43.79707" lon="7.24828">
        <ele>698.59997558594</ele>
        <time>2013-05-13T17:23:44.000Z</time>
      </trkpt>
      <trkpt lat="43.79717" lon="7.24817">
        <ele>699.20001220703</ele>
        <time>2013-05-13T17:23:50.000Z</time>
      </trkpt>
      <trkpt lat="43.79719" lon="7.24815">
        <ele>699.40002441406</ele>
        <time>2013-05-13T17:23:51.000Z</time>
      </trkpt>
      <trkpt lat="43.7972" lon="7.24813">
        <ele>700</ele>
        <time>2013-05-13T17:23:52.000Z</time>
      </trkpt>
      <trkpt lat="43.79722" lon="7.24811">
        <ele>700.40002441406</ele>
        <time>2013-05-13T17:23:53.000Z</time>
      </trkpt>
      <trkpt lat="43.79724" lon="7.2481">
        <ele>700.59997558594</ele>
        <time>2013-05-13T17:23:54.000Z</time>
      </trkpt>
      <trkpt lat="43.79731" lon="7.24804">
        <ele>700.59997558594</ele>
        <time>2013-05-13T17:23:58.000Z</time>
      </trkpt>
      <trkpt lat="43.79736" lon="7.248">
        <ele>701.20001220703</ele>
        <time>2013-05-13T17:24:01.000Z</time>
      </trkpt>
      <trkpt lat="43.79738" lon="7.24799">
        <ele>701.40002441406</ele>
        <time>2013-05-13T17:24:02.000Z</time>
      </trkpt>
      <trkpt lat="43.7974" lon="7.24798">
        <ele>702</ele>
        <time>2013-05-13T17:24:03.000Z</time>
      </trkpt>
      <trkpt lat="43.79742" lon="7.24797">
        <ele>702.40002441406</ele>
        <time>2013-05-13T17:24:04.000Z</time>
      </trkpt>
      <trkpt lat="43.79744" lon="7.24796">
        <ele>703</ele>
        <time>2013-05-13T17:24:05.000Z</time>
      </trkpt>
      <trkpt lat="43.79752" lon="7.24792">
        <ele>703.40002441406</ele>
        <time>2013-05-13T17:24:09.000Z</time>
      </trkpt>
      <trkpt lat="43.79754" lon="7.24792">
        <ele>703.59997558594</ele>
        <time>2013-05-13T17:24:10.000Z</time>
      </trkpt>
      <trkpt lat="43.79756" lon="7.24791">
        <ele>704.20001220703</ele>
        <time>2013-05-13T17:24:11.000Z</time>
      </trkpt>
      <trkpt lat="43.79758" lon="7.2479">
        <ele>704.40002441406</ele>
        <time>2013-05-13T17:24:12.000Z</time>
      </trkpt>
      <trkpt lat="43.79759" lon="7.24789">
        <ele>705</ele>
        <time>2013-05-13T17:24:13.000Z</time>
      </trkpt>
      <trkpt lat="43.79771" lon="7.24785">
        <ele>705</ele>
        <time>2013-05-13T17:24:18.000Z</time>
      </trkpt>
      <trkpt lat="43.79773" lon="7.24784">
        <ele>705.40002441406</ele>
        <time>2013-05-13T17:24:19.000Z</time>
      </trkpt>
      <trkpt lat="43.79775" lon="7.24783">
        <ele>705.59997558594</ele>
        <time>2013-05-13T17:24:20.000Z</time>
      </trkpt>
      <trkpt lat="43.79777" lon="7.24783">
        <ele>706.20001220703</ele>
        <time>2013-05-13T17:24:21.000Z</time>
      </trkpt>
      <trkpt lat="43.79779" lon="7.24782">
        <ele>706.40002441406</ele>
        <time>2013-05-13T17:24:22.000Z</time>
      </trkpt>
      <trkpt lat="43.79781" lon="7.24781">
        <ele>707</ele>
        <time>2013-05-13T17:24:23.000Z</time>
      </trkpt>
      <trkpt lat="43.79785" lon="7.24778">
        <ele>707</ele>
        <time>2013-05-13T17:24:25.000Z</time>
      </trkpt>
      <trkpt lat="43.79801" lon="7.24765">
        <ele>707</ele>
        <time>2013-05-13T17:24:33.000Z</time>
      </trkpt>
      <trkpt lat="43.79814" lon="7.24757">
        <ele>707</ele>
        <time>2013-05-13T17:24:41.000Z</time>
      </trkpt>
      <trkpt lat="43.79814" lon="7.24757">
        <ele>707</ele>
        <time>2013-05-13T17:24:45.000Z</time>
      </trkpt>
      <trkpt lat="43.79814" lon="7.24757">
        <ele>707</ele>
        <time>2013-05-13T17:24:58.000Z</time>
      </trkpt>
      <trkpt lat="43.79814" lon="7.24758">
        <ele>707</ele>
        <time>2013-05-13T17:25:08.000Z</time>
      </trkpt>
      <trkpt lat="43.79815" lon="7.24758">
        <ele>707</ele>
        <time>2013-05-13T17:25:09.000Z</time>
      </trkpt>
      <trkpt lat="43.79815" lon="7.24758">
        <ele>707</ele>
        <time>2013-05-13T17:25:13.000Z</time>
      </trkpt>
      <trkpt lat="43.79816" lon="7.24757">
        <ele>707</ele>
        <time>2013-05-13T17:25:19.000Z</time>
      </trkpt>
      <trkpt lat="43.79816" lon="7.24757">
        <ele>707</ele>
        <time>2013-05-13T17:25:31.000Z</time>
      </trkpt>
      <trkpt lat="43.79821" lon="7.24755">
        <ele>707</ele>
        <time>2013-05-13T17:25:37.000Z</time>
      </trkpt>
      <trkpt lat="43.79824" lon="7.24753">
        <ele>707</ele>
        <time>2013-05-13T17:25:42.000Z</time>
      </trkpt>
      <trkpt lat="43.79823" lon="7.24752">
        <ele>707</ele>
        <time>2013-05-13T17:25:48.000Z</time>
      </trkpt>
      <trkpt lat="43.79823" lon="7.24752">
        <ele>707</ele>
        <time>2013-05-13T17:25:57.000Z</time>
      </trkpt>
      <trkpt lat="43.79823" lon="7.24752">
        <ele>707</ele>
        <time>2013-05-13T17:26:02.000Z</time>
      </trkpt>
      <trkpt lat="43.79823" lon="7.24752">
        <ele>707</ele>
        <time>2013-05-13T17:26:10.000Z</time>
      </trkpt>
      <trkpt lat="43.79823" lon="7.24752">
        <ele>707</ele>
        <time>2013-05-13T17:26:15.000Z</time>
      </trkpt>
      <trkpt lat="43.79824" lon="7.24751">
        <ele>707</ele>
        <time>2013-05-13T17:26:16.000Z</time>
      </trkpt>
      <trkpt lat="43.7983" lon="7.24747">
        <ele>707</ele>
        <time>2013-05-13T17:26:19.000Z</time>
      </trkpt>
      <trkpt lat="43.79832" lon="7.24746">
        <ele>706.40002441406</ele>
        <time>2013-05-13T17:26:20.000Z</time>
      </trkpt>
      <trkpt lat="43.79834" lon="7.24745">
        <ele>706.20001220703</ele>
        <time>2013-05-13T17:26:21.000Z</time>
      </trkpt>
      <trkpt lat="43.79837" lon="7.24743">
        <ele>705.59997558594</ele>
        <time>2013-05-13T17:26:22.000Z</time>
      </trkpt>
      <trkpt lat="43.7984" lon="7.2474">
        <ele>705.40002441406</ele>
        <time>2013-05-13T17:26:23.000Z</time>
      </trkpt>
      <trkpt lat="43.79842" lon="7.24738">
        <ele>705</ele>
        <time>2013-05-13T17:26:24.000Z</time>
      </trkpt>
      <trkpt lat="43.79845" lon="7.24736">
        <ele>705</ele>
        <time>2013-05-13T17:26:25.000Z</time>
      </trkpt>
      <trkpt lat="43.79856" lon="7.24729">
        <ele>704.40002441406</ele>
        <time>2013-05-13T17:26:29.000Z</time>
      </trkpt>
      <trkpt lat="43.79859" lon="7.24725">
        <ele>704</ele>
        <time>2013-05-13T17:26:30.000Z</time>
      </trkpt>
      <trkpt lat="43.79862" lon="7.24723">
        <ele>703.40002441406</ele>
        <time>2013-05-13T17:26:31.000Z</time>
      </trkpt>
      <trkpt lat="43.79864" lon="7.2472">
        <ele>703.20001220703</ele>
        <time>2013-05-13T17:26:32.000Z</time>
      </trkpt>
      <trkpt lat="43.79866" lon="7.24719">
        <ele>702.59997558594</ele>
        <time>2013-05-13T17:26:33.000Z</time>
      </trkpt>
      <trkpt lat="43.79872" lon="7.24715">
        <ele>702.59997558594</ele>
        <time>2013-05-13T17:26:36.000Z</time>
      </trkpt>
      <trkpt lat="43.79875" lon="7.24714">
        <ele>702.40002441406</ele>
        <time>2013-05-13T17:26:37.000Z</time>
      </trkpt>
      <trkpt lat="43.79876" lon="7.24714">
        <ele>702</ele>
        <time>2013-05-13T17:26:38.000Z</time>
      </trkpt>
      <trkpt lat="43.79877" lon="7.24713">
        <ele>701.40002441406</ele>
        <time>2013-05-13T17:26:39.000Z</time>
      </trkpt>
      <trkpt lat="43.79879" lon="7.24712">
        <ele>701</ele>
        <time>2013-05-13T17:26:40.000Z</time>
      </trkpt>
      <trkpt lat="43.79881" lon="7.24712">
        <ele>700.40002441406</ele>
        <time>2013-05-13T17:26:41.000Z</time>
      </trkpt>
      <trkpt lat="43.79892" lon="7.24712">
        <ele>700.40002441406</ele>
        <time>2013-05-13T17:26:45.000Z</time>
      </trkpt>
      <trkpt lat="43.79894" lon="7.24711">
        <ele>700.20001220703</ele>
        <time>2013-05-13T17:26:46.000Z</time>
      </trkpt>
      <trkpt lat="43.79896" lon="7.2471">
        <ele>699.59997558594</ele>
        <time>2013-05-13T17:26:47.000Z</time>
      </trkpt>
      <trkpt lat="43.79898" lon="7.2471">
        <ele>699.40002441406</ele>
        <time>2013-05-13T17:26:48.000Z</time>
      </trkpt>
      <trkpt lat="43.799" lon="7.24709">
        <ele>699</ele>
        <time>2013-05-13T17:26:49.000Z</time>
      </trkpt>
      <trkpt lat="43.79903" lon="7.24709">
        <ele>698.40002441406</ele>
        <time>2013-05-13T17:26:50.000Z</time>
      </trkpt>
      <trkpt lat="43.79918" lon="7.24704">
        <ele>698.40002441406</ele>
        <time>2013-05-13T17:26:55.000Z</time>
      </trkpt>
      <trkpt lat="43.7992" lon="7.24704">
        <ele>698</ele>
        <time>2013-05-13T17:26:56.000Z</time>
      </trkpt>
      <trkpt lat="43.79922" lon="7.24703">
        <ele>697.40002441406</ele>
        <time>2013-05-13T17:26:57.000Z</time>
      </trkpt>
      <trkpt lat="43.79924" lon="7.24702">
        <ele>697.20001220703</ele>
        <time>2013-05-13T17:26:58.000Z</time>
      </trkpt>
      <trkpt lat="43.79926" lon="7.24701">
        <ele>696.59997558594</ele>
        <time>2013-05-13T17:26:59.000Z</time>
      </trkpt>
      <trkpt lat="43.79928" lon="7.24701">
        <ele>696.20001220703</ele>
        <time>2013-05-13T17:27:00.000Z</time>
      </trkpt>
      <trkpt lat="43.79935" lon="7.24699">
        <ele>695.59997558594</ele>
        <time>2013-05-13T17:27:03.000Z</time>
      </trkpt>
      <trkpt lat="43.79937" lon="7.24698">
        <ele>695.40002441406</ele>
        <time>2013-05-13T17:27:04.000Z</time>
      </trkpt>
      <trkpt lat="43.79937" lon="7.24698">
        <ele>695</ele>
        <time>2013-05-13T17:27:05.000Z</time>
      </trkpt>
      <trkpt lat="43.79938" lon="7.24697">
        <ele>694.40002441406</ele>
        <time>2013-05-13T17:27:06.000Z</time>
      </trkpt>
      <trkpt lat="43.7994" lon="7.24697">
        <ele>694</ele>
        <time>2013-05-13T17:27:07.000Z</time>
      </trkpt>
      <trkpt lat="43.79943" lon="7.24696">
        <ele>694</ele>
        <time>2013-05-13T17:27:09.000Z</time>
      </trkpt>
      <trkpt lat="43.79948" lon="7.24694">
        <ele>694</ele>
        <time>2013-05-13T17:27:11.000Z</time>
      </trkpt>
      <trkpt lat="43.79951" lon="7.24694">
        <ele>693.40002441406</ele>
        <time>2013-05-13T17:27:12.000Z</time>
      </trkpt>
      <trkpt lat="43.79953" lon="7.24694">
        <ele>693.20001220703</ele>
        <time>2013-05-13T17:27:13.000Z</time>
      </trkpt>
      <trkpt lat="43.79955" lon="7.24692">
        <ele>692.59997558594</ele>
        <time>2013-05-13T17:27:14.000Z</time>
      </trkpt>
      <trkpt lat="43.79957" lon="7.24691">
        <ele>692.40002441406</ele>
        <time>2013-05-13T17:27:15.000Z</time>
      </trkpt>
      <trkpt lat="43.79959" lon="7.2469">
        <ele>692</ele>
        <time>2013-05-13T17:27:16.000Z</time>
      </trkpt>
      <trkpt lat="43.79968" lon="7.24688">
        <ele>692</ele>
        <time>2013-05-13T17:27:19.000Z</time>
      </trkpt>
      <trkpt lat="43.79973" lon="7.24686">
        <ele>691.40002441406</ele>
        <time>2013-05-13T17:27:21.000Z</time>
      </trkpt>
      <trkpt lat="43.79976" lon="7.24686">
        <ele>691</ele>
        <time>2013-05-13T17:27:22.000Z</time>
      </trkpt>
      <trkpt lat="43.79979" lon="7.24686">
        <ele>690.40002441406</ele>
        <time>2013-05-13T17:27:23.000Z</time>
      </trkpt>
      <trkpt lat="43.7998" lon="7.24684">
        <ele>690.20001220703</ele>
        <time>2013-05-13T17:27:24.000Z</time>
      </trkpt>
      <trkpt lat="43.79982" lon="7.24685">
        <ele>689.59997558594</ele>
        <time>2013-05-13T17:27:25.000Z</time>
      </trkpt>
      <trkpt lat="43.79986" lon="7.24686">
        <ele>689.59997558594</ele>
        <time>2013-05-13T17:27:28.000Z</time>
      </trkpt>
      <trkpt lat="43.79995" lon="7.24686">
        <ele>689.40002441406</ele>
        <time>2013-05-13T17:27:32.000Z</time>
      </trkpt>
      <trkpt lat="43.79997" lon="7.24685">
        <ele>689</ele>
        <time>2013-05-13T17:27:33.000Z</time>
      </trkpt>
      <trkpt lat="43.79998" lon="7.24685">
        <ele>688.40002441406</ele>
        <time>2013-05-13T17:27:34.000Z</time>
      </trkpt>
      <trkpt lat="43.79998" lon="7.24685">
        <ele>688.20001220703</ele>
        <time>2013-05-13T17:27:35.000Z</time>
      </trkpt>
      <trkpt lat="43.79998" lon="7.24684">
        <ele>687.59997558594</ele>
        <time>2013-05-13T17:27:36.000Z</time>
      </trkpt>
      <trkpt lat="43.79997" lon="7.24685">
        <ele>687.59997558594</ele>
        <time>2013-05-13T17:27:37.000Z</time>
      </trkpt>
      <trkpt lat="43.79997" lon="7.24684">
        <ele>687.59997558594</ele>
        <time>2013-05-13T17:27:38.000Z</time>
      </trkpt>
      <trkpt lat="43.79997" lon="7.24684">
        <ele>687.59997558594</ele>
        <time>2013-05-13T17:27:42.000Z</time>
      </trkpt>
      <trkpt lat="43.80002" lon="7.2468">
        <ele>687.59997558594</ele>
        <time>2013-05-13T17:27:47.000Z</time>
      </trkpt>
      <trkpt lat="43.80002" lon="7.24679">
        <ele>687.59997558594</ele>
        <time>2013-05-13T17:27:48.000Z</time>
      </trkpt>
      <trkpt lat="43.80001" lon="7.2468">
        <ele>687.59997558594</ele>
        <time>2013-05-13T17:27:53.000Z</time>
      </trkpt>
      <trkpt lat="43.80004" lon="7.24679">
        <ele>687.59997558594</ele>
        <time>2013-05-13T17:27:58.000Z</time>
      </trkpt>
      <trkpt lat="43.80009" lon="7.24677">
        <ele>687.40002441406</ele>
        <time>2013-05-13T17:28:02.000Z</time>
      </trkpt>
      <trkpt lat="43.8001" lon="7.24677">
        <ele>687</ele>
        <time>2013-05-13T17:28:03.000Z</time>
      </trkpt>
      <trkpt lat="43.80011" lon="7.24678">
        <ele>686.40002441406</ele>
        <time>2013-05-13T17:28:04.000Z</time>
      </trkpt>
      <trkpt lat="43.80013" lon="7.24678">
        <ele>686.20001220703</ele>
        <time>2013-05-13T17:28:05.000Z</time>
      </trkpt>
      <trkpt lat="43.80014" lon="7.24678">
        <ele>685.59997558594</ele>
        <time>2013-05-13T17:28:06.000Z</time>
      </trkpt>
      <trkpt lat="43.80017" lon="7.24679">
        <ele>685.59997558594</ele>
        <time>2013-05-13T17:28:10.000Z</time>
      </trkpt>
      <trkpt lat="43.8002" lon="7.24681">
        <ele>685.20001220703</ele>
        <time>2013-05-13T17:28:14.000Z</time>
      </trkpt>
      <trkpt lat="43.80021" lon="7.24681">
        <ele>684.40002441406</ele>
        <time>2013-05-13T17:28:15.000Z</time>
      </trkpt>
      <trkpt lat="43.80021" lon="7.24681">
        <ele>684</ele>
        <time>2013-05-13T17:28:16.000Z</time>
      </trkpt>
      <trkpt lat="43.80021" lon="7.24681">
        <ele>683.40002441406</ele>
        <time>2013-05-13T17:28:17.000Z</time>
      </trkpt>
      <trkpt lat="43.80022" lon="7.24683">
        <ele>683.40002441406</ele>
        <time>2013-05-13T17:28:19.000Z</time>
      </trkpt>
      <trkpt lat="43.80027" lon="7.2468">
        <ele>683.40002441406</ele>
        <time>2013-05-13T17:28:21.000Z</time>
      </trkpt>
      <trkpt lat="43.80036" lon="7.24672">
        <ele>683.40002441406</ele>
        <time>2013-05-13T17:28:24.000Z</time>
      </trkpt>
      <trkpt lat="43.80041" lon="7.24672">
        <ele>683.40002441406</ele>
        <time>2013-05-13T17:28:25.000Z</time>
      </trkpt>
      <trkpt lat="43.80045" lon="7.24681">
        <ele>683.40002441406</ele>
        <time>2013-05-13T17:28:27.000Z</time>
      </trkpt>
      <trkpt lat="43.80047" lon="7.24684">
        <ele>683.40002441406</ele>
        <time>2013-05-13T17:28:28.000Z</time>
      </trkpt>
      <trkpt lat="43.80048" lon="7.24694">
        <ele>683.40002441406</ele>
        <time>2013-05-13T17:28:30.000Z</time>
      </trkpt>
      <trkpt lat="43.80049" lon="7.24698">
        <ele>683.20001220703</ele>
        <time>2013-05-13T17:28:31.000Z</time>
      </trkpt>
      <trkpt lat="43.80051" lon="7.24701">
        <ele>682.59997558594</ele>
        <time>2013-05-13T17:28:32.000Z</time>
      </trkpt>
      <trkpt lat="43.80053" lon="7.24705">
        <ele>682.40002441406</ele>
        <time>2013-05-13T17:28:33.000Z</time>
      </trkpt>
      <trkpt lat="43.80054" lon="7.24707">
        <ele>682</ele>
        <time>2013-05-13T17:28:34.000Z</time>
      </trkpt>
      <trkpt lat="43.80055" lon="7.2471">
        <ele>681.40002441406</ele>
        <time>2013-05-13T17:28:35.000Z</time>
      </trkpt>
      <trkpt lat="43.80057" lon="7.24714">
        <ele>682</ele>
        <time>2013-05-13T17:28:37.000Z</time>
      </trkpt>
      <trkpt lat="43.80058" lon="7.24716">
        <ele>682.40002441406</ele>
        <time>2013-05-13T17:28:38.000Z</time>
      </trkpt>
      <trkpt lat="43.80059" lon="7.24718">
        <ele>682.59997558594</ele>
        <time>2013-05-13T17:28:39.000Z</time>
      </trkpt>
      <trkpt lat="43.80059" lon="7.24721">
        <ele>683.40002441406</ele>
        <time>2013-05-13T17:28:40.000Z</time>
      </trkpt>
      <trkpt lat="43.8006" lon="7.24723">
        <ele>684</ele>
        <time>2013-05-13T17:28:41.000Z</time>
      </trkpt>
      <trkpt lat="43.80061" lon="7.24725">
        <ele>684.40002441406</ele>
        <time>2013-05-13T17:28:42.000Z</time>
      </trkpt>
      <trkpt lat="43.80062" lon="7.24727">
        <ele>684.59997558594</ele>
        <time>2013-05-13T17:28:43.000Z</time>
      </trkpt>
      <trkpt lat="43.80062" lon="7.2473">
        <ele>685.20001220703</ele>
        <time>2013-05-13T17:28:44.000Z</time>
      </trkpt>
      <trkpt lat="43.80063" lon="7.24732">
        <ele>685.40002441406</ele>
        <time>2013-05-13T17:28:45.000Z</time>
      </trkpt>
      <trkpt lat="43.80064" lon="7.24737">
        <ele>686</ele>
        <time>2013-05-13T17:28:47.000Z</time>
      </trkpt>
      <trkpt lat="43.80065" lon="7.24739">
        <ele>686.40002441406</ele>
        <time>2013-05-13T17:28:48.000Z</time>
      </trkpt>
      <trkpt lat="43.80066" lon="7.24741">
        <ele>687</ele>
        <time>2013-05-13T17:28:49.000Z</time>
      </trkpt>
      <trkpt lat="43.80066" lon="7.24744">
        <ele>687.40002441406</ele>
        <time>2013-05-13T17:28:50.000Z</time>
      </trkpt>
      <trkpt lat="43.80066" lon="7.24746">
        <ele>688</ele>
        <time>2013-05-13T17:28:51.000Z</time>
      </trkpt>
      <trkpt lat="43.80068" lon="7.24753">
        <ele>688.40002441406</ele>
        <time>2013-05-13T17:28:54.000Z</time>
      </trkpt>
      <trkpt lat="43.80068" lon="7.24755">
        <ele>688.59997558594</ele>
        <time>2013-05-13T17:28:55.000Z</time>
      </trkpt>
      <trkpt lat="43.80069" lon="7.24757">
        <ele>689.20001220703</ele>
        <time>2013-05-13T17:28:56.000Z</time>
      </trkpt>
      <trkpt lat="43.8007" lon="7.2476">
        <ele>689.40002441406</ele>
        <time>2013-05-13T17:28:57.000Z</time>
      </trkpt>
      <trkpt lat="43.8007" lon="7.24763">
        <ele>690</ele>
        <time>2013-05-13T17:28:58.000Z</time>
      </trkpt>
      <trkpt lat="43.80071" lon="7.24768">
        <ele>690</ele>
        <time>2013-05-13T17:29:00.000Z</time>
      </trkpt>
      <trkpt lat="43.80072" lon="7.24771">
        <ele>690</ele>
        <time>2013-05-13T17:29:01.000Z</time>
      </trkpt>
      <trkpt lat="43.80075" lon="7.24783">
        <ele>690.40002441406</ele>
        <time>2013-05-13T17:29:07.000Z</time>
      </trkpt>
      <trkpt lat="43.80076" lon="7.24785">
        <ele>690.59997558594</ele>
        <time>2013-05-13T17:29:08.000Z</time>
      </trkpt>
      <trkpt lat="43.80076" lon="7.24787">
        <ele>691.20001220703</ele>
        <time>2013-05-13T17:29:09.000Z</time>
      </trkpt>
      <trkpt lat="43.80076" lon="7.24789">
        <ele>691.40002441406</ele>
        <time>2013-05-13T17:29:10.000Z</time>
      </trkpt>
      <trkpt lat="43.80077" lon="7.24791">
        <ele>692</ele>
        <time>2013-05-13T17:29:11.000Z</time>
      </trkpt>
      <trkpt lat="43.80078" lon="7.24792">
        <ele>692</ele>
        <time>2013-05-13T17:29:12.000Z</time>
      </trkpt>
      <trkpt lat="43.80078" lon="7.24798">
        <ele>692.40002441406</ele>
        <time>2013-05-13T17:29:15.000Z</time>
      </trkpt>
      <trkpt lat="43.80077" lon="7.24799">
        <ele>693</ele>
        <time>2013-05-13T17:29:16.000Z</time>
      </trkpt>
      <trkpt lat="43.80078" lon="7.248">
        <ele>693.40002441406</ele>
        <time>2013-05-13T17:29:17.000Z</time>
      </trkpt>
      <trkpt lat="43.80079" lon="7.24802">
        <ele>694</ele>
        <time>2013-05-13T17:29:18.000Z</time>
      </trkpt>
      <trkpt lat="43.80079" lon="7.24803">
        <ele>694.40002441406</ele>
        <time>2013-05-13T17:29:19.000Z</time>
      </trkpt>
      <trkpt lat="43.80079" lon="7.24805">
        <ele>694.40002441406</ele>
        <time>2013-05-13T17:29:20.000Z</time>
      </trkpt>
      <trkpt lat="43.80079" lon="7.24809">
        <ele>694.59997558594</ele>
        <time>2013-05-13T17:29:22.000Z</time>
      </trkpt>
      <trkpt lat="43.80079" lon="7.24811">
        <ele>695.20001220703</ele>
        <time>2013-05-13T17:29:23.000Z</time>
      </trkpt>
      <trkpt lat="43.80079" lon="7.24813">
        <ele>695.40002441406</ele>
        <time>2013-05-13T17:29:24.000Z</time>
      </trkpt>
      <trkpt lat="43.80079" lon="7.24815">
        <ele>696</ele>
        <time>2013-05-13T17:29:25.000Z</time>
      </trkpt>
      <trkpt lat="43.80079" lon="7.24817">
        <ele>696.40002441406</ele>
        <time>2013-05-13T17:29:26.000Z</time>
      </trkpt>
      <trkpt lat="43.80078" lon="7.24826">
        <ele>696.40002441406</ele>
        <time>2013-05-13T17:29:30.000Z</time>
      </trkpt>
      <trkpt lat="43.80077" lon="7.2483">
        <ele>696.40002441406</ele>
        <time>2013-05-13T17:29:32.000Z</time>
      </trkpt>
      <trkpt lat="43.80076" lon="7.2483">
        <ele>696.40002441406</ele>
        <time>2013-05-13T17:29:35.000Z</time>
      </trkpt>
      <trkpt lat="43.80076" lon="7.2483">
        <ele>696.40002441406</ele>
        <time>2013-05-13T17:29:49.000Z</time>
      </trkpt>
      <trkpt lat="43.80076" lon="7.24836">
        <ele>696.40002441406</ele>
        <time>2013-05-13T17:29:56.000Z</time>
      </trkpt>
      <trkpt lat="43.80076" lon="7.24843">
        <ele>696.59997558594</ele>
        <time>2013-05-13T17:29:59.000Z</time>
      </trkpt>
      <trkpt lat="43.80075" lon="7.24846">
        <ele>697.20001220703</ele>
        <time>2013-05-13T17:30:00.000Z</time>
      </trkpt>
      <trkpt lat="43.80076" lon="7.2485">
        <ele>697.40002441406</ele>
        <time>2013-05-13T17:30:01.000Z</time>
      </trkpt>
      <trkpt lat="43.80076" lon="7.24855">
        <ele>698</ele>
        <time>2013-05-13T17:30:02.000Z</time>
      </trkpt>
      <trkpt lat="43.80076" lon="7.24859">
        <ele>698.40002441406</ele>
        <time>2013-05-13T17:30:03.000Z</time>
      </trkpt>
      <trkpt lat="43.80078" lon="7.2487">
        <ele>698.40002441406</ele>
        <time>2013-05-13T17:30:06.000Z</time>
      </trkpt>
      <trkpt lat="43.80085" lon="7.24891">
        <ele>698.40002441406</ele>
        <time>2013-05-13T17:30:12.000Z</time>
      </trkpt>
      <trkpt lat="43.80087" lon="7.24894">
        <ele>698.59997558594</ele>
        <time>2013-05-13T17:30:14.000Z</time>
      </trkpt>
      <trkpt lat="43.80088" lon="7.24895">
        <ele>699.20001220703</ele>
        <time>2013-05-13T17:30:15.000Z</time>
      </trkpt>
      <trkpt lat="43.80088" lon="7.24896">
        <ele>699.59997558594</ele>
        <time>2013-05-13T17:30:16.000Z</time>
      </trkpt>
      <trkpt lat="43.80089" lon="7.24898">
        <ele>700.20001220703</ele>
        <time>2013-05-13T17:30:17.000Z</time>
      </trkpt>
      <trkpt lat="43.80088" lon="7.24899">
        <ele>700.40002441406</ele>
        <time>2013-05-13T17:30:18.000Z</time>
      </trkpt>
      <trkpt lat="43.80088" lon="7.24901">
        <ele>700.40002441406</ele>
        <time>2013-05-13T17:30:21.000Z</time>
      </trkpt>
      <trkpt lat="43.80088" lon="7.24901">
        <ele>700.40002441406</ele>
        <time>2013-05-13T17:30:29.000Z</time>
      </trkpt>
      <trkpt lat="43.80088" lon="7.24903">
        <ele>700.40002441406</ele>
        <time>2013-05-13T17:30:34.000Z</time>
      </trkpt>
      <trkpt lat="43.80093" lon="7.24917">
        <ele>700.40002441406</ele>
        <time>2013-05-13T17:30:39.000Z</time>
      </trkpt>
      <trkpt lat="43.80102" lon="7.24929">
        <ele>700.40002441406</ele>
        <time>2013-05-13T17:30:44.000Z</time>
      </trkpt>
      <trkpt lat="43.80104" lon="7.24932">
        <ele>701</ele>
        <time>2013-05-13T17:30:45.000Z</time>
      </trkpt>
      <trkpt lat="43.80105" lon="7.24934">
        <ele>701.40002441406</ele>
        <time>2013-05-13T17:30:46.000Z</time>
      </trkpt>
      <trkpt lat="43.80107" lon="7.24936">
        <ele>701.59997558594</ele>
        <time>2013-05-13T17:30:47.000Z</time>
      </trkpt>
      <trkpt lat="43.80108" lon="7.24939">
        <ele>702.20001220703</ele>
        <time>2013-05-13T17:30:48.000Z</time>
      </trkpt>
      <trkpt lat="43.80109" lon="7.24942">
        <ele>702.40002441406</ele>
        <time>2013-05-13T17:30:49.000Z</time>
      </trkpt>
      <trkpt lat="43.80119" lon="7.24964">
        <ele>702.40002441406</ele>
        <time>2013-05-13T17:30:56.000Z</time>
      </trkpt>
      <trkpt lat="43.80124" lon="7.24973">
        <ele>702.40002441406</ele>
        <time>2013-05-13T17:30:59.000Z</time>
      </trkpt>
      <trkpt lat="43.80127" lon="7.24977">
        <ele>702.40002441406</ele>
        <time>2013-05-13T17:31:00.000Z</time>
      </trkpt>
      <trkpt lat="43.8014" lon="7.24983">
        <ele>702.40002441406</ele>
        <time>2013-05-13T17:31:04.000Z</time>
      </trkpt>
      <trkpt lat="43.80151" lon="7.2498">
        <ele>702.40002441406</ele>
        <time>2013-05-13T17:31:08.000Z</time>
      </trkpt>
      <trkpt lat="43.80157" lon="7.2498">
        <ele>703</ele>
        <time>2013-05-13T17:31:12.000Z</time>
      </trkpt>
      <trkpt lat="43.80157" lon="7.2498">
        <ele>703.40002441406</ele>
        <time>2013-05-13T17:31:13.000Z</time>
      </trkpt>
      <trkpt lat="43.80157" lon="7.2498">
        <ele>703.59997558594</ele>
        <time>2013-05-13T17:31:14.000Z</time>
      </trkpt>
      <trkpt lat="43.80158" lon="7.24981">
        <ele>704.20001220703</ele>
        <time>2013-05-13T17:31:15.000Z</time>
      </trkpt>
      <trkpt lat="43.80159" lon="7.24982">
        <ele>704.40002441406</ele>
        <time>2013-05-13T17:31:16.000Z</time>
      </trkpt>
      <trkpt lat="43.80161" lon="7.24983">
        <ele>704.40002441406</ele>
        <time>2013-05-13T17:31:18.000Z</time>
      </trkpt>
      <trkpt lat="43.80165" lon="7.24985">
        <ele>705</ele>
        <time>2013-05-13T17:31:22.000Z</time>
      </trkpt>
      <trkpt lat="43.80166" lon="7.24986">
        <ele>705.40002441406</ele>
        <time>2013-05-13T17:31:23.000Z</time>
      </trkpt>
      <trkpt lat="43.80167" lon="7.24987">
        <ele>705.59997558594</ele>
        <time>2013-05-13T17:31:24.000Z</time>
      </trkpt>
      <trkpt lat="43.80167" lon="7.24988">
        <ele>706.20001220703</ele>
        <time>2013-05-13T17:31:25.000Z</time>
      </trkpt>
      <trkpt lat="43.80168" lon="7.2499">
        <ele>706.59997558594</ele>
        <time>2013-05-13T17:31:26.000Z</time>
      </trkpt>
      <trkpt lat="43.80169" lon="7.24991">
        <ele>706.59997558594</ele>
        <time>2013-05-13T17:31:27.000Z</time>
      </trkpt>
      <trkpt lat="43.8017" lon="7.24992">
        <ele>706.59997558594</ele>
        <time>2013-05-13T17:31:29.000Z</time>
      </trkpt>
      <trkpt lat="43.80173" lon="7.24995">
        <ele>706.59997558594</ele>
        <time>2013-05-13T17:31:33.000Z</time>
      </trkpt>
      <trkpt lat="43.80174" lon="7.24996">
        <ele>706.59997558594</ele>
        <time>2013-05-13T17:31:34.000Z</time>
      </trkpt>
      <trkpt lat="43.80177" lon="7.24999">
        <ele>707.20001220703</ele>
        <time>2013-05-13T17:31:37.000Z</time>
      </trkpt>
      <trkpt lat="43.80178" lon="7.25001">
        <ele>707.40002441406</ele>
        <time>2013-05-13T17:31:38.000Z</time>
      </trkpt>
      <trkpt lat="43.80179" lon="7.25002">
        <ele>708</ele>
        <time>2013-05-13T17:31:39.000Z</time>
      </trkpt>
      <trkpt lat="43.8018" lon="7.25004">
        <ele>708.40002441406</ele>
        <time>2013-05-13T17:31:40.000Z</time>
      </trkpt>
      <trkpt lat="43.80181" lon="7.25005">
        <ele>708.59997558594</ele>
        <time>2013-05-13T17:31:41.000Z</time>
      </trkpt>
      <trkpt lat="43.80184" lon="7.25009">
        <ele>708.59997558594</ele>
        <time>2013-05-13T17:31:45.000Z</time>
      </trkpt>
      <trkpt lat="43.80187" lon="7.25012">
        <ele>709.20001220703</ele>
        <time>2013-05-13T17:31:49.000Z</time>
      </trkpt>
      <trkpt lat="43.80188" lon="7.25013">
        <ele>709.40002441406</ele>
        <time>2013-05-13T17:31:50.000Z</time>
      </trkpt>
      <trkpt lat="43.80189" lon="7.25014">
        <ele>710</ele>
        <time>2013-05-13T17:31:51.000Z</time>
      </trkpt>
      <trkpt lat="43.80189" lon="7.25015">
        <ele>710.40002441406</ele>
        <time>2013-05-13T17:31:52.000Z</time>
      </trkpt>
      <trkpt lat="43.8019" lon="7.25016">
        <ele>710.59997558594</ele>
        <time>2013-05-13T17:31:53.000Z</time>
      </trkpt>
      <trkpt lat="43.80193" lon="7.2502">
        <ele>711.20001220703</ele>
        <time>2013-05-13T17:31:58.000Z</time>
      </trkpt>
      <trkpt lat="43.80194" lon="7.25021">
        <ele>711.40002441406</ele>
        <time>2013-05-13T17:31:59.000Z</time>
      </trkpt>
      <trkpt lat="43.80195" lon="7.25021">
        <ele>712</ele>
        <time>2013-05-13T17:32:00.000Z</time>
      </trkpt>
      <trkpt lat="43.80195" lon="7.25021">
        <ele>712.40002441406</ele>
        <time>2013-05-13T17:32:01.000Z</time>
      </trkpt>
      <trkpt lat="43.80196" lon="7.25022">
        <ele>713</ele>
        <time>2013-05-13T17:32:02.000Z</time>
      </trkpt>
      <trkpt lat="43.80197" lon="7.25023">
        <ele>713</ele>
        <time>2013-05-13T17:32:04.000Z</time>
      </trkpt>
      <trkpt lat="43.80199" lon="7.25025">
        <ele>713.40002441406</ele>
        <time>2013-05-13T17:32:06.000Z</time>
      </trkpt>
      <trkpt lat="43.802" lon="7.25026">
        <ele>713.59997558594</ele>
        <time>2013-05-13T17:32:07.000Z</time>
      </trkpt>
      <trkpt lat="43.802" lon="7.25027">
        <ele>714.20001220703</ele>
        <time>2013-05-13T17:32:08.000Z</time>
      </trkpt>
      <trkpt lat="43.80201" lon="7.25028">
        <ele>714.40002441406</ele>
        <time>2013-05-13T17:32:09.000Z</time>
      </trkpt>
      <trkpt lat="43.80202" lon="7.25029">
        <ele>715.20001220703</ele>
        <time>2013-05-13T17:32:10.000Z</time>
      </trkpt>
      <trkpt lat="43.80205" lon="7.25038">
        <ele>715.40002441406</ele>
        <time>2013-05-13T17:32:17.000Z</time>
      </trkpt>
      <trkpt lat="43.80206" lon="7.25039">
        <ele>716</ele>
        <time>2013-05-13T17:32:18.000Z</time>
      </trkpt>
      <trkpt lat="43.80206" lon="7.2504">
        <ele>716.40002441406</ele>
        <time>2013-05-13T17:32:19.000Z</time>
      </trkpt>
      <trkpt lat="43.80206" lon="7.25041">
        <ele>716.59997558594</ele>
        <time>2013-05-13T17:32:20.000Z</time>
      </trkpt>
      <trkpt lat="43.80206" lon="7.25041">
        <ele>717.20001220703</ele>
        <time>2013-05-13T17:32:21.000Z</time>
      </trkpt>
      <trkpt lat="43.80206" lon="7.25041">
        <ele>717.20001220703</ele>
        <time>2013-05-13T17:32:23.000Z</time>
      </trkpt>
      <trkpt lat="43.80206" lon="7.25041">
        <ele>717.20001220703</ele>
        <time>2013-05-13T17:32:34.000Z</time>
      </trkpt>
      <trkpt lat="43.80206" lon="7.25041">
        <ele>717.20001220703</ele>
        <time>2013-05-13T17:32:43.000Z</time>
      </trkpt>
      <trkpt lat="43.80206" lon="7.25041">
        <ele>717.20001220703</ele>
        <time>2013-05-13T17:32:52.000Z</time>
      </trkpt>
      <trkpt lat="43.80206" lon="7.25041">
        <ele>717.20001220703</ele>
        <time>2013-05-13T17:33:00.000Z</time>
      </trkpt>
      <trkpt lat="43.80206" lon="7.25041">
        <ele>717.20001220703</ele>
        <time>2013-05-13T17:33:09.000Z</time>
      </trkpt>
      <trkpt lat="43.80206" lon="7.25041">
        <ele>717.20001220703</ele>
        <time>2013-05-13T17:33:23.000Z</time>
      </trkpt>
      <trkpt lat="43.80206" lon="7.25041">
        <ele>717.20001220703</ele>
        <time>2013-05-13T17:33:33.000Z</time>
      </trkpt>
      <trkpt lat="43.80206" lon="7.25041">
        <ele>717.20001220703</ele>
        <time>2013-05-13T17:33:45.000Z</time>
      </trkpt>
      <trkpt lat="43.80206" lon="7.25041">
        <ele>717.20001220703</ele>
        <time>2013-05-13T17:33:58.000Z</time>
      </trkpt>
      <trkpt lat="43.80206" lon="7.25041">
        <ele>717.20001220703</ele>
        <time>2013-05-13T17:34:15.000Z</time>
      </trkpt>
      <trkpt lat="43.80206" lon="7.25041">
        <ele>717.20001220703</ele>
        <time>2013-05-13T17:34:27.000Z</time>
      </trkpt>
      <trkpt lat="43.80206" lon="7.25041">
        <ele>717.20001220703</ele>
        <time>2013-05-13T17:34:43.000Z</time>
      </trkpt>
      <trkpt lat="43.80206" lon="7.25041">
        <ele>717.20001220703</ele>
        <time>2013-05-13T17:34:58.000Z</time>
      </trkpt>
      <trkpt lat="43.80206" lon="7.25041">
        <ele>717.20001220703</ele>
        <time>2013-05-13T17:35:06.000Z</time>
      </trkpt>
      <trkpt lat="43.80206" lon="7.25041">
        <ele>717.20001220703</ele>
        <time>2013-05-13T17:35:19.000Z</time>
      </trkpt>
      <trkpt lat="43.80206" lon="7.25041">
        <ele>717.20001220703</ele>
        <time>2013-05-13T17:35:29.000Z</time>
      </trkpt>
      <trkpt lat="43.80207" lon="7.25042">
        <ele>717.20001220703</ele>
        <time>2013-05-13T17:35:43.000Z</time>
      </trkpt>
      <trkpt lat="43.80208" lon="7.25049">
        <ele>717.20001220703</ele>
        <time>2013-05-13T17:35:47.000Z</time>
      </trkpt>
      <trkpt lat="43.80215" lon="7.25064">
        <ele>717.20001220703</ele>
        <time>2013-05-13T17:35:52.000Z</time>
      </trkpt>
      <trkpt lat="43.80227" lon="7.25087">
        <ele>717.20001220703</ele>
        <time>2013-05-13T17:35:58.000Z</time>
      </trkpt>
      <trkpt lat="43.80246" lon="7.25108">
        <ele>717.20001220703</ele>
        <time>2013-05-13T17:36:04.000Z</time>
      </trkpt>
      <trkpt lat="43.80262" lon="7.25124">
        <ele>717.20001220703</ele>
        <time>2013-05-13T17:36:10.000Z</time>
      </trkpt>
      <trkpt lat="43.80271" lon="7.25138">
        <ele>717.20001220703</ele>
        <time>2013-05-13T17:36:14.000Z</time>
      </trkpt>
      <trkpt lat="43.80274" lon="7.25142">
        <ele>717.20001220703</ele>
        <time>2013-05-13T17:36:15.000Z</time>
      </trkpt>
      <trkpt lat="43.80281" lon="7.25148">
        <ele>717.20001220703</ele>
        <time>2013-05-13T17:36:17.000Z</time>
      </trkpt>
      <trkpt lat="43.80302" lon="7.25159">
        <ele>717.20001220703</ele>
        <time>2013-05-13T17:36:23.000Z</time>
      </trkpt>
      <trkpt lat="43.80312" lon="7.25165">
        <ele>717.20001220703</ele>
        <time>2013-05-13T17:36:26.000Z</time>
      </trkpt>
      <trkpt lat="43.8032" lon="7.25168">
        <ele>717.20001220703</ele>
        <time>2013-05-13T17:36:28.000Z</time>
      </trkpt>
      <trkpt lat="43.80341" lon="7.25172">
        <ele>717.20001220703</ele>
        <time>2013-05-13T17:36:34.000Z</time>
      </trkpt>
      <trkpt lat="43.80344" lon="7.25172">
        <ele>717.40002441406</ele>
        <time>2013-05-13T17:36:35.000Z</time>
      </trkpt>
      <trkpt lat="43.80347" lon="7.25172">
        <ele>718.20001220703</ele>
        <time>2013-05-13T17:36:36.000Z</time>
      </trkpt>
      <trkpt lat="43.8035" lon="7.25172">
        <ele>718.40002441406</ele>
        <time>2013-05-13T17:36:37.000Z</time>
      </trkpt>
      <trkpt lat="43.80353" lon="7.25172">
        <ele>719</ele>
        <time>2013-05-13T17:36:38.000Z</time>
      </trkpt>
      <trkpt lat="43.80355" lon="7.25173">
        <ele>719.40002441406</ele>
        <time>2013-05-13T17:36:39.000Z</time>
      </trkpt>
      <trkpt lat="43.80363" lon="7.25173">
        <ele>719.40002441406</ele>
        <time>2013-05-13T17:36:42.000Z</time>
      </trkpt>
      <trkpt lat="43.80365" lon="7.25172">
        <ele>720</ele>
        <time>2013-05-13T17:36:43.000Z</time>
      </trkpt>
      <trkpt lat="43.80367" lon="7.25172">
        <ele>720.40002441406</ele>
        <time>2013-05-13T17:36:44.000Z</time>
      </trkpt>
      <trkpt lat="43.80369" lon="7.25172">
        <ele>720.59997558594</ele>
        <time>2013-05-13T17:36:45.000Z</time>
      </trkpt>
      <trkpt lat="43.80371" lon="7.25172">
        <ele>721.40002441406</ele>
        <time>2013-05-13T17:36:46.000Z</time>
      </trkpt>
      <trkpt lat="43.80374" lon="7.25171">
        <ele>721.59997558594</ele>
        <time>2013-05-13T17:36:47.000Z</time>
      </trkpt>
      <trkpt lat="43.8038" lon="7.25171">
        <ele>722.20001220703</ele>
        <time>2013-05-13T17:36:50.000Z</time>
      </trkpt>
      <trkpt lat="43.80382" lon="7.25171">
        <ele>722.59997558594</ele>
        <time>2013-05-13T17:36:51.000Z</time>
      </trkpt>
      <trkpt lat="43.80384" lon="7.2517">
        <ele>723.20001220703</ele>
        <time>2013-05-13T17:36:52.000Z</time>
      </trkpt>
      <trkpt lat="43.80385" lon="7.2517">
        <ele>723.40002441406</ele>
        <time>2013-05-13T17:36:53.000Z</time>
      </trkpt>
      <trkpt lat="43.80386" lon="7.2517">
        <ele>724.20001220703</ele>
        <time>2013-05-13T17:36:54.000Z</time>
      </trkpt>
      <trkpt lat="43.8039" lon="7.2517">
        <ele>724.40002441406</ele>
        <time>2013-05-13T17:36:56.000Z</time>
      </trkpt>
      <trkpt lat="43.80392" lon="7.25169">
        <ele>725</ele>
        <time>2013-05-13T17:36:57.000Z</time>
      </trkpt>
      <trkpt lat="43.80393" lon="7.25169">
        <ele>725.40002441406</ele>
        <time>2013-05-13T17:36:58.000Z</time>
      </trkpt>
      <trkpt lat="43.80396" lon="7.25168">
        <ele>725.59997558594</ele>
        <time>2013-05-13T17:36:59.000Z</time>
      </trkpt>
      <trkpt lat="43.80398" lon="7.25168">
        <ele>726.20001220703</ele>
        <time>2013-05-13T17:37:00.000Z</time>
      </trkpt>
      <trkpt lat="43.80406" lon="7.25166">
        <ele>726.20001220703</ele>
        <time>2013-05-13T17:37:04.000Z</time>
      </trkpt>
      <trkpt lat="43.80411" lon="7.25163">
        <ele>726.59997558594</ele>
        <time>2013-05-13T17:37:07.000Z</time>
      </trkpt>
      <trkpt lat="43.80413" lon="7.25162">
        <ele>727.20001220703</ele>
        <time>2013-05-13T17:37:08.000Z</time>
      </trkpt>
      <trkpt lat="43.80415" lon="7.25162">
        <ele>727.40002441406</ele>
        <time>2013-05-13T17:37:09.000Z</time>
      </trkpt>
      <trkpt lat="43.80417" lon="7.25161">
        <ele>728.20001220703</ele>
        <time>2013-05-13T17:37:10.000Z</time>
      </trkpt>
      <trkpt lat="43.8042" lon="7.2516">
        <ele>728.40002441406</ele>
        <time>2013-05-13T17:37:11.000Z</time>
      </trkpt>
      <trkpt lat="43.8043" lon="7.25158">
        <ele>728.40002441406</ele>
        <time>2013-05-13T17:37:16.000Z</time>
      </trkpt>
      <trkpt lat="43.80432" lon="7.25157">
        <ele>729</ele>
        <time>2013-05-13T17:37:17.000Z</time>
      </trkpt>
      <trkpt lat="43.80435" lon="7.25157">
        <ele>729.59997558594</ele>
        <time>2013-05-13T17:37:18.000Z</time>
      </trkpt>
      <trkpt lat="43.80437" lon="7.25156">
        <ele>730.40002441406</ele>
        <time>2013-05-13T17:37:19.000Z</time>
      </trkpt>
      <trkpt lat="43.80439" lon="7.25156">
        <ele>730.59997558594</ele>
        <time>2013-05-13T17:37:20.000Z</time>
      </trkpt>
      <trkpt lat="43.80447" lon="7.25153">
        <ele>730.59997558594</ele>
        <time>2013-05-13T17:37:24.000Z</time>
      </trkpt>
      <trkpt lat="43.80459" lon="7.25148">
        <ele>730.59997558594</ele>
        <time>2013-05-13T17:37:29.000Z</time>
      </trkpt>
      <trkpt lat="43.8048" lon="7.25141">
        <ele>730.59997558594</ele>
        <time>2013-05-13T17:37:35.000Z</time>
      </trkpt>
      <trkpt lat="43.80488" lon="7.25139">
        <ele>730.59997558594</ele>
        <time>2013-05-13T17:37:37.000Z</time>
      </trkpt>
      <trkpt lat="43.80499" lon="7.25136">
        <ele>730.59997558594</ele>
        <time>2013-05-13T17:37:40.000Z</time>
      </trkpt>
      <trkpt lat="43.80516" lon="7.25133">
        <ele>730.59997558594</ele>
        <time>2013-05-13T17:37:45.000Z</time>
      </trkpt>
      <trkpt lat="43.80529" lon="7.25127">
        <ele>730.59997558594</ele>
        <time>2013-05-13T17:37:49.000Z</time>
      </trkpt>
      <trkpt lat="43.80546" lon="7.25126">
        <ele>730.59997558594</ele>
        <time>2013-05-13T17:37:55.000Z</time>
      </trkpt>
      <trkpt lat="43.8056" lon="7.25125">
        <ele>730.59997558594</ele>
        <time>2013-05-13T17:38:01.000Z</time>
      </trkpt>
      <trkpt lat="43.80565" lon="7.25125">
        <ele>731.20001220703</ele>
        <time>2013-05-13T17:38:03.000Z</time>
      </trkpt>
      <trkpt lat="43.80567" lon="7.25125">
        <ele>731.40002441406</ele>
        <time>2013-05-13T17:38:04.000Z</time>
      </trkpt>
      <trkpt lat="43.8057" lon="7.25125">
        <ele>732</ele>
        <time>2013-05-13T17:38:05.000Z</time>
      </trkpt>
      <trkpt lat="43.80572" lon="7.25125">
        <ele>732.40002441406</ele>
        <time>2013-05-13T17:38:06.000Z</time>
      </trkpt>
      <trkpt lat="43.80574" lon="7.25125">
        <ele>732.59997558594</ele>
        <time>2013-05-13T17:38:07.000Z</time>
      </trkpt>
      <trkpt lat="43.80586" lon="7.25124">
        <ele>733.20001220703</ele>
        <time>2013-05-13T17:38:12.000Z</time>
      </trkpt>
      <trkpt lat="43.80589" lon="7.25124">
        <ele>733.40002441406</ele>
        <time>2013-05-13T17:38:13.000Z</time>
      </trkpt>
      <trkpt lat="43.80591" lon="7.25124">
        <ele>734</ele>
        <time>2013-05-13T17:38:14.000Z</time>
      </trkpt>
      <trkpt lat="43.80594" lon="7.25124">
        <ele>734.40002441406</ele>
        <time>2013-05-13T17:38:15.000Z</time>
      </trkpt>
      <trkpt lat="43.80597" lon="7.25123">
        <ele>734.59997558594</ele>
        <time>2013-05-13T17:38:16.000Z</time>
      </trkpt>
      <trkpt lat="43.80603" lon="7.25122">
        <ele>734.59997558594</ele>
        <time>2013-05-13T17:38:18.000Z</time>
      </trkpt>
      <trkpt lat="43.80623" lon="7.25118">
        <ele>734.59997558594</ele>
        <time>2013-05-13T17:38:24.000Z</time>
      </trkpt>
      <trkpt lat="43.80639" lon="7.2511">
        <ele>734.59997558594</ele>
        <time>2013-05-13T17:38:30.000Z</time>
      </trkpt>
      <trkpt lat="43.80658" lon="7.25104">
        <ele>734.59997558594</ele>
        <time>2013-05-13T17:38:35.000Z</time>
      </trkpt>
      <trkpt lat="43.80667" lon="7.25103">
        <ele>734.59997558594</ele>
        <time>2013-05-13T17:38:37.000Z</time>
      </trkpt>
      <trkpt lat="43.80681" lon="7.25103">
        <ele>734.59997558594</ele>
        <time>2013-05-13T17:38:40.000Z</time>
      </trkpt>
      <trkpt lat="43.8069" lon="7.25102">
        <ele>734.59997558594</ele>
        <time>2013-05-13T17:38:43.000Z</time>
      </trkpt>
      <trkpt lat="43.80694" lon="7.251">
        <ele>734.59997558594</ele>
        <time>2013-05-13T17:38:45.000Z</time>
      </trkpt>
      <trkpt lat="43.80698" lon="7.25103">
        <ele>734.59997558594</ele>
        <time>2013-05-13T17:38:47.000Z</time>
      </trkpt>
      <trkpt lat="43.80702" lon="7.25106">
        <ele>734.59997558594</ele>
        <time>2013-05-13T17:38:49.000Z</time>
      </trkpt>
      <trkpt lat="43.80711" lon="7.25108">
        <ele>734.59997558594</ele>
        <time>2013-05-13T17:38:53.000Z</time>
      </trkpt>
      <trkpt lat="43.80715" lon="7.25109">
        <ele>735.20001220703</ele>
        <time>2013-05-13T17:38:55.000Z</time>
      </trkpt>
      <trkpt lat="43.80718" lon="7.25109">
        <ele>735.40002441406</ele>
        <time>2013-05-13T17:38:56.000Z</time>
      </trkpt>
      <trkpt lat="43.8072" lon="7.2511">
        <ele>736.40002441406</ele>
        <time>2013-05-13T17:38:57.000Z</time>
      </trkpt>
      <trkpt lat="43.80723" lon="7.25111">
        <ele>736.59997558594</ele>
        <time>2013-05-13T17:38:58.000Z</time>
      </trkpt>
      <trkpt lat="43.80737" lon="7.25115">
        <ele>737.20001220703</ele>
        <time>2013-05-13T17:39:04.000Z</time>
      </trkpt>
      <trkpt lat="43.8074" lon="7.25116">
        <ele>737.40002441406</ele>
        <time>2013-05-13T17:39:05.000Z</time>
      </trkpt>
      <trkpt lat="43.80743" lon="7.25116">
        <ele>738</ele>
        <time>2013-05-13T17:39:06.000Z</time>
      </trkpt>
      <trkpt lat="43.80745" lon="7.25117">
        <ele>738.40002441406</ele>
        <time>2013-05-13T17:39:07.000Z</time>
      </trkpt>
      <trkpt lat="43.80747" lon="7.25117">
        <ele>739</ele>
        <time>2013-05-13T17:39:08.000Z</time>
      </trkpt>
      <trkpt lat="43.8075" lon="7.25118">
        <ele>739</ele>
        <time>2013-05-13T17:39:09.000Z</time>
      </trkpt>
      <trkpt lat="43.80756" lon="7.25117">
        <ele>739</ele>
        <time>2013-05-13T17:39:12.000Z</time>
      </trkpt>
      <trkpt lat="43.80758" lon="7.25117">
        <ele>739.40002441406</ele>
        <time>2013-05-13T17:39:13.000Z</time>
      </trkpt>
      <trkpt lat="43.8076" lon="7.25117">
        <ele>739.59997558594</ele>
        <time>2013-05-13T17:39:14.000Z</time>
      </trkpt>
      <trkpt lat="43.80762" lon="7.25117">
        <ele>740.20001220703</ele>
        <time>2013-05-13T17:39:15.000Z</time>
      </trkpt>
      <trkpt lat="43.80764" lon="7.25117">
        <ele>740.40002441406</ele>
        <time>2013-05-13T17:39:16.000Z</time>
      </trkpt>
      <trkpt lat="43.80767" lon="7.25116">
        <ele>741</ele>
        <time>2013-05-13T17:39:17.000Z</time>
      </trkpt>
      <trkpt lat="43.80771" lon="7.25113">
        <ele>741</ele>
        <time>2013-05-13T17:39:19.000Z</time>
      </trkpt>
      <trkpt lat="43.80776" lon="7.2511">
        <ele>741.40002441406</ele>
        <time>2013-05-13T17:39:21.000Z</time>
      </trkpt>
      <trkpt lat="43.80778" lon="7.25109">
        <ele>742.40002441406</ele>
        <time>2013-05-13T17:39:22.000Z</time>
      </trkpt>
      <trkpt lat="43.8078" lon="7.25108">
        <ele>742.59997558594</ele>
        <time>2013-05-13T17:39:23.000Z</time>
      </trkpt>
      <trkpt lat="43.80782" lon="7.25106">
        <ele>743.20001220703</ele>
        <time>2013-05-13T17:39:24.000Z</time>
      </trkpt>
      <trkpt lat="43.8079" lon="7.25101">
        <ele>743.20001220703</ele>
        <time>2013-05-13T17:39:27.000Z</time>
      </trkpt>
      <trkpt lat="43.80802" lon="7.25094">
        <ele>743.20001220703</ele>
        <time>2013-05-13T17:39:30.000Z</time>
      </trkpt>
      <trkpt lat="43.8081" lon="7.25086">
        <ele>743.20001220703</ele>
        <time>2013-05-13T17:39:32.000Z</time>
      </trkpt>
      <trkpt lat="43.80823" lon="7.25071">
        <ele>743.20001220703</ele>
        <time>2013-05-13T17:39:36.000Z</time>
      </trkpt>
      <trkpt lat="43.80833" lon="7.2506">
        <ele>742.59997558594</ele>
        <time>2013-05-13T17:39:39.000Z</time>
      </trkpt>
      <trkpt lat="43.80836" lon="7.25056">
        <ele>742.40002441406</ele>
        <time>2013-05-13T17:39:40.000Z</time>
      </trkpt>
      <trkpt lat="43.80838" lon="7.25051">
        <ele>742</ele>
        <time>2013-05-13T17:39:41.000Z</time>
      </trkpt>
      <trkpt lat="43.8084" lon="7.25047">
        <ele>741.40002441406</ele>
        <time>2013-05-13T17:39:42.000Z</time>
      </trkpt>
      <trkpt lat="43.80842" lon="7.25044">
        <ele>741.20001220703</ele>
        <time>2013-05-13T17:39:43.000Z</time>
      </trkpt>
      <trkpt lat="43.80844" lon="7.25044">
        <ele>740.40002441406</ele>
        <time>2013-05-13T17:39:44.000Z</time>
      </trkpt>
      <trkpt lat="43.80846" lon="7.25045">
        <ele>740.20001220703</ele>
        <time>2013-05-13T17:39:45.000Z</time>
      </trkpt>
      <trkpt lat="43.80848" lon="7.25047">
        <ele>739.40002441406</ele>
        <time>2013-05-13T17:39:46.000Z</time>
      </trkpt>
      <trkpt lat="43.80849" lon="7.25048">
        <ele>739.20001220703</ele>
        <time>2013-05-13T17:39:47.000Z</time>
      </trkpt>
      <trkpt lat="43.80851" lon="7.2505">
        <ele>739.20001220703</ele>
        <time>2013-05-13T17:39:48.000Z</time>
      </trkpt>
      <trkpt lat="43.80855" lon="7.25056">
        <ele>738.59997558594</ele>
        <time>2013-05-13T17:39:51.000Z</time>
      </trkpt>
      <trkpt lat="43.80856" lon="7.25058">
        <ele>738.20001220703</ele>
        <time>2013-05-13T17:39:52.000Z</time>
      </trkpt>
      <trkpt lat="43.80856" lon="7.25058">
        <ele>737.59997558594</ele>
        <time>2013-05-13T17:39:53.000Z</time>
      </trkpt>
      <trkpt lat="43.80857" lon="7.25059">
        <ele>737.40002441406</ele>
        <time>2013-05-13T17:39:54.000Z</time>
      </trkpt>
      <trkpt lat="43.80859" lon="7.25061">
        <ele>737</ele>
        <time>2013-05-13T17:39:55.000Z</time>
      </trkpt>
      <trkpt lat="43.80862" lon="7.25064">
        <ele>737</ele>
        <time>2013-05-13T17:39:56.000Z</time>
      </trkpt>
      <trkpt lat="43.80869" lon="7.25066">
        <ele>736.40002441406</ele>
        <time>2013-05-13T17:39:58.000Z</time>
      </trkpt>
      <trkpt lat="43.80873" lon="7.25068">
        <ele>736.20001220703</ele>
        <time>2013-05-13T17:39:59.000Z</time>
      </trkpt>
      <trkpt lat="43.80877" lon="7.25071">
        <ele>735.40002441406</ele>
        <time>2013-05-13T17:40:00.000Z</time>
      </trkpt>
      <trkpt lat="43.80881" lon="7.25072">
        <ele>735.20001220703</ele>
        <time>2013-05-13T17:40:01.000Z</time>
      </trkpt>
      <trkpt lat="43.80884" lon="7.25073">
        <ele>734.59997558594</ele>
        <time>2013-05-13T17:40:02.000Z</time>
      </trkpt>
      <trkpt lat="43.80888" lon="7.25073">
        <ele>734.59997558594</ele>
        <time>2013-05-13T17:40:03.000Z</time>
      </trkpt>
      <trkpt lat="43.80892" lon="7.25073">
        <ele>734.59997558594</ele>
        <time>2013-05-13T17:40:04.000Z</time>
      </trkpt>
      <trkpt lat="43.80906" lon="7.25076">
        <ele>734.59997558594</ele>
        <time>2013-05-13T17:40:08.000Z</time>
      </trkpt>
      <trkpt lat="43.80918" lon="7.25081">
        <ele>734.40002441406</ele>
        <time>2013-05-13T17:40:11.000Z</time>
      </trkpt>
      <trkpt lat="43.80923" lon="7.25082">
        <ele>733.40002441406</ele>
        <time>2013-05-13T17:40:12.000Z</time>
      </trkpt>
      <trkpt lat="43.80927" lon="7.25084">
        <ele>733</ele>
        <time>2013-05-13T17:40:13.000Z</time>
      </trkpt>
      <trkpt lat="43.80932" lon="7.25086">
        <ele>732.40002441406</ele>
        <time>2013-05-13T17:40:14.000Z</time>
      </trkpt>
      <trkpt lat="43.80948" lon="7.25098">
        <ele>732.40002441406</ele>
        <time>2013-05-13T17:40:17.000Z</time>
      </trkpt>
      <trkpt lat="43.80954" lon="7.25103">
        <ele>732.20001220703</ele>
        <time>2013-05-13T17:40:18.000Z</time>
      </trkpt>
      <trkpt lat="43.80959" lon="7.25107">
        <ele>731.40002441406</ele>
        <time>2013-05-13T17:40:19.000Z</time>
      </trkpt>
      <trkpt lat="43.80965" lon="7.25111">
        <ele>731</ele>
        <time>2013-05-13T17:40:20.000Z</time>
      </trkpt>
      <trkpt lat="43.8097" lon="7.25115">
        <ele>730.40002441406</ele>
        <time>2013-05-13T17:40:21.000Z</time>
      </trkpt>
      <trkpt lat="43.80975" lon="7.2512">
        <ele>729.59997558594</ele>
        <time>2013-05-13T17:40:22.000Z</time>
      </trkpt>
      <trkpt lat="43.8098" lon="7.25125">
        <ele>729.20001220703</ele>
        <time>2013-05-13T17:40:23.000Z</time>
      </trkpt>
      <trkpt lat="43.80986" lon="7.25132">
        <ele>728.40002441406</ele>
        <time>2013-05-13T17:40:24.000Z</time>
      </trkpt>
      <trkpt lat="43.80992" lon="7.25139">
        <ele>727.40002441406</ele>
        <time>2013-05-13T17:40:25.000Z</time>
      </trkpt>
      <trkpt lat="43.80997" lon="7.25148">
        <ele>726.40002441406</ele>
        <time>2013-05-13T17:40:26.000Z</time>
      </trkpt>
      <trkpt lat="43.81002" lon="7.25157">
        <ele>725.59997558594</ele>
        <time>2013-05-13T17:40:27.000Z</time>
      </trkpt>
      <trkpt lat="43.81007" lon="7.25164">
        <ele>725</ele>
        <time>2013-05-13T17:40:28.000Z</time>
      </trkpt>
      <trkpt lat="43.81012" lon="7.25171">
        <ele>724.20001220703</ele>
        <time>2013-05-13T17:40:29.000Z</time>
      </trkpt>
      <trkpt lat="43.81017" lon="7.25176">
        <ele>723.40002441406</ele>
        <time>2013-05-13T17:40:30.000Z</time>
      </trkpt>
      <trkpt lat="43.81021" lon="7.25182">
        <ele>722.40002441406</ele>
        <time>2013-05-13T17:40:31.000Z</time>
      </trkpt>
      <trkpt lat="43.81027" lon="7.25187">
        <ele>722</ele>
        <time>2013-05-13T17:40:32.000Z</time>
      </trkpt>
      <trkpt lat="43.81032" lon="7.25193">
        <ele>721.40002441406</ele>
        <time>2013-05-13T17:40:33.000Z</time>
      </trkpt>
      <trkpt lat="43.81036" lon="7.25201">
        <ele>721.20001220703</ele>
        <time>2013-05-13T17:40:34.000Z</time>
      </trkpt>
      <trkpt lat="43.81041" lon="7.25208">
        <ele>720.40002441406</ele>
        <time>2013-05-13T17:40:35.000Z</time>
      </trkpt>
      <trkpt lat="43.81045" lon="7.25214">
        <ele>720.20001220703</ele>
        <time>2013-05-13T17:40:36.000Z</time>
      </trkpt>
      <trkpt lat="43.81048" lon="7.2522">
        <ele>719.59997558594</ele>
        <time>2013-05-13T17:40:37.000Z</time>
      </trkpt>
      <trkpt lat="43.81051" lon="7.25225">
        <ele>719.20001220703</ele>
        <time>2013-05-13T17:40:38.000Z</time>
      </trkpt>
      <trkpt lat="43.81054" lon="7.25229">
        <ele>718.59997558594</ele>
        <time>2013-05-13T17:40:39.000Z</time>
      </trkpt>
      <trkpt lat="43.81057" lon="7.25232">
        <ele>718.40002441406</ele>
        <time>2013-05-13T17:40:40.000Z</time>
      </trkpt>
      <trkpt lat="43.8106" lon="7.25235">
        <ele>717.59997558594</ele>
        <time>2013-05-13T17:40:41.000Z</time>
      </trkpt>
      <trkpt lat="43.81066" lon="7.25241">
        <ele>717.40002441406</ele>
        <time>2013-05-13T17:40:43.000Z</time>
      </trkpt>
      <trkpt lat="43.81068" lon="7.25244">
        <ele>716.59997558594</ele>
        <time>2013-05-13T17:40:44.000Z</time>
      </trkpt>
      <trkpt lat="43.8107" lon="7.25246">
        <ele>716.40002441406</ele>
        <time>2013-05-13T17:40:45.000Z</time>
      </trkpt>
      <trkpt lat="43.81073" lon="7.25248">
        <ele>715.59997558594</ele>
        <time>2013-05-13T17:40:46.000Z</time>
      </trkpt>
      <trkpt lat="43.81074" lon="7.25249">
        <ele>715.20001220703</ele>
        <time>2013-05-13T17:40:47.000Z</time>
      </trkpt>
      <trkpt lat="43.81076" lon="7.2525">
        <ele>714.40002441406</ele>
        <time>2013-05-13T17:40:48.000Z</time>
      </trkpt>
      <trkpt lat="43.81078" lon="7.2525">
        <ele>714</ele>
        <time>2013-05-13T17:40:49.000Z</time>
      </trkpt>
      <trkpt lat="43.8108" lon="7.25251">
        <ele>713.40002441406</ele>
        <time>2013-05-13T17:40:50.000Z</time>
      </trkpt>
      <trkpt lat="43.81081" lon="7.25252">
        <ele>712.59997558594</ele>
        <time>2013-05-13T17:40:51.000Z</time>
      </trkpt>
      <trkpt lat="43.81082" lon="7.25252">
        <ele>712.40002441406</ele>
        <time>2013-05-13T17:40:53.000Z</time>
      </trkpt>
      <trkpt lat="43.81082" lon="7.25252">
        <ele>712</ele>
        <time>2013-05-13T17:40:54.000Z</time>
      </trkpt>
      <trkpt lat="43.81082" lon="7.25252">
        <ele>711.40002441406</ele>
        <time>2013-05-13T17:40:55.000Z</time>
      </trkpt>
      <trkpt lat="43.81082" lon="7.25252">
        <ele>711</ele>
        <time>2013-05-13T17:40:56.000Z</time>
      </trkpt>
      <trkpt lat="43.81082" lon="7.25252">
        <ele>710.40002441406</ele>
        <time>2013-05-13T17:40:57.000Z</time>
      </trkpt>
      <trkpt lat="43.81082" lon="7.25252">
        <ele>710.40002441406</ele>
        <time>2013-05-13T17:41:11.000Z</time>
      </trkpt>
      <trkpt lat="43.81082" lon="7.25252">
        <ele>710.40002441406</ele>
        <time>2013-05-13T17:41:20.000Z</time>
      </trkpt>
      <trkpt lat="43.81086" lon="7.25254">
        <ele>710.40002441406</ele>
        <time>2013-05-13T17:41:32.000Z</time>
      </trkpt>
      <trkpt lat="43.81093" lon="7.25259">
        <ele>710.20001220703</ele>
        <time>2013-05-13T17:41:35.000Z</time>
      </trkpt>
      <trkpt lat="43.81095" lon="7.2526">
        <ele>709.59997558594</ele>
        <time>2013-05-13T17:41:36.000Z</time>
      </trkpt>
      <trkpt lat="43.81098" lon="7.25261">
        <ele>709.40002441406</ele>
        <time>2013-05-13T17:41:37.000Z</time>
      </trkpt>
      <trkpt lat="43.81101" lon="7.25264">
        <ele>708.59997558594</ele>
        <time>2013-05-13T17:41:38.000Z</time>
      </trkpt>
      <trkpt lat="43.81104" lon="7.25268">
        <ele>708.40002441406</ele>
        <time>2013-05-13T17:41:39.000Z</time>
      </trkpt>
      <trkpt lat="43.81108" lon="7.25272">
        <ele>707.59997558594</ele>
        <time>2013-05-13T17:41:40.000Z</time>
      </trkpt>
      <trkpt lat="43.81113" lon="7.25276">
        <ele>707.20001220703</ele>
        <time>2013-05-13T17:41:41.000Z</time>
      </trkpt>
      <trkpt lat="43.81118" lon="7.2528">
        <ele>706.59997558594</ele>
        <time>2013-05-13T17:41:42.000Z</time>
      </trkpt>
      <trkpt lat="43.81122" lon="7.25284">
        <ele>706</ele>
        <time>2013-05-13T17:41:43.000Z</time>
      </trkpt>
      <trkpt lat="43.81126" lon="7.25288">
        <ele>705.40002441406</ele>
        <time>2013-05-13T17:41:44.000Z</time>
      </trkpt>
      <trkpt lat="43.81131" lon="7.2529">
        <ele>704.59997558594</ele>
        <time>2013-05-13T17:41:45.000Z</time>
      </trkpt>
      <trkpt lat="43.81136" lon="7.25291">
        <ele>704</ele>
        <time>2013-05-13T17:41:46.000Z</time>
      </trkpt>
      <trkpt lat="43.8114" lon="7.25293">
        <ele>703.20001220703</ele>
        <time>2013-05-13T17:41:47.000Z</time>
      </trkpt>
      <trkpt lat="43.81144" lon="7.25295">
        <ele>702.40002441406</ele>
        <time>2013-05-13T17:41:48.000Z</time>
      </trkpt>
      <trkpt lat="43.81148" lon="7.25299">
        <ele>701.40002441406</ele>
        <time>2013-05-13T17:41:49.000Z</time>
      </trkpt>
      <trkpt lat="43.81153" lon="7.25303">
        <ele>700</ele>
        <time>2013-05-13T17:41:50.000Z</time>
      </trkpt>
      <trkpt lat="43.81159" lon="7.25308">
        <ele>699.20001220703</ele>
        <time>2013-05-13T17:41:51.000Z</time>
      </trkpt>
      <trkpt lat="43.81166" lon="7.25313">
        <ele>698.40002441406</ele>
        <time>2013-05-13T17:41:52.000Z</time>
      </trkpt>
      <trkpt lat="43.81172" lon="7.25318">
        <ele>698</ele>
        <time>2013-05-13T17:41:53.000Z</time>
      </trkpt>
      <trkpt lat="43.81179" lon="7.25323">
        <ele>697.40002441406</ele>
        <time>2013-05-13T17:41:54.000Z</time>
      </trkpt>
      <trkpt lat="43.81186" lon="7.25327">
        <ele>696.40002441406</ele>
        <time>2013-05-13T17:41:55.000Z</time>
      </trkpt>
      <trkpt lat="43.81192" lon="7.2533">
        <ele>696.20001220703</ele>
        <time>2013-05-13T17:41:56.000Z</time>
      </trkpt>
      <trkpt lat="43.81197" lon="7.25331">
        <ele>695.40002441406</ele>
        <time>2013-05-13T17:41:57.000Z</time>
      </trkpt>
      <trkpt lat="43.81203" lon="7.25332">
        <ele>695</ele>
        <time>2013-05-13T17:41:58.000Z</time>
      </trkpt>
      <trkpt lat="43.81208" lon="7.25332">
        <ele>694.40002441406</ele>
        <time>2013-05-13T17:41:59.000Z</time>
      </trkpt>
      <trkpt lat="43.81213" lon="7.25333">
        <ele>693.59997558594</ele>
        <time>2013-05-13T17:42:00.000Z</time>
      </trkpt>
      <trkpt lat="43.81216" lon="7.25334">
        <ele>693.20001220703</ele>
        <time>2013-05-13T17:42:01.000Z</time>
      </trkpt>
      <trkpt lat="43.81219" lon="7.25335">
        <ele>692.40002441406</ele>
        <time>2013-05-13T17:42:02.000Z</time>
      </trkpt>
      <trkpt lat="43.81222" lon="7.25337">
        <ele>692</ele>
        <time>2013-05-13T17:42:03.000Z</time>
      </trkpt>
      <trkpt lat="43.81225" lon="7.25339">
        <ele>691.40002441406</ele>
        <time>2013-05-13T17:42:04.000Z</time>
      </trkpt>
      <trkpt lat="43.81226" lon="7.2534">
        <ele>691</ele>
        <time>2013-05-13T17:42:05.000Z</time>
      </trkpt>
      <trkpt lat="43.81229" lon="7.2534">
        <ele>690.40002441406</ele>
        <time>2013-05-13T17:42:06.000Z</time>
      </trkpt>
      <trkpt lat="43.81231" lon="7.25342">
        <ele>690.20001220703</ele>
        <time>2013-05-13T17:42:07.000Z</time>
      </trkpt>
      <trkpt lat="43.81233" lon="7.25343">
        <ele>689.59997558594</ele>
        <time>2013-05-13T17:42:08.000Z</time>
      </trkpt>
      <trkpt lat="43.81236" lon="7.25345">
        <ele>689.40002441406</ele>
        <time>2013-05-13T17:42:09.000Z</time>
      </trkpt>
      <trkpt lat="43.81238" lon="7.25345">
        <ele>688.59997558594</ele>
        <time>2013-05-13T17:42:10.000Z</time>
      </trkpt>
      <trkpt lat="43.81241" lon="7.25344">
        <ele>688.40002441406</ele>
        <time>2013-05-13T17:42:11.000Z</time>
      </trkpt>
      <trkpt lat="43.81243" lon="7.25345">
        <ele>687.59997558594</ele>
        <time>2013-05-13T17:42:12.000Z</time>
      </trkpt>
      <trkpt lat="43.81246" lon="7.25345">
        <ele>687.40002441406</ele>
        <time>2013-05-13T17:42:13.000Z</time>
      </trkpt>
      <trkpt lat="43.81248" lon="7.25344">
        <ele>686.59997558594</ele>
        <time>2013-05-13T17:42:14.000Z</time>
      </trkpt>
      <trkpt lat="43.8125" lon="7.25343">
        <ele>685.40002441406</ele>
        <time>2013-05-13T17:42:15.000Z</time>
      </trkpt>
      <trkpt lat="43.81251" lon="7.25343">
        <ele>685</ele>
        <time>2013-05-13T17:42:16.000Z</time>
      </trkpt>
      <trkpt lat="43.81253" lon="7.25344">
        <ele>684.40002441406</ele>
        <time>2013-05-13T17:42:17.000Z</time>
      </trkpt>
      <trkpt lat="43.81255" lon="7.25346">
        <ele>683.59997558594</ele>
        <time>2013-05-13T17:42:18.000Z</time>
      </trkpt>
      <trkpt lat="43.81258" lon="7.25348">
        <ele>683.40002441406</ele>
        <time>2013-05-13T17:42:19.000Z</time>
      </trkpt>
      <trkpt lat="43.8126" lon="7.2535">
        <ele>682.59997558594</ele>
        <time>2013-05-13T17:42:20.000Z</time>
      </trkpt>
      <trkpt lat="43.81263" lon="7.25352">
        <ele>682.20001220703</ele>
        <time>2013-05-13T17:42:21.000Z</time>
      </trkpt>
      <trkpt lat="43.81265" lon="7.25354">
        <ele>681.59997558594</ele>
        <time>2013-05-13T17:42:22.000Z</time>
      </trkpt>
      <trkpt lat="43.81268" lon="7.25356">
        <ele>681.20001220703</ele>
        <time>2013-05-13T17:42:23.000Z</time>
      </trkpt>
      <trkpt lat="43.81271" lon="7.25358">
        <ele>680.40002441406</ele>
        <time>2013-05-13T17:42:24.000Z</time>
      </trkpt>
      <trkpt lat="43.81274" lon="7.25359">
        <ele>679.59997558594</ele>
        <time>2013-05-13T17:42:25.000Z</time>
      </trkpt>
      <trkpt lat="43.81277" lon="7.2536">
        <ele>679.20001220703</ele>
        <time>2013-05-13T17:42:26.000Z</time>
      </trkpt>
      <trkpt lat="43.8128" lon="7.2536">
        <ele>678.40002441406</ele>
        <time>2013-05-13T17:42:27.000Z</time>
      </trkpt>
      <trkpt lat="43.81284" lon="7.25361">
        <ele>677.59997558594</ele>
        <time>2013-05-13T17:42:28.000Z</time>
      </trkpt>
      <trkpt lat="43.8129" lon="7.25364">
        <ele>677.20001220703</ele>
        <time>2013-05-13T17:42:29.000Z</time>
      </trkpt>
      <trkpt lat="43.81295" lon="7.25366">
        <ele>676.40002441406</ele>
        <time>2013-05-13T17:42:30.000Z</time>
      </trkpt>
      <trkpt lat="43.813" lon="7.25369">
        <ele>675.40002441406</ele>
        <time>2013-05-13T17:42:31.000Z</time>
      </trkpt>
      <trkpt lat="43.81305" lon="7.25371">
        <ele>674.59997558594</ele>
        <time>2013-05-13T17:42:32.000Z</time>
      </trkpt>
      <trkpt lat="43.8131" lon="7.25372">
        <ele>674.20001220703</ele>
        <time>2013-05-13T17:42:33.000Z</time>
      </trkpt>
      <trkpt lat="43.81316" lon="7.25373">
        <ele>673.40002441406</ele>
        <time>2013-05-13T17:42:34.000Z</time>
      </trkpt>
      <trkpt lat="43.81322" lon="7.25373">
        <ele>672.40002441406</ele>
        <time>2013-05-13T17:42:35.000Z</time>
      </trkpt>
      <trkpt lat="43.81329" lon="7.25375">
        <ele>671.59997558594</ele>
        <time>2013-05-13T17:42:36.000Z</time>
      </trkpt>
      <trkpt lat="43.81335" lon="7.25377">
        <ele>671</ele>
        <time>2013-05-13T17:42:37.000Z</time>
      </trkpt>
      <trkpt lat="43.81341" lon="7.2538">
        <ele>670.40002441406</ele>
        <time>2013-05-13T17:42:38.000Z</time>
      </trkpt>
      <trkpt lat="43.81347" lon="7.25382">
        <ele>670.20001220703</ele>
        <time>2013-05-13T17:42:39.000Z</time>
      </trkpt>
      <trkpt lat="43.81351" lon="7.25384">
        <ele>669.20001220703</ele>
        <time>2013-05-13T17:42:40.000Z</time>
      </trkpt>
      <trkpt lat="43.81355" lon="7.25385">
        <ele>668.59997558594</ele>
        <time>2013-05-13T17:42:41.000Z</time>
      </trkpt>
      <trkpt lat="43.81359" lon="7.25386">
        <ele>668.59997558594</ele>
        <time>2013-05-13T17:42:42.000Z</time>
      </trkpt>
      <trkpt lat="43.81373" lon="7.25389">
        <ele>668.59997558594</ele>
        <time>2013-05-13T17:42:47.000Z</time>
      </trkpt>
      <trkpt lat="43.81392" lon="7.25392">
        <ele>669.20001220703</ele>
        <time>2013-05-13T17:42:53.000Z</time>
      </trkpt>
      <trkpt lat="43.81395" lon="7.25393">
        <ele>669.40002441406</ele>
        <time>2013-05-13T17:42:54.000Z</time>
      </trkpt>
      <trkpt lat="43.81399" lon="7.25393">
        <ele>670</ele>
        <time>2013-05-13T17:42:55.000Z</time>
      </trkpt>
      <trkpt lat="43.81402" lon="7.25393">
        <ele>670.40002441406</ele>
        <time>2013-05-13T17:42:56.000Z</time>
      </trkpt>
      <trkpt lat="43.81405" lon="7.25394">
        <ele>670.59997558594</ele>
        <time>2013-05-13T17:42:57.000Z</time>
      </trkpt>
      <trkpt lat="43.81414" lon="7.25394">
        <ele>671.20001220703</ele>
        <time>2013-05-13T17:43:00.000Z</time>
      </trkpt>
      <trkpt lat="43.81416" lon="7.25394">
        <ele>671.40002441406</ele>
        <time>2013-05-13T17:43:01.000Z</time>
      </trkpt>
      <trkpt lat="43.81419" lon="7.25395">
        <ele>672.20001220703</ele>
        <time>2013-05-13T17:43:02.000Z</time>
      </trkpt>
      <trkpt lat="43.81422" lon="7.25396">
        <ele>672.40002441406</ele>
        <time>2013-05-13T17:43:03.000Z</time>
      </trkpt>
      <trkpt lat="43.81424" lon="7.25396">
        <ele>673</ele>
        <time>2013-05-13T17:43:04.000Z</time>
      </trkpt>
      <trkpt lat="43.81428" lon="7.25395">
        <ele>673.40002441406</ele>
        <time>2013-05-13T17:43:06.000Z</time>
      </trkpt>
      <trkpt lat="43.8143" lon="7.25395">
        <ele>673.59997558594</ele>
        <time>2013-05-13T17:43:07.000Z</time>
      </trkpt>
      <trkpt lat="43.81432" lon="7.25395">
        <ele>674.20001220703</ele>
        <time>2013-05-13T17:43:08.000Z</time>
      </trkpt>
      <trkpt lat="43.81434" lon="7.25395">
        <ele>674.40002441406</ele>
        <time>2013-05-13T17:43:09.000Z</time>
      </trkpt>
      <trkpt lat="43.81435" lon="7.25394">
        <ele>675</ele>
        <time>2013-05-13T17:43:10.000Z</time>
      </trkpt>
      <trkpt lat="43.81439" lon="7.25395">
        <ele>675</ele>
        <time>2013-05-13T17:43:13.000Z</time>
      </trkpt>
      <trkpt lat="43.81443" lon="7.25394">
        <ele>675</ele>
        <time>2013-05-13T17:43:19.000Z</time>
      </trkpt>
      <trkpt lat="43.81442" lon="7.25395">
        <ele>675</ele>
        <time>2013-05-13T17:43:25.000Z</time>
      </trkpt>
      <trkpt lat="43.81443" lon="7.25394">
        <ele>675</ele>
        <time>2013-05-13T17:43:33.000Z</time>
      </trkpt>
      <trkpt lat="43.81442" lon="7.25395">
        <ele>675</ele>
        <time>2013-05-13T17:43:39.000Z</time>
      </trkpt>
      <trkpt lat="43.81442" lon="7.25395">
        <ele>675</ele>
        <time>2013-05-13T17:43:47.000Z</time>
      </trkpt>
      <trkpt lat="43.81443" lon="7.25395">
        <ele>675</ele>
        <time>2013-05-13T17:43:55.000Z</time>
      </trkpt>
      <trkpt lat="43.81443" lon="7.25395">
        <ele>675</ele>
        <time>2013-05-13T17:44:02.000Z</time>
      </trkpt>
      <trkpt lat="43.81443" lon="7.25395">
        <ele>675</ele>
        <time>2013-05-13T17:44:08.000Z</time>
      </trkpt>
      <trkpt lat="43.81443" lon="7.25395">
        <ele>675</ele>
        <time>2013-05-13T17:44:18.000Z</time>
      </trkpt>
      <trkpt lat="43.81443" lon="7.25395">
        <ele>675</ele>
        <time>2013-05-13T17:44:29.000Z</time>
      </trkpt>
      <trkpt lat="43.81443" lon="7.25395">
        <ele>675</ele>
        <time>2013-05-13T17:44:41.000Z</time>
      </trkpt>
      <trkpt lat="43.81443" lon="7.25395">
        <ele>675</ele>
        <time>2013-05-13T17:44:50.000Z</time>
      </trkpt>
      <trkpt lat="43.81443" lon="7.25395">
        <ele>675</ele>
        <time>2013-05-13T17:45:04.000Z</time>
      </trkpt>
      <trkpt lat="43.81443" lon="7.25395">
        <ele>675</ele>
        <time>2013-05-13T17:45:11.000Z</time>
      </trkpt>
      <trkpt lat="43.81442" lon="7.25395">
        <ele>675</ele>
        <time>2013-05-13T17:45:21.000Z</time>
      </trkpt>
      <trkpt lat="43.81442" lon="7.25395">
        <ele>675</ele>
        <time>2013-05-13T17:45:34.000Z</time>
      </trkpt>
      <trkpt lat="43.81441" lon="7.25395">
        <ele>675</ele>
        <time>2013-05-13T17:45:42.000Z</time>
      </trkpt>
      <trkpt lat="43.81439" lon="7.25395">
        <ele>675</ele>
        <time>2013-05-13T17:45:47.000Z</time>
      </trkpt>
      <trkpt lat="43.81439" lon="7.25396">
        <ele>675</ele>
        <time>2013-05-13T17:45:51.000Z</time>
      </trkpt>
      <trkpt lat="43.81439" lon="7.25396">
        <ele>675</ele>
        <time>2013-05-13T17:46:00.000Z</time>
      </trkpt>
      <trkpt lat="43.81438" lon="7.25408">
        <ele>675</ele>
        <time>2013-05-13T17:46:05.000Z</time>
      </trkpt>
      <trkpt lat="43.81436" lon="7.25427">
        <ele>674.40002441406</ele>
        <time>2013-05-13T17:46:08.000Z</time>
      </trkpt>
      <trkpt lat="43.81435" lon="7.25434">
        <ele>674</ele>
        <time>2013-05-13T17:46:09.000Z</time>
      </trkpt>
      <trkpt lat="43.81435" lon="7.2544">
        <ele>673.20001220703</ele>
        <time>2013-05-13T17:46:10.000Z</time>
      </trkpt>
      <trkpt lat="43.81435" lon="7.25446">
        <ele>672.40002441406</ele>
        <time>2013-05-13T17:46:11.000Z</time>
      </trkpt>
      <trkpt lat="43.81435" lon="7.25453">
        <ele>671.40002441406</ele>
        <time>2013-05-13T17:46:12.000Z</time>
      </trkpt>
      <trkpt lat="43.81435" lon="7.2546">
        <ele>670.40002441406</ele>
        <time>2013-05-13T17:46:13.000Z</time>
      </trkpt>
      <trkpt lat="43.81434" lon="7.25467">
        <ele>669.20001220703</ele>
        <time>2013-05-13T17:46:14.000Z</time>
      </trkpt>
      <trkpt lat="43.81433" lon="7.25473">
        <ele>668.20001220703</ele>
        <time>2013-05-13T17:46:15.000Z</time>
      </trkpt>
      <trkpt lat="43.81432" lon="7.2548">
        <ele>667</ele>
        <time>2013-05-13T17:46:16.000Z</time>
      </trkpt>
      <trkpt lat="43.81432" lon="7.25487">
        <ele>665.59997558594</ele>
        <time>2013-05-13T17:46:17.000Z</time>
      </trkpt>
      <trkpt lat="43.81431" lon="7.25493">
        <ele>664.40002441406</ele>
        <time>2013-05-13T17:46:18.000Z</time>
      </trkpt>
      <trkpt lat="43.81431" lon="7.255">
        <ele>663.40002441406</ele>
        <time>2013-05-13T17:46:19.000Z</time>
      </trkpt>
      <trkpt lat="43.81432" lon="7.25505">
        <ele>662</ele>
        <time>2013-05-13T17:46:20.000Z</time>
      </trkpt>
      <trkpt lat="43.81432" lon="7.25512">
        <ele>660.59997558594</ele>
        <time>2013-05-13T17:46:21.000Z</time>
      </trkpt>
      <trkpt lat="43.81431" lon="7.25518">
        <ele>658</ele>
        <time>2013-05-13T17:46:22.000Z</time>
      </trkpt>
      <trkpt lat="43.81431" lon="7.25526">
        <ele>656.40002441406</ele>
        <time>2013-05-13T17:46:23.000Z</time>
      </trkpt>
      <trkpt lat="43.8143" lon="7.25535">
        <ele>655.40002441406</ele>
        <time>2013-05-13T17:46:24.000Z</time>
      </trkpt>
      <trkpt lat="43.8143" lon="7.25543">
        <ele>653.59997558594</ele>
        <time>2013-05-13T17:46:25.000Z</time>
      </trkpt>
      <trkpt lat="43.81429" lon="7.25551">
        <ele>652.40002441406</ele>
        <time>2013-05-13T17:46:26.000Z</time>
      </trkpt>
      <trkpt lat="43.81428" lon="7.25559">
        <ele>650.59997558594</ele>
        <time>2013-05-13T17:46:27.000Z</time>
      </trkpt>
      <trkpt lat="43.81427" lon="7.25567">
        <ele>649.20001220703</ele>
        <time>2013-05-13T17:46:28.000Z</time>
      </trkpt>
      <trkpt lat="43.81425" lon="7.25576">
        <ele>647.40002441406</ele>
        <time>2013-05-13T17:46:29.000Z</time>
      </trkpt>
      <trkpt lat="43.81424" lon="7.25584">
        <ele>645.59997558594</ele>
        <time>2013-05-13T17:46:30.000Z</time>
      </trkpt>
      <trkpt lat="43.81424" lon="7.25591">
        <ele>644</ele>
        <time>2013-05-13T17:46:31.000Z</time>
      </trkpt>
      <trkpt lat="43.81423" lon="7.25598">
        <ele>642.40002441406</ele>
        <time>2013-05-13T17:46:32.000Z</time>
      </trkpt>
      <trkpt lat="43.81423" lon="7.25605">
        <ele>640.59997558594</ele>
        <time>2013-05-13T17:46:33.000Z</time>
      </trkpt>
      <trkpt lat="43.81423" lon="7.2561">
        <ele>639.40002441406</ele>
        <time>2013-05-13T17:46:34.000Z</time>
      </trkpt>
      <trkpt lat="43.81422" lon="7.25615">
        <ele>637.59997558594</ele>
        <time>2013-05-13T17:46:35.000Z</time>
      </trkpt>
      <trkpt lat="43.81422" lon="7.25621">
        <ele>636.40002441406</ele>
        <time>2013-05-13T17:46:36.000Z</time>
      </trkpt>
      <trkpt lat="43.81421" lon="7.25626">
        <ele>635</ele>
        <time>2013-05-13T17:46:37.000Z</time>
      </trkpt>
      <trkpt lat="43.81421" lon="7.25631">
        <ele>633.59997558594</ele>
        <time>2013-05-13T17:46:38.000Z</time>
      </trkpt>
      <trkpt lat="43.8142" lon="7.25636">
        <ele>632.40002441406</ele>
        <time>2013-05-13T17:46:39.000Z</time>
      </trkpt>
      <trkpt lat="43.81419" lon="7.25642">
        <ele>631.40002441406</ele>
        <time>2013-05-13T17:46:40.000Z</time>
      </trkpt>
      <trkpt lat="43.81418" lon="7.25651">
        <ele>630.40002441406</ele>
        <time>2013-05-13T17:46:41.000Z</time>
      </trkpt>
      <trkpt lat="43.81418" lon="7.25661">
        <ele>629.40002441406</ele>
        <time>2013-05-13T17:46:42.000Z</time>
      </trkpt>
      <trkpt lat="43.81418" lon="7.25671">
        <ele>628.40002441406</ele>
        <time>2013-05-13T17:46:43.000Z</time>
      </trkpt>
      <trkpt lat="43.81418" lon="7.25681">
        <ele>627.40002441406</ele>
        <time>2013-05-13T17:46:45.000Z</time>
      </trkpt>
      <trkpt lat="43.81417" lon="7.25691">
        <ele>626.40002441406</ele>
        <time>2013-05-13T17:46:46.000Z</time>
      </trkpt>
      <trkpt lat="43.81417" lon="7.25699">
        <ele>625.40002441406</ele>
        <time>2013-05-13T17:46:47.000Z</time>
      </trkpt>
      <trkpt lat="43.81417" lon="7.25707">
        <ele>623.20001220703</ele>
        <time>2013-05-13T17:46:48.000Z</time>
      </trkpt>
      <trkpt lat="43.81417" lon="7.25715">
        <ele>622.20001220703</ele>
        <time>2013-05-13T17:46:49.000Z</time>
      </trkpt>
      <trkpt lat="43.81418" lon="7.25722">
        <ele>621</ele>
        <time>2013-05-13T17:46:50.000Z</time>
      </trkpt>
      <trkpt lat="43.81418" lon="7.25729">
        <ele>619.59997558594</ele>
        <time>2013-05-13T17:46:51.000Z</time>
      </trkpt>
      <trkpt lat="43.81419" lon="7.25734">
        <ele>618.40002441406</ele>
        <time>2013-05-13T17:46:52.000Z</time>
      </trkpt>
      <trkpt lat="43.8142" lon="7.25743">
        <ele>617.40002441406</ele>
        <time>2013-05-13T17:46:53.000Z</time>
      </trkpt>
      <trkpt lat="43.81421" lon="7.2575">
        <ele>616.40002441406</ele>
        <time>2013-05-13T17:46:54.000Z</time>
      </trkpt>
      <trkpt lat="43.81421" lon="7.25754">
        <ele>615.59997558594</ele>
        <time>2013-05-13T17:46:55.000Z</time>
      </trkpt>
      <trkpt lat="43.81421" lon="7.25756">
        <ele>614.59997558594</ele>
        <time>2013-05-13T17:46:56.000Z</time>
      </trkpt>
      <trkpt lat="43.8142" lon="7.25756">
        <ele>614</ele>
        <time>2013-05-13T17:46:57.000Z</time>
      </trkpt>
      <trkpt lat="43.8142" lon="7.25756">
        <ele>613.20001220703</ele>
        <time>2013-05-13T17:46:58.000Z</time>
      </trkpt>
      <trkpt lat="43.8142" lon="7.25756">
        <ele>613.20001220703</ele>
        <time>2013-05-13T17:47:00.000Z</time>
      </trkpt>
      <trkpt lat="43.8142" lon="7.25755">
        <ele>613.20001220703</ele>
        <time>2013-05-13T17:47:08.000Z</time>
      </trkpt>
      <trkpt lat="43.8142" lon="7.25755">
        <ele>613.20001220703</ele>
        <time>2013-05-13T17:47:15.000Z</time>
      </trkpt>
      <trkpt lat="43.8142" lon="7.25755">
        <ele>613.20001220703</ele>
        <time>2013-05-13T17:47:28.000Z</time>
      </trkpt>
      <trkpt lat="43.8142" lon="7.25755">
        <ele>613.20001220703</ele>
        <time>2013-05-13T17:47:37.000Z</time>
      </trkpt>
      <trkpt lat="43.8142" lon="7.25755">
        <ele>613.20001220703</ele>
        <time>2013-05-13T17:47:47.000Z</time>
      </trkpt>
      <trkpt lat="43.8142" lon="7.25755">
        <ele>613.20001220703</ele>
        <time>2013-05-13T17:47:52.000Z</time>
      </trkpt>
      <trkpt lat="43.8142" lon="7.25755">
        <ele>613.20001220703</ele>
        <time>2013-05-13T17:47:59.000Z</time>
      </trkpt>
      <trkpt lat="43.8142" lon="7.25755">
        <ele>613.20001220703</ele>
        <time>2013-05-13T17:48:09.000Z</time>
      </trkpt>
      <trkpt lat="43.8142" lon="7.25754">
        <ele>613.20001220703</ele>
        <time>2013-05-13T17:48:19.000Z</time>
      </trkpt>
      <trkpt lat="43.8142" lon="7.25752">
        <ele>613.20001220703</ele>
        <time>2013-05-13T17:48:23.000Z</time>
      </trkpt>
      <trkpt lat="43.8142" lon="7.25752">
        <ele>612.40002441406</ele>
        <time>2013-05-13T17:48:27.000Z</time>
      </trkpt>
      <trkpt lat="43.8142" lon="7.25753">
        <ele>611.59997558594</ele>
        <time>2013-05-13T17:48:28.000Z</time>
      </trkpt>
      <trkpt lat="43.8142" lon="7.25753">
        <ele>611.40002441406</ele>
        <time>2013-05-13T17:48:29.000Z</time>
      </trkpt>
      <trkpt lat="43.8142" lon="7.25753">
        <ele>611</ele>
        <time>2013-05-13T17:48:30.000Z</time>
      </trkpt>
      <trkpt lat="43.8142" lon="7.25752">
        <ele>611</ele>
        <time>2013-05-13T17:48:33.000Z</time>
      </trkpt>
      <trkpt lat="43.81418" lon="7.2575">
        <ele>611</ele>
        <time>2013-05-13T17:48:35.000Z</time>
      </trkpt>
      <trkpt lat="43.81405" lon="7.25744">
        <ele>611</ele>
        <time>2013-05-13T17:48:40.000Z</time>
      </trkpt>
      <trkpt lat="43.8139" lon="7.25731">
        <ele>611</ele>
        <time>2013-05-13T17:48:45.000Z</time>
      </trkpt>
      <trkpt lat="43.81377" lon="7.25706">
        <ele>611</ele>
        <time>2013-05-13T17:48:51.000Z</time>
      </trkpt>
      <trkpt lat="43.81369" lon="7.25675">
        <ele>611</ele>
        <time>2013-05-13T17:48:57.000Z</time>
      </trkpt>
      <trkpt lat="43.81362" lon="7.25646">
        <ele>610.40002441406</ele>
        <time>2013-05-13T17:49:02.000Z</time>
      </trkpt>
      <trkpt lat="43.81361" lon="7.2564">
        <ele>610.20001220703</ele>
        <time>2013-05-13T17:49:03.000Z</time>
      </trkpt>
      <trkpt lat="43.8136" lon="7.25633">
        <ele>609.59997558594</ele>
        <time>2013-05-13T17:49:04.000Z</time>
      </trkpt>
      <trkpt lat="43.81359" lon="7.25627">
        <ele>609.40002441406</ele>
        <time>2013-05-13T17:49:05.000Z</time>
      </trkpt>
      <trkpt lat="43.81358" lon="7.25621">
        <ele>609</ele>
        <time>2013-05-13T17:49:06.000Z</time>
      </trkpt>
      <trkpt lat="43.81355" lon="7.25604">
        <ele>609</ele>
        <time>2013-05-13T17:49:09.000Z</time>
      </trkpt>
      <trkpt lat="43.81351" lon="7.25587">
        <ele>609</ele>
        <time>2013-05-13T17:49:12.000Z</time>
      </trkpt>
      <trkpt lat="43.81344" lon="7.25572">
        <ele>609</ele>
        <time>2013-05-13T17:49:15.000Z</time>
      </trkpt>
      <trkpt lat="43.81338" lon="7.25563">
        <ele>609</ele>
        <time>2013-05-13T17:49:17.000Z</time>
      </trkpt>
      <trkpt lat="43.81329" lon="7.25557">
        <ele>609</ele>
        <time>2013-05-13T17:49:19.000Z</time>
      </trkpt>
      <trkpt lat="43.81318" lon="7.25557">
        <ele>608.40002441406</ele>
        <time>2013-05-13T17:49:21.000Z</time>
      </trkpt>
      <trkpt lat="43.81313" lon="7.25557">
        <ele>608.20001220703</ele>
        <time>2013-05-13T17:49:22.000Z</time>
      </trkpt>
      <trkpt lat="43.81307" lon="7.25556">
        <ele>607.59997558594</ele>
        <time>2013-05-13T17:49:23.000Z</time>
      </trkpt>
      <trkpt lat="43.81301" lon="7.25554">
        <ele>607.40002441406</ele>
        <time>2013-05-13T17:49:24.000Z</time>
      </trkpt>
      <trkpt lat="43.81296" lon="7.25551">
        <ele>607</ele>
        <time>2013-05-13T17:49:25.000Z</time>
      </trkpt>
      <trkpt lat="43.81287" lon="7.25543">
        <ele>607</ele>
        <time>2013-05-13T17:49:27.000Z</time>
      </trkpt>
      <trkpt lat="43.81282" lon="7.25541">
        <ele>607</ele>
        <time>2013-05-13T17:49:28.000Z</time>
      </trkpt>
      <trkpt lat="43.81272" lon="7.25544">
        <ele>607</ele>
        <time>2013-05-13T17:49:30.000Z</time>
      </trkpt>
      <trkpt lat="43.81267" lon="7.25548">
        <ele>606.40002441406</ele>
        <time>2013-05-13T17:49:31.000Z</time>
      </trkpt>
      <trkpt lat="43.81263" lon="7.25552">
        <ele>606.20001220703</ele>
        <time>2013-05-13T17:49:32.000Z</time>
      </trkpt>
      <trkpt lat="43.81259" lon="7.25557">
        <ele>605.59997558594</ele>
        <time>2013-05-13T17:49:33.000Z</time>
      </trkpt>
      <trkpt lat="43.81256" lon="7.25563">
        <ele>605.40002441406</ele>
        <time>2013-05-13T17:49:34.000Z</time>
      </trkpt>
      <trkpt lat="43.81253" lon="7.25568">
        <ele>604.59997558594</ele>
        <time>2013-05-13T17:49:35.000Z</time>
      </trkpt>
      <trkpt lat="43.8125" lon="7.25574">
        <ele>604.59997558594</ele>
        <time>2013-05-13T17:49:36.000Z</time>
      </trkpt>
      <trkpt lat="43.81244" lon="7.25584">
        <ele>604.59997558594</ele>
        <time>2013-05-13T17:49:38.000Z</time>
      </trkpt>
      <trkpt lat="43.81239" lon="7.25593">
        <ele>604.59997558594</ele>
        <time>2013-05-13T17:49:40.000Z</time>
      </trkpt>
      <trkpt lat="43.81229" lon="7.25607">
        <ele>604.59997558594</ele>
        <time>2013-05-13T17:49:43.000Z</time>
      </trkpt>
      <trkpt lat="43.81219" lon="7.25619">
        <ele>604.59997558594</ele>
        <time>2013-05-13T17:49:46.000Z</time>
      </trkpt>
      <trkpt lat="43.81206" lon="7.2563">
        <ele>604.59997558594</ele>
        <time>2013-05-13T17:49:49.000Z</time>
      </trkpt>
      <trkpt lat="43.81197" lon="7.25636">
        <ele>604.40002441406</ele>
        <time>2013-05-13T17:49:51.000Z</time>
      </trkpt>
      <trkpt lat="43.81193" lon="7.25638">
        <ele>604</ele>
        <time>2013-05-13T17:49:52.000Z</time>
      </trkpt>
      <trkpt lat="43.81189" lon="7.2564">
        <ele>603.40002441406</ele>
        <time>2013-05-13T17:49:53.000Z</time>
      </trkpt>
      <trkpt lat="43.81184" lon="7.25641">
        <ele>603.20001220703</ele>
        <time>2013-05-13T17:49:54.000Z</time>
      </trkpt>
      <trkpt lat="43.81179" lon="7.25642">
        <ele>602.40002441406</ele>
        <time>2013-05-13T17:49:55.000Z</time>
      </trkpt>
      <trkpt lat="43.8116" lon="7.25634">
        <ele>602.40002441406</ele>
        <time>2013-05-13T17:49:59.000Z</time>
      </trkpt>
      <trkpt lat="43.81152" lon="7.25617">
        <ele>602.40002441406</ele>
        <time>2013-05-13T17:50:02.000Z</time>
      </trkpt>
      <trkpt lat="43.81146" lon="7.25596">
        <ele>602.40002441406</ele>
        <time>2013-05-13T17:50:05.000Z</time>
      </trkpt>
      <trkpt lat="43.81143" lon="7.25589">
        <ele>601.59997558594</ele>
        <time>2013-05-13T17:50:06.000Z</time>
      </trkpt>
      <trkpt lat="43.81141" lon="7.25581">
        <ele>601.40002441406</ele>
        <time>2013-05-13T17:50:07.000Z</time>
      </trkpt>
      <trkpt lat="43.81139" lon="7.25574">
        <ele>601</ele>
        <time>2013-05-13T17:50:08.000Z</time>
      </trkpt>
      <trkpt lat="43.81136" lon="7.25568">
        <ele>600.40002441406</ele>
        <time>2013-05-13T17:50:09.000Z</time>
      </trkpt>
      <trkpt lat="43.81125" lon="7.25556">
        <ele>600.40002441406</ele>
        <time>2013-05-13T17:50:12.000Z</time>
      </trkpt>
      <trkpt lat="43.8111" lon="7.25563">
        <ele>600.40002441406</ele>
        <time>2013-05-13T17:50:15.000Z</time>
      </trkpt>
      <trkpt lat="43.81105" lon="7.25566">
        <ele>600.40002441406</ele>
        <time>2013-05-13T17:50:16.000Z</time>
      </trkpt>
      <trkpt lat="43.81082" lon="7.25583">
        <ele>600.40002441406</ele>
        <time>2013-05-13T17:50:22.000Z</time>
      </trkpt>
      <trkpt lat="43.8106" lon="7.25597">
        <ele>600.40002441406</ele>
        <time>2013-05-13T17:50:27.000Z</time>
      </trkpt>
      <trkpt lat="43.81051" lon="7.256">
        <ele>600.20001220703</ele>
        <time>2013-05-13T17:50:29.000Z</time>
      </trkpt>
      <trkpt lat="43.81046" lon="7.25601">
        <ele>599.59997558594</ele>
        <time>2013-05-13T17:50:30.000Z</time>
      </trkpt>
      <trkpt lat="43.81041" lon="7.25601">
        <ele>599</ele>
        <time>2013-05-13T17:50:31.000Z</time>
      </trkpt>
      <trkpt lat="43.81036" lon="7.256">
        <ele>598.40002441406</ele>
        <time>2013-05-13T17:50:32.000Z</time>
      </trkpt>
      <trkpt lat="43.81025" lon="7.25592">
        <ele>598.40002441406</ele>
        <time>2013-05-13T17:50:34.000Z</time>
      </trkpt>
      <trkpt lat="43.81014" lon="7.25574">
        <ele>598.40002441406</ele>
        <time>2013-05-13T17:50:37.000Z</time>
      </trkpt>
      <trkpt lat="43.8101" lon="7.25567">
        <ele>598.40002441406</ele>
        <time>2013-05-13T17:50:38.000Z</time>
      </trkpt>
      <trkpt lat="43.81006" lon="7.25561">
        <ele>598.20001220703</ele>
        <time>2013-05-13T17:50:39.000Z</time>
      </trkpt>
      <trkpt lat="43.81003" lon="7.25554">
        <ele>597.59997558594</ele>
        <time>2013-05-13T17:50:40.000Z</time>
      </trkpt>
      <trkpt lat="43.80999" lon="7.25548">
        <ele>597.40002441406</ele>
        <time>2013-05-13T17:50:41.000Z</time>
      </trkpt>
      <trkpt lat="43.80995" lon="7.25541">
        <ele>597</ele>
        <time>2013-05-13T17:50:42.000Z</time>
      </trkpt>
      <trkpt lat="43.80991" lon="7.25535">
        <ele>596.40002441406</ele>
        <time>2013-05-13T17:50:43.000Z</time>
      </trkpt>
      <trkpt lat="43.80984" lon="7.25521">
        <ele>596.40002441406</ele>
        <time>2013-05-13T17:50:45.000Z</time>
      </trkpt>
      <trkpt lat="43.80982" lon="7.25513">
        <ele>596.40002441406</ele>
        <time>2013-05-13T17:50:46.000Z</time>
      </trkpt>
      <trkpt lat="43.80968" lon="7.25496">
        <ele>596.40002441406</ele>
        <time>2013-05-13T17:50:49.000Z</time>
      </trkpt>
      <trkpt lat="43.80956" lon="7.25492">
        <ele>596</ele>
        <time>2013-05-13T17:50:51.000Z</time>
      </trkpt>
      <trkpt lat="43.8095" lon="7.25489">
        <ele>595.40002441406</ele>
        <time>2013-05-13T17:50:52.000Z</time>
      </trkpt>
      <trkpt lat="43.80944" lon="7.25485">
        <ele>595.20001220703</ele>
        <time>2013-05-13T17:50:53.000Z</time>
      </trkpt>
      <trkpt lat="43.80938" lon="7.2548">
        <ele>594.59997558594</ele>
        <time>2013-05-13T17:50:54.000Z</time>
      </trkpt>
      <trkpt lat="43.80932" lon="7.25476">
        <ele>594.40002441406</ele>
        <time>2013-05-13T17:50:55.000Z</time>
      </trkpt>
      <trkpt lat="43.80916" lon="7.25464">
        <ele>594.40002441406</ele>
        <time>2013-05-13T17:50:58.000Z</time>
      </trkpt>
      <trkpt lat="43.80907" lon="7.25457">
        <ele>594.40002441406</ele>
        <time>2013-05-13T17:51:00.000Z</time>
      </trkpt>
      <trkpt lat="43.80896" lon="7.25451">
        <ele>594</ele>
        <time>2013-05-13T17:51:03.000Z</time>
      </trkpt>
      <trkpt lat="43.80893" lon="7.2545">
        <ele>593.40002441406</ele>
        <time>2013-05-13T17:51:04.000Z</time>
      </trkpt>
      <trkpt lat="43.80892" lon="7.2545">
        <ele>593</ele>
        <time>2013-05-13T17:51:05.000Z</time>
      </trkpt>
      <trkpt lat="43.80891" lon="7.2545">
        <ele>592.40002441406</ele>
        <time>2013-05-13T17:51:06.000Z</time>
      </trkpt>
      <trkpt lat="43.80891" lon="7.2545">
        <ele>592.20001220703</ele>
        <time>2013-05-13T17:51:07.000Z</time>
      </trkpt>
      <trkpt lat="43.8089" lon="7.25451">
        <ele>592.20001220703</ele>
        <time>2013-05-13T17:51:14.000Z</time>
      </trkpt>
      <trkpt lat="43.8089" lon="7.25451">
        <ele>592.20001220703</ele>
        <time>2013-05-13T17:51:22.000Z</time>
      </trkpt>
      <trkpt lat="43.8089" lon="7.25451">
        <ele>592.20001220703</ele>
        <time>2013-05-13T17:51:31.000Z</time>
      </trkpt>
      <trkpt lat="43.80888" lon="7.25455">
        <ele>592.20001220703</ele>
        <time>2013-05-13T17:51:37.000Z</time>
      </trkpt>
      <trkpt lat="43.80887" lon="7.25457">
        <ele>592.20001220703</ele>
        <time>2013-05-13T17:51:38.000Z</time>
      </trkpt>
      <trkpt lat="43.80885" lon="7.25466">
        <ele>592.20001220703</ele>
        <time>2013-05-13T17:51:41.000Z</time>
      </trkpt>
      <trkpt lat="43.80884" lon="7.25473">
        <ele>592.20001220703</ele>
        <time>2013-05-13T17:51:43.000Z</time>
      </trkpt>
      <trkpt lat="43.80882" lon="7.25495">
        <ele>592.20001220703</ele>
        <time>2013-05-13T17:51:48.000Z</time>
      </trkpt>
      <trkpt lat="43.80885" lon="7.25523">
        <ele>592.20001220703</ele>
        <time>2013-05-13T17:51:53.000Z</time>
      </trkpt>
      <trkpt lat="43.80887" lon="7.25534">
        <ele>592.20001220703</ele>
        <time>2013-05-13T17:51:55.000Z</time>
      </trkpt>
      <trkpt lat="43.80886" lon="7.25546">
        <ele>592.20001220703</ele>
        <time>2013-05-13T17:51:57.000Z</time>
      </trkpt>
      <trkpt lat="43.80885" lon="7.25558">
        <ele>592.20001220703</ele>
        <time>2013-05-13T17:51:59.000Z</time>
      </trkpt>
      <trkpt lat="43.80884" lon="7.25565">
        <ele>592.20001220703</ele>
        <time>2013-05-13T17:52:00.000Z</time>
      </trkpt>
      <trkpt lat="43.80876" lon="7.25584">
        <ele>592.20001220703</ele>
        <time>2013-05-13T17:52:03.000Z</time>
      </trkpt>
      <trkpt lat="43.8087" lon="7.25596">
        <ele>592.20001220703</ele>
        <time>2013-05-13T17:52:05.000Z</time>
      </trkpt>
      <trkpt lat="43.80866" lon="7.25602">
        <ele>591.59997558594</ele>
        <time>2013-05-13T17:52:06.000Z</time>
      </trkpt>
      <trkpt lat="43.80862" lon="7.25608">
        <ele>591.20001220703</ele>
        <time>2013-05-13T17:52:07.000Z</time>
      </trkpt>
      <trkpt lat="43.80858" lon="7.25615">
        <ele>590.59997558594</ele>
        <time>2013-05-13T17:52:08.000Z</time>
      </trkpt>
      <trkpt lat="43.80854" lon="7.25621">
        <ele>590.40002441406</ele>
        <time>2013-05-13T17:52:09.000Z</time>
      </trkpt>
      <trkpt lat="43.8085" lon="7.25627">
        <ele>589.59997558594</ele>
        <time>2013-05-13T17:52:10.000Z</time>
      </trkpt>
      <trkpt lat="43.80832" lon="7.25652">
        <ele>589.59997558594</ele>
        <time>2013-05-13T17:52:14.000Z</time>
      </trkpt>
      <trkpt lat="43.80827" lon="7.25656">
        <ele>589.59997558594</ele>
        <time>2013-05-13T17:52:15.000Z</time>
      </trkpt>
      <trkpt lat="43.8081" lon="7.25663">
        <ele>589.40002441406</ele>
        <time>2013-05-13T17:52:18.000Z</time>
      </trkpt>
      <trkpt lat="43.80804" lon="7.25661">
        <ele>589</ele>
        <time>2013-05-13T17:52:19.000Z</time>
      </trkpt>
      <trkpt lat="43.80798" lon="7.25658">
        <ele>588.40002441406</ele>
        <time>2013-05-13T17:52:20.000Z</time>
      </trkpt>
      <trkpt lat="43.80792" lon="7.25655">
        <ele>588.20001220703</ele>
        <time>2013-05-13T17:52:21.000Z</time>
      </trkpt>
      <trkpt lat="43.80786" lon="7.25655">
        <ele>587.59997558594</ele>
        <time>2013-05-13T17:52:22.000Z</time>
      </trkpt>
      <trkpt lat="43.80773" lon="7.25657">
        <ele>587.59997558594</ele>
        <time>2013-05-13T17:52:24.000Z</time>
      </trkpt>
      <trkpt lat="43.80743" lon="7.25662">
        <ele>587.59997558594</ele>
        <time>2013-05-13T17:52:29.000Z</time>
      </trkpt>
      <trkpt lat="43.80737" lon="7.25662">
        <ele>587.40002441406</ele>
        <time>2013-05-13T17:52:30.000Z</time>
      </trkpt>
      <trkpt lat="43.8073" lon="7.25661">
        <ele>587</ele>
        <time>2013-05-13T17:52:31.000Z</time>
      </trkpt>
      <trkpt lat="43.80724" lon="7.25659">
        <ele>586.40002441406</ele>
        <time>2013-05-13T17:52:32.000Z</time>
      </trkpt>
      <trkpt lat="43.80718" lon="7.25657">
        <ele>586.20001220703</ele>
        <time>2013-05-13T17:52:33.000Z</time>
      </trkpt>
      <trkpt lat="43.80711" lon="7.25654">
        <ele>585.40002441406</ele>
        <time>2013-05-13T17:52:34.000Z</time>
      </trkpt>
      <trkpt lat="43.80694" lon="7.25643">
        <ele>585.40002441406</ele>
        <time>2013-05-13T17:52:37.000Z</time>
      </trkpt>
      <trkpt lat="43.80684" lon="7.25631">
        <ele>585.20001220703</ele>
        <time>2013-05-13T17:52:39.000Z</time>
      </trkpt>
      <trkpt lat="43.80681" lon="7.25624">
        <ele>584.59997558594</ele>
        <time>2013-05-13T17:52:40.000Z</time>
      </trkpt>
      <trkpt lat="43.80678" lon="7.25617">
        <ele>584.40002441406</ele>
        <time>2013-05-13T17:52:41.000Z</time>
      </trkpt>
      <trkpt lat="43.80674" lon="7.2561">
        <ele>584</ele>
        <time>2013-05-13T17:52:42.000Z</time>
      </trkpt>
      <trkpt lat="43.80671" lon="7.25605">
        <ele>583.40002441406</ele>
        <time>2013-05-13T17:52:43.000Z</time>
      </trkpt>
      <trkpt lat="43.80668" lon="7.256">
        <ele>583.40002441406</ele>
        <time>2013-05-13T17:52:44.000Z</time>
      </trkpt>
      <trkpt lat="43.80653" lon="7.25594">
        <ele>583.40002441406</ele>
        <time>2013-05-13T17:52:47.000Z</time>
      </trkpt>
      <trkpt lat="43.80633" lon="7.25592">
        <ele>583.40002441406</ele>
        <time>2013-05-13T17:52:51.000Z</time>
      </trkpt>
      <trkpt lat="43.80624" lon="7.25582">
        <ele>583.40002441406</ele>
        <time>2013-05-13T17:52:53.000Z</time>
      </trkpt>
      <trkpt lat="43.80619" lon="7.25576">
        <ele>583.40002441406</ele>
        <time>2013-05-13T17:52:54.000Z</time>
      </trkpt>
      <trkpt lat="43.80615" lon="7.2557">
        <ele>583.40002441406</ele>
        <time>2013-05-13T17:52:55.000Z</time>
      </trkpt>
      <trkpt lat="43.80599" lon="7.25549">
        <ele>582.40002441406</ele>
        <time>2013-05-13T17:52:59.000Z</time>
      </trkpt>
      <trkpt lat="43.80594" lon="7.25546">
        <ele>582</ele>
        <time>2013-05-13T17:53:00.000Z</time>
      </trkpt>
      <trkpt lat="43.80589" lon="7.25545">
        <ele>581.40002441406</ele>
        <time>2013-05-13T17:53:01.000Z</time>
      </trkpt>
      <trkpt lat="43.80583" lon="7.25544">
        <ele>581.20001220703</ele>
        <time>2013-05-13T17:53:02.000Z</time>
      </trkpt>
      <trkpt lat="43.80578" lon="7.25542">
        <ele>581.20001220703</ele>
        <time>2013-05-13T17:53:03.000Z</time>
      </trkpt>
      <trkpt lat="43.80568" lon="7.25537">
        <ele>581.20001220703</ele>
        <time>2013-05-13T17:53:05.000Z</time>
      </trkpt>
      <trkpt lat="43.80558" lon="7.25531">
        <ele>581.20001220703</ele>
        <time>2013-05-13T17:53:07.000Z</time>
      </trkpt>
      <trkpt lat="43.80547" lon="7.25537">
        <ele>581.20001220703</ele>
        <time>2013-05-13T17:53:09.000Z</time>
      </trkpt>
      <trkpt lat="43.8054" lon="7.25548">
        <ele>580.59997558594</ele>
        <time>2013-05-13T17:53:11.000Z</time>
      </trkpt>
      <trkpt lat="43.8054" lon="7.25555">
        <ele>580.20001220703</ele>
        <time>2013-05-13T17:53:12.000Z</time>
      </trkpt>
      <trkpt lat="43.80541" lon="7.25563">
        <ele>579.59997558594</ele>
        <time>2013-05-13T17:53:13.000Z</time>
      </trkpt>
      <trkpt lat="43.80541" lon="7.2557">
        <ele>579.40002441406</ele>
        <time>2013-05-13T17:53:14.000Z</time>
      </trkpt>
      <trkpt lat="43.8054" lon="7.25578">
        <ele>579</ele>
        <time>2013-05-13T17:53:15.000Z</time>
      </trkpt>
      <trkpt lat="43.80541" lon="7.25585">
        <ele>579</ele>
        <time>2013-05-13T17:53:16.000Z</time>
      </trkpt>
      <trkpt lat="43.8054" lon="7.25592">
        <ele>579</ele>
        <time>2013-05-13T17:53:17.000Z</time>
      </trkpt>
      <trkpt lat="43.80537" lon="7.25609">
        <ele>579</ele>
        <time>2013-05-13T17:53:20.000Z</time>
      </trkpt>
      <trkpt lat="43.80528" lon="7.25635">
        <ele>579</ele>
        <time>2013-05-13T17:53:24.000Z</time>
      </trkpt>
      <trkpt lat="43.80523" lon="7.25663">
        <ele>579</ele>
        <time>2013-05-13T17:53:28.000Z</time>
      </trkpt>
      <trkpt lat="43.80522" lon="7.2567">
        <ele>579</ele>
        <time>2013-05-13T17:53:29.000Z</time>
      </trkpt>
      <trkpt lat="43.8052" lon="7.25683">
        <ele>579</ele>
        <time>2013-05-13T17:53:31.000Z</time>
      </trkpt>
      <trkpt lat="43.80515" lon="7.25695">
        <ele>579</ele>
        <time>2013-05-13T17:53:33.000Z</time>
      </trkpt>
      <trkpt lat="43.80497" lon="7.25724">
        <ele>578.40002441406</ele>
        <time>2013-05-13T17:53:38.000Z</time>
      </trkpt>
      <trkpt lat="43.80492" lon="7.2573">
        <ele>578</ele>
        <time>2013-05-13T17:53:39.000Z</time>
      </trkpt>
      <trkpt lat="43.80486" lon="7.25733">
        <ele>577.40002441406</ele>
        <time>2013-05-13T17:53:40.000Z</time>
      </trkpt>
      <trkpt lat="43.8048" lon="7.25736">
        <ele>577</ele>
        <time>2013-05-13T17:53:41.000Z</time>
      </trkpt>
      <trkpt lat="43.80474" lon="7.25738">
        <ele>576.40002441406</ele>
        <time>2013-05-13T17:53:42.000Z</time>
      </trkpt>
      <trkpt lat="43.80445" lon="7.25736">
        <ele>576.20001220703</ele>
        <time>2013-05-13T17:53:46.000Z</time>
      </trkpt>
      <trkpt lat="43.80438" lon="7.25736">
        <ele>575.59997558594</ele>
        <time>2013-05-13T17:53:47.000Z</time>
      </trkpt>
      <trkpt lat="43.80432" lon="7.25736">
        <ele>575.40002441406</ele>
        <time>2013-05-13T17:53:48.000Z</time>
      </trkpt>
      <trkpt lat="43.80425" lon="7.25737">
        <ele>574.40002441406</ele>
        <time>2013-05-13T17:53:49.000Z</time>
      </trkpt>
      <trkpt lat="43.80412" lon="7.2574">
        <ele>574.40002441406</ele>
        <time>2013-05-13T17:53:51.000Z</time>
      </trkpt>
      <trkpt lat="43.80387" lon="7.25739">
        <ele>574</ele>
        <time>2013-05-13T17:53:54.000Z</time>
      </trkpt>
      <trkpt lat="43.80379" lon="7.25738">
        <ele>573.40002441406</ele>
        <time>2013-05-13T17:53:55.000Z</time>
      </trkpt>
      <trkpt lat="43.8037" lon="7.25736">
        <ele>573.20001220703</ele>
        <time>2013-05-13T17:53:56.000Z</time>
      </trkpt>
      <trkpt lat="43.80361" lon="7.25736">
        <ele>572.40002441406</ele>
        <time>2013-05-13T17:53:57.000Z</time>
      </trkpt>
      <trkpt lat="43.80353" lon="7.25736">
        <ele>572</ele>
        <time>2013-05-13T17:53:58.000Z</time>
      </trkpt>
      <trkpt lat="43.80343" lon="7.25737">
        <ele>571.40002441406</ele>
        <time>2013-05-13T17:53:59.000Z</time>
      </trkpt>
      <trkpt lat="43.80335" lon="7.25739">
        <ele>570.59997558594</ele>
        <time>2013-05-13T17:54:00.000Z</time>
      </trkpt>
      <trkpt lat="43.80325" lon="7.25742">
        <ele>570.20001220703</ele>
        <time>2013-05-13T17:54:01.000Z</time>
      </trkpt>
      <trkpt lat="43.80316" lon="7.25743">
        <ele>569.40002441406</ele>
        <time>2013-05-13T17:54:02.000Z</time>
      </trkpt>
      <trkpt lat="43.80306" lon="7.25743">
        <ele>569.20001220703</ele>
        <time>2013-05-13T17:54:03.000Z</time>
      </trkpt>
      <trkpt lat="43.80296" lon="7.25743">
        <ele>568.59997558594</ele>
        <time>2013-05-13T17:54:04.000Z</time>
      </trkpt>
      <trkpt lat="43.80287" lon="7.25742">
        <ele>568.20001220703</ele>
        <time>2013-05-13T17:54:05.000Z</time>
      </trkpt>
      <trkpt lat="43.80279" lon="7.25739">
        <ele>567.40002441406</ele>
        <time>2013-05-13T17:54:06.000Z</time>
      </trkpt>
      <trkpt lat="43.80272" lon="7.25736">
        <ele>567</ele>
        <time>2013-05-13T17:54:07.000Z</time>
      </trkpt>
      <trkpt lat="43.80265" lon="7.25731">
        <ele>566.40002441406</ele>
        <time>2013-05-13T17:54:08.000Z</time>
      </trkpt>
      <trkpt lat="43.80258" lon="7.25724">
        <ele>565.40002441406</ele>
        <time>2013-05-13T17:54:09.000Z</time>
      </trkpt>
      <trkpt lat="43.80254" lon="7.25716">
        <ele>565</ele>
        <time>2013-05-13T17:54:10.000Z</time>
      </trkpt>
      <trkpt lat="43.80254" lon="7.25704">
        <ele>564.40002441406</ele>
        <time>2013-05-13T17:54:11.000Z</time>
      </trkpt>
      <trkpt lat="43.80254" lon="7.25693">
        <ele>564</ele>
        <time>2013-05-13T17:54:12.000Z</time>
      </trkpt>
      <trkpt lat="43.80254" lon="7.25682">
        <ele>563.40002441406</ele>
        <time>2013-05-13T17:54:13.000Z</time>
      </trkpt>
      <trkpt lat="43.80255" lon="7.25671">
        <ele>562.40002441406</ele>
        <time>2013-05-13T17:54:14.000Z</time>
      </trkpt>
      <trkpt lat="43.80258" lon="7.25651">
        <ele>562.20001220703</ele>
        <time>2013-05-13T17:54:16.000Z</time>
      </trkpt>
      <trkpt lat="43.8026" lon="7.2564">
        <ele>561.59997558594</ele>
        <time>2013-05-13T17:54:17.000Z</time>
      </trkpt>
      <trkpt lat="43.80259" lon="7.25628">
        <ele>561.20001220703</ele>
        <time>2013-05-13T17:54:18.000Z</time>
      </trkpt>
      <trkpt lat="43.80258" lon="7.25617">
        <ele>560.59997558594</ele>
        <time>2013-05-13T17:54:19.000Z</time>
      </trkpt>
      <trkpt lat="43.80256" lon="7.25606">
        <ele>560.40002441406</ele>
        <time>2013-05-13T17:54:20.000Z</time>
      </trkpt>
      <trkpt lat="43.80254" lon="7.25595">
        <ele>560</ele>
        <time>2013-05-13T17:54:21.000Z</time>
      </trkpt>
      <trkpt lat="43.80254" lon="7.25582">
        <ele>559.40002441406</ele>
        <time>2013-05-13T17:54:22.000Z</time>
      </trkpt>
      <trkpt lat="43.80254" lon="7.25571">
        <ele>559</ele>
        <time>2013-05-13T17:54:23.000Z</time>
      </trkpt>
      <trkpt lat="43.80254" lon="7.25562">
        <ele>558.40002441406</ele>
        <time>2013-05-13T17:54:24.000Z</time>
      </trkpt>
      <trkpt lat="43.80253" lon="7.25554">
        <ele>557.59997558594</ele>
        <time>2013-05-13T17:54:25.000Z</time>
      </trkpt>
      <trkpt lat="43.80251" lon="7.25547">
        <ele>557.20001220703</ele>
        <time>2013-05-13T17:54:26.000Z</time>
      </trkpt>
      <trkpt lat="43.80246" lon="7.25543">
        <ele>556.40002441406</ele>
        <time>2013-05-13T17:54:27.000Z</time>
      </trkpt>
      <trkpt lat="43.80242" lon="7.25541">
        <ele>555.59997558594</ele>
        <time>2013-05-13T17:54:28.000Z</time>
      </trkpt>
      <trkpt lat="43.80237" lon="7.2554">
        <ele>555</ele>
        <time>2013-05-13T17:54:29.000Z</time>
      </trkpt>
      <trkpt lat="43.80232" lon="7.25541">
        <ele>554.20001220703</ele>
        <time>2013-05-13T17:54:30.000Z</time>
      </trkpt>
      <trkpt lat="43.80227" lon="7.25543">
        <ele>553.40002441406</ele>
        <time>2013-05-13T17:54:31.000Z</time>
      </trkpt>
      <trkpt lat="43.80222" lon="7.25545">
        <ele>553.40002441406</ele>
        <time>2013-05-13T17:54:32.000Z</time>
      </trkpt>
      <trkpt lat="43.80218" lon="7.25548">
        <ele>553.40002441406</ele>
        <time>2013-05-13T17:54:33.000Z</time>
      </trkpt>
      <trkpt lat="43.80214" lon="7.25552">
        <ele>553.40002441406</ele>
        <time>2013-05-13T17:54:34.000Z</time>
      </trkpt>
      <trkpt lat="43.80204" lon="7.25558">
        <ele>553.40002441406</ele>
        <time>2013-05-13T17:54:36.000Z</time>
      </trkpt>
      <trkpt lat="43.80188" lon="7.25569">
        <ele>553.40002441406</ele>
        <time>2013-05-13T17:54:39.000Z</time>
      </trkpt>
      <trkpt lat="43.80177" lon="7.25586">
        <ele>553.40002441406</ele>
        <time>2013-05-13T17:54:42.000Z</time>
      </trkpt>
      <trkpt lat="43.80173" lon="7.25591">
        <ele>553.40002441406</ele>
        <time>2013-05-13T17:54:43.000Z</time>
      </trkpt>
      <trkpt lat="43.8015" lon="7.25614">
        <ele>553.20001220703</ele>
        <time>2013-05-13T17:54:47.000Z</time>
      </trkpt>
      <trkpt lat="43.80143" lon="7.25621">
        <ele>552.59997558594</ele>
        <time>2013-05-13T17:54:48.000Z</time>
      </trkpt>
      <trkpt lat="43.80136" lon="7.25627">
        <ele>552.40002441406</ele>
        <time>2013-05-13T17:54:49.000Z</time>
      </trkpt>
      <trkpt lat="43.80128" lon="7.25632">
        <ele>552</ele>
        <time>2013-05-13T17:54:50.000Z</time>
      </trkpt>
      <trkpt lat="43.80121" lon="7.25637">
        <ele>551.40002441406</ele>
        <time>2013-05-13T17:54:51.000Z</time>
      </trkpt>
      <trkpt lat="43.80113" lon="7.25642">
        <ele>551</ele>
        <time>2013-05-13T17:54:52.000Z</time>
      </trkpt>
      <trkpt lat="43.80105" lon="7.25647">
        <ele>550.40002441406</ele>
        <time>2013-05-13T17:54:53.000Z</time>
      </trkpt>
      <trkpt lat="43.80098" lon="7.25651">
        <ele>550</ele>
        <time>2013-05-13T17:54:54.000Z</time>
      </trkpt>
      <trkpt lat="43.80089" lon="7.25656">
        <ele>549.40002441406</ele>
        <time>2013-05-13T17:54:55.000Z</time>
      </trkpt>
      <trkpt lat="43.80081" lon="7.25659">
        <ele>548.59997558594</ele>
        <time>2013-05-13T17:54:56.000Z</time>
      </trkpt>
      <trkpt lat="43.80073" lon="7.2566">
        <ele>548.40002441406</ele>
        <time>2013-05-13T17:54:57.000Z</time>
      </trkpt>
      <trkpt lat="43.80066" lon="7.2566">
        <ele>547.59997558594</ele>
        <time>2013-05-13T17:54:58.000Z</time>
      </trkpt>
      <trkpt lat="43.80059" lon="7.25656">
        <ele>547.40002441406</ele>
        <time>2013-05-13T17:54:59.000Z</time>
      </trkpt>
      <trkpt lat="43.80053" lon="7.25652">
        <ele>546.59997558594</ele>
        <time>2013-05-13T17:55:00.000Z</time>
      </trkpt>
      <trkpt lat="43.80047" lon="7.25644">
        <ele>546.40002441406</ele>
        <time>2013-05-13T17:55:01.000Z</time>
      </trkpt>
      <trkpt lat="43.80043" lon="7.25636">
        <ele>545.59997558594</ele>
        <time>2013-05-13T17:55:02.000Z</time>
      </trkpt>
      <trkpt lat="43.80039" lon="7.25627">
        <ele>545.20001220703</ele>
        <time>2013-05-13T17:55:03.000Z</time>
      </trkpt>
      <trkpt lat="43.80035" lon="7.25618">
        <ele>544.40002441406</ele>
        <time>2013-05-13T17:55:04.000Z</time>
      </trkpt>
      <trkpt lat="43.80031" lon="7.2561">
        <ele>544.20001220703</ele>
        <time>2013-05-13T17:55:05.000Z</time>
      </trkpt>
      <trkpt lat="43.80025" lon="7.25603">
        <ele>543.59997558594</ele>
        <time>2013-05-13T17:55:06.000Z</time>
      </trkpt>
      <trkpt lat="43.8002" lon="7.25596">
        <ele>543.20001220703</ele>
        <time>2013-05-13T17:55:07.000Z</time>
      </trkpt>
      <trkpt lat="43.80016" lon="7.25588">
        <ele>542.59997558594</ele>
        <time>2013-05-13T17:55:08.000Z</time>
      </trkpt>
      <trkpt lat="43.80014" lon="7.25578">
        <ele>542.40002441406</ele>
        <time>2013-05-13T17:55:09.000Z</time>
      </trkpt>
      <trkpt lat="43.80012" lon="7.25568">
        <ele>542</ele>
        <time>2013-05-13T17:55:10.000Z</time>
      </trkpt>
      <trkpt lat="43.80011" lon="7.25557">
        <ele>541.40002441406</ele>
        <time>2013-05-13T17:55:11.000Z</time>
      </trkpt>
      <trkpt lat="43.8001" lon="7.25548">
        <ele>541</ele>
        <time>2013-05-13T17:55:12.000Z</time>
      </trkpt>
      <trkpt lat="43.80009" lon="7.25541">
        <ele>540.40002441406</ele>
        <time>2013-05-13T17:55:13.000Z</time>
      </trkpt>
      <trkpt lat="43.80006" lon="7.25537">
        <ele>540.20001220703</ele>
        <time>2013-05-13T17:55:14.000Z</time>
      </trkpt>
      <trkpt lat="43.80003" lon="7.25534">
        <ele>539.40002441406</ele>
        <time>2013-05-13T17:55:15.000Z</time>
      </trkpt>
      <trkpt lat="43.80001" lon="7.25535">
        <ele>539</ele>
        <time>2013-05-13T17:55:16.000Z</time>
      </trkpt>
      <trkpt lat="43.79998" lon="7.25539">
        <ele>538.40002441406</ele>
        <time>2013-05-13T17:55:17.000Z</time>
      </trkpt>
      <trkpt lat="43.79994" lon="7.25542">
        <ele>537.59997558594</ele>
        <time>2013-05-13T17:55:18.000Z</time>
      </trkpt>
      <trkpt lat="43.79991" lon="7.25547">
        <ele>537.40002441406</ele>
        <time>2013-05-13T17:55:19.000Z</time>
      </trkpt>
      <trkpt lat="43.79983" lon="7.25556">
        <ele>537.40002441406</ele>
        <time>2013-05-13T17:55:21.000Z</time>
      </trkpt>
      <trkpt lat="43.79965" lon="7.2558">
        <ele>537</ele>
        <time>2013-05-13T17:55:25.000Z</time>
      </trkpt>
      <trkpt lat="43.7996" lon="7.25588">
        <ele>536.40002441406</ele>
        <time>2013-05-13T17:55:26.000Z</time>
      </trkpt>
      <trkpt lat="43.79955" lon="7.25595">
        <ele>536</ele>
        <time>2013-05-13T17:55:27.000Z</time>
      </trkpt>
      <trkpt lat="43.7995" lon="7.25604">
        <ele>535.40002441406</ele>
        <time>2013-05-13T17:55:28.000Z</time>
      </trkpt>
      <trkpt lat="43.79946" lon="7.25614">
        <ele>535.20001220703</ele>
        <time>2013-05-13T17:55:29.000Z</time>
      </trkpt>
      <trkpt lat="43.79941" lon="7.25625">
        <ele>534.59997558594</ele>
        <time>2013-05-13T17:55:30.000Z</time>
      </trkpt>
      <trkpt lat="43.79938" lon="7.25637">
        <ele>534.40002441406</ele>
        <time>2013-05-13T17:55:31.000Z</time>
      </trkpt>
      <trkpt lat="43.79934" lon="7.2565">
        <ele>533.59997558594</ele>
        <time>2013-05-13T17:55:32.000Z</time>
      </trkpt>
      <trkpt lat="43.79931" lon="7.25662">
        <ele>533.40002441406</ele>
        <time>2013-05-13T17:55:33.000Z</time>
      </trkpt>
      <trkpt lat="43.79928" lon="7.25675">
        <ele>532.59997558594</ele>
        <time>2013-05-13T17:55:34.000Z</time>
      </trkpt>
      <trkpt lat="43.79924" lon="7.25689">
        <ele>532.20001220703</ele>
        <time>2013-05-13T17:55:35.000Z</time>
      </trkpt>
      <trkpt lat="43.79922" lon="7.25703">
        <ele>531.40002441406</ele>
        <time>2013-05-13T17:55:36.000Z</time>
      </trkpt>
      <trkpt lat="43.7992" lon="7.25718">
        <ele>530.59997558594</ele>
        <time>2013-05-13T17:55:37.000Z</time>
      </trkpt>
      <trkpt lat="43.79917" lon="7.25732">
        <ele>530</ele>
        <time>2013-05-13T17:55:38.000Z</time>
      </trkpt>
      <trkpt lat="43.79914" lon="7.25745">
        <ele>529.40002441406</ele>
        <time>2013-05-13T17:55:39.000Z</time>
      </trkpt>
      <trkpt lat="43.7991" lon="7.25758">
        <ele>528.40002441406</ele>
        <time>2013-05-13T17:55:40.000Z</time>
      </trkpt>
      <trkpt lat="43.79905" lon="7.25771">
        <ele>527.40002441406</ele>
        <time>2013-05-13T17:55:41.000Z</time>
      </trkpt>
      <trkpt lat="43.799" lon="7.25783">
        <ele>526.59997558594</ele>
        <time>2013-05-13T17:55:42.000Z</time>
      </trkpt>
      <trkpt lat="43.79892" lon="7.25793">
        <ele>526</ele>
        <time>2013-05-13T17:55:43.000Z</time>
      </trkpt>
      <trkpt lat="43.79885" lon="7.25802">
        <ele>525.20001220703</ele>
        <time>2013-05-13T17:55:44.000Z</time>
      </trkpt>
      <trkpt lat="43.79878" lon="7.2581">
        <ele>524.40002441406</ele>
        <time>2013-05-13T17:55:45.000Z</time>
      </trkpt>
      <trkpt lat="43.79868" lon="7.25816">
        <ele>523.40002441406</ele>
        <time>2013-05-13T17:55:46.000Z</time>
      </trkpt>
      <trkpt lat="43.79859" lon="7.2582">
        <ele>521.59997558594</ele>
        <time>2013-05-13T17:55:47.000Z</time>
      </trkpt>
      <trkpt lat="43.79849" lon="7.25822">
        <ele>520.59997558594</ele>
        <time>2013-05-13T17:55:48.000Z</time>
      </trkpt>
      <trkpt lat="43.79841" lon="7.25824">
        <ele>519.59997558594</ele>
        <time>2013-05-13T17:55:49.000Z</time>
      </trkpt>
      <trkpt lat="43.7983" lon="7.25823">
        <ele>519</ele>
        <time>2013-05-13T17:55:50.000Z</time>
      </trkpt>
      <trkpt lat="43.79819" lon="7.25822">
        <ele>518.20001220703</ele>
        <time>2013-05-13T17:55:51.000Z</time>
      </trkpt>
      <trkpt lat="43.7981" lon="7.2582">
        <ele>517.20001220703</ele>
        <time>2013-05-13T17:55:52.000Z</time>
      </trkpt>
      <trkpt lat="43.79802" lon="7.25817">
        <ele>516.40002441406</ele>
        <time>2013-05-13T17:55:53.000Z</time>
      </trkpt>
      <trkpt lat="43.79796" lon="7.25811">
        <ele>515.40002441406</ele>
        <time>2013-05-13T17:55:54.000Z</time>
      </trkpt>
      <trkpt lat="43.79792" lon="7.25807">
        <ele>514.40002441406</ele>
        <time>2013-05-13T17:55:55.000Z</time>
      </trkpt>
      <trkpt lat="43.79789" lon="7.25808">
        <ele>513.40002441406</ele>
        <time>2013-05-13T17:55:56.000Z</time>
      </trkpt>
      <trkpt lat="43.79787" lon="7.2581">
        <ele>512.40002441406</ele>
        <time>2013-05-13T17:55:57.000Z</time>
      </trkpt>
      <trkpt lat="43.79788" lon="7.25816">
        <ele>511.60000610352</ele>
        <time>2013-05-13T17:55:58.000Z</time>
      </trkpt>
      <trkpt lat="43.79791" lon="7.2582">
        <ele>510.60000610352</ele>
        <time>2013-05-13T17:55:59.000Z</time>
      </trkpt>
      <trkpt lat="43.79796" lon="7.25822">
        <ele>509.60000610352</ele>
        <time>2013-05-13T17:56:00.000Z</time>
      </trkpt>
      <trkpt lat="43.79805" lon="7.25826">
        <ele>509.60000610352</ele>
        <time>2013-05-13T17:56:02.000Z</time>
      </trkpt>
      <trkpt lat="43.79811" lon="7.25829">
        <ele>509.60000610352</ele>
        <time>2013-05-13T17:56:03.000Z</time>
      </trkpt>
      <trkpt lat="43.79816" lon="7.25832">
        <ele>509.20001220703</ele>
        <time>2013-05-13T17:56:04.000Z</time>
      </trkpt>
      <trkpt lat="43.79821" lon="7.25836">
        <ele>509</ele>
        <time>2013-05-13T17:56:05.000Z</time>
      </trkpt>
      <trkpt lat="43.79826" lon="7.2584">
        <ele>508.60000610352</ele>
        <time>2013-05-13T17:56:06.000Z</time>
      </trkpt>
      <trkpt lat="43.79832" lon="7.25843">
        <ele>508.20001220703</ele>
        <time>2013-05-13T17:56:07.000Z</time>
      </trkpt>
      <trkpt lat="43.79837" lon="7.25847">
        <ele>507.60000610352</ele>
        <time>2013-05-13T17:56:08.000Z</time>
      </trkpt>
      <trkpt lat="43.79857" lon="7.2586">
        <ele>507</ele>
        <time>2013-05-13T17:56:11.000Z</time>
      </trkpt>
      <trkpt lat="43.79864" lon="7.25865">
        <ele>506.60000610352</ele>
        <time>2013-05-13T17:56:12.000Z</time>
      </trkpt>
      <trkpt lat="43.7987" lon="7.25871">
        <ele>506.20001220703</ele>
        <time>2013-05-13T17:56:13.000Z</time>
      </trkpt>
      <trkpt lat="43.79877" lon="7.25877">
        <ele>505.60000610352</ele>
        <time>2013-05-13T17:56:14.000Z</time>
      </trkpt>
      <trkpt lat="43.79883" lon="7.25886">
        <ele>505.20001220703</ele>
        <time>2013-05-13T17:56:15.000Z</time>
      </trkpt>
      <trkpt lat="43.79888" lon="7.25895">
        <ele>504.60000610352</ele>
        <time>2013-05-13T17:56:16.000Z</time>
      </trkpt>
      <trkpt lat="43.79892" lon="7.25906">
        <ele>504.20001220703</ele>
        <time>2013-05-13T17:56:17.000Z</time>
      </trkpt>
      <trkpt lat="43.79896" lon="7.25917">
        <ele>504</ele>
        <time>2013-05-13T17:56:18.000Z</time>
      </trkpt>
      <trkpt lat="43.79901" lon="7.25926">
        <ele>503.20001220703</ele>
        <time>2013-05-13T17:56:19.000Z</time>
      </trkpt>
      <trkpt lat="43.79906" lon="7.25933">
        <ele>502.60000610352</ele>
        <time>2013-05-13T17:56:20.000Z</time>
      </trkpt>
      <trkpt lat="43.79911" lon="7.25936">
        <ele>502.20001220703</ele>
        <time>2013-05-13T17:56:21.000Z</time>
      </trkpt>
      <trkpt lat="43.79917" lon="7.25938">
        <ele>501.60000610352</ele>
        <time>2013-05-13T17:56:22.000Z</time>
      </trkpt>
      <trkpt lat="43.79923" lon="7.25939">
        <ele>501.20001220703</ele>
        <time>2013-05-13T17:56:23.000Z</time>
      </trkpt>
      <trkpt lat="43.79928" lon="7.25934">
        <ele>500.60000610352</ele>
        <time>2013-05-13T17:56:24.000Z</time>
      </trkpt>
      <trkpt lat="43.79932" lon="7.2593">
        <ele>500.20001220703</ele>
        <time>2013-05-13T17:56:25.000Z</time>
      </trkpt>
      <trkpt lat="43.79935" lon="7.25925">
        <ele>500</ele>
        <time>2013-05-13T17:56:26.000Z</time>
      </trkpt>
      <trkpt lat="43.79935" lon="7.25918">
        <ele>499.20001220703</ele>
        <time>2013-05-13T17:56:27.000Z</time>
      </trkpt>
      <trkpt lat="43.79935" lon="7.25911">
        <ele>499</ele>
        <time>2013-05-13T17:56:28.000Z</time>
      </trkpt>
      <trkpt lat="43.79935" lon="7.25904">
        <ele>499</ele>
        <time>2013-05-13T17:56:29.000Z</time>
      </trkpt>
      <trkpt lat="43.79935" lon="7.25877">
        <ele>499</ele>
        <time>2013-05-13T17:56:34.000Z</time>
      </trkpt>
      <trkpt lat="43.79932" lon="7.25838">
        <ele>499</ele>
        <time>2013-05-13T17:56:42.000Z</time>
      </trkpt>
      <trkpt lat="43.79934" lon="7.25829">
        <ele>499</ele>
        <time>2013-05-13T17:56:46.000Z</time>
      </trkpt>
      <trkpt lat="43.79936" lon="7.25831">
        <ele>499</ele>
        <time>2013-05-13T17:56:49.000Z</time>
      </trkpt>
      <trkpt lat="43.79936" lon="7.25835">
        <ele>499</ele>
        <time>2013-05-13T17:56:50.000Z</time>
      </trkpt>
      <trkpt lat="43.79936" lon="7.25862">
        <ele>499</ele>
        <time>2013-05-13T17:56:54.000Z</time>
      </trkpt>
      <trkpt lat="43.79938" lon="7.25902">
        <ele>498.60000610352</ele>
        <time>2013-05-13T17:56:58.000Z</time>
      </trkpt>
      <trkpt lat="43.7994" lon="7.25914">
        <ele>498.20001220703</ele>
        <time>2013-05-13T17:56:59.000Z</time>
      </trkpt>
      <trkpt lat="43.79942" lon="7.25925">
        <ele>497.60000610352</ele>
        <time>2013-05-13T17:57:00.000Z</time>
      </trkpt>
      <trkpt lat="43.79944" lon="7.25936">
        <ele>497</ele>
        <time>2013-05-13T17:57:01.000Z</time>
      </trkpt>
      <trkpt lat="43.79947" lon="7.25948">
        <ele>496.60000610352</ele>
        <time>2013-05-13T17:57:02.000Z</time>
      </trkpt>
      <trkpt lat="43.79951" lon="7.2596">
        <ele>496</ele>
        <time>2013-05-13T17:57:03.000Z</time>
      </trkpt>
      <trkpt lat="43.79954" lon="7.25972">
        <ele>495.60000610352</ele>
        <time>2013-05-13T17:57:04.000Z</time>
      </trkpt>
      <trkpt lat="43.79957" lon="7.25987">
        <ele>494.60000610352</ele>
        <time>2013-05-13T17:57:05.000Z</time>
      </trkpt>
      <trkpt lat="43.79959" lon="7.26002">
        <ele>494</ele>
        <time>2013-05-13T17:57:06.000Z</time>
      </trkpt>
      <trkpt lat="43.79961" lon="7.26018">
        <ele>493.20001220703</ele>
        <time>2013-05-13T17:57:07.000Z</time>
      </trkpt>
      <trkpt lat="43.79963" lon="7.26033">
        <ele>492.20001220703</ele>
        <time>2013-05-13T17:57:08.000Z</time>
      </trkpt>
      <trkpt lat="43.79968" lon="7.26046">
        <ele>491.20001220703</ele>
        <time>2013-05-13T17:57:09.000Z</time>
      </trkpt>
      <trkpt lat="43.79972" lon="7.26058">
        <ele>490.60000610352</ele>
        <time>2013-05-13T17:57:10.000Z</time>
      </trkpt>
      <trkpt lat="43.79976" lon="7.2607">
        <ele>489.60000610352</ele>
        <time>2013-05-13T17:57:11.000Z</time>
      </trkpt>
      <trkpt lat="43.79978" lon="7.2608">
        <ele>489</ele>
        <time>2013-05-13T17:57:12.000Z</time>
      </trkpt>
      <trkpt lat="43.7998" lon="7.2609">
        <ele>488.20001220703</ele>
        <time>2013-05-13T17:57:13.000Z</time>
      </trkpt>
      <trkpt lat="43.79981" lon="7.26099">
        <ele>487.20001220703</ele>
        <time>2013-05-13T17:57:14.000Z</time>
      </trkpt>
      <trkpt lat="43.79981" lon="7.26107">
        <ele>487.20001220703</ele>
        <time>2013-05-13T17:57:15.000Z</time>
      </trkpt>
      <trkpt lat="43.79981" lon="7.2612">
        <ele>487.20001220703</ele>
        <time>2013-05-13T17:57:17.000Z</time>
      </trkpt>
      <trkpt lat="43.79981" lon="7.26127">
        <ele>487.60000610352</ele>
        <time>2013-05-13T17:57:18.000Z</time>
      </trkpt>
      <trkpt lat="43.79981" lon="7.26133">
        <ele>488.20001220703</ele>
        <time>2013-05-13T17:57:19.000Z</time>
      </trkpt>
      <trkpt lat="43.7998" lon="7.26139">
        <ele>488.60000610352</ele>
        <time>2013-05-13T17:57:20.000Z</time>
      </trkpt>
      <trkpt lat="43.7998" lon="7.26144">
        <ele>489</ele>
        <time>2013-05-13T17:57:21.000Z</time>
      </trkpt>
      <trkpt lat="43.79979" lon="7.26148">
        <ele>489.60000610352</ele>
        <time>2013-05-13T17:57:22.000Z</time>
      </trkpt>
      <trkpt lat="43.79976" lon="7.26162">
        <ele>489.60000610352</ele>
        <time>2013-05-13T17:57:25.000Z</time>
      </trkpt>
      <trkpt lat="43.79975" lon="7.26166">
        <ele>490.20001220703</ele>
        <time>2013-05-13T17:57:26.000Z</time>
      </trkpt>
      <trkpt lat="43.79975" lon="7.2617">
        <ele>490.60000610352</ele>
        <time>2013-05-13T17:57:27.000Z</time>
      </trkpt>
      <trkpt lat="43.79974" lon="7.26173">
        <ele>491.20001220703</ele>
        <time>2013-05-13T17:57:28.000Z</time>
      </trkpt>
      <trkpt lat="43.79974" lon="7.26176">
        <ele>491.60000610352</ele>
        <time>2013-05-13T17:57:29.000Z</time>
      </trkpt>
      <trkpt lat="43.79973" lon="7.2618">
        <ele>491.60000610352</ele>
        <time>2013-05-13T17:57:30.000Z</time>
      </trkpt>
      <trkpt lat="43.79971" lon="7.26184">
        <ele>492</ele>
        <time>2013-05-13T17:57:31.000Z</time>
      </trkpt>
      <trkpt lat="43.7997" lon="7.26186">
        <ele>492.20001220703</ele>
        <time>2013-05-13T17:57:32.000Z</time>
      </trkpt>
      <trkpt lat="43.79969" lon="7.26189">
        <ele>493</ele>
        <time>2013-05-13T17:57:33.000Z</time>
      </trkpt>
      <trkpt lat="43.79968" lon="7.26192">
        <ele>493.20001220703</ele>
        <time>2013-05-13T17:57:34.000Z</time>
      </trkpt>
      <trkpt lat="43.79967" lon="7.26194">
        <ele>493.60000610352</ele>
        <time>2013-05-13T17:57:35.000Z</time>
      </trkpt>
      <trkpt lat="43.7996" lon="7.26202">
        <ele>493.60000610352</ele>
        <time>2013-05-13T17:57:41.000Z</time>
      </trkpt>
      <trkpt lat="43.79947" lon="7.262">
        <ele>493.60000610352</ele>
        <time>2013-05-13T17:57:46.000Z</time>
      </trkpt>
      <trkpt lat="43.79935" lon="7.26191">
        <ele>493.60000610352</ele>
        <time>2013-05-13T17:57:49.000Z</time>
      </trkpt>
      <trkpt lat="43.79926" lon="7.26183">
        <ele>493.20001220703</ele>
        <time>2013-05-13T17:57:51.000Z</time>
      </trkpt>
      <trkpt lat="43.79921" lon="7.2618">
        <ele>493</ele>
        <time>2013-05-13T17:57:52.000Z</time>
      </trkpt>
      <trkpt lat="43.79916" lon="7.26181">
        <ele>492.60000610352</ele>
        <time>2013-05-13T17:57:53.000Z</time>
      </trkpt>
      <trkpt lat="43.79912" lon="7.26185">
        <ele>491.60000610352</ele>
        <time>2013-05-13T17:57:54.000Z</time>
      </trkpt>
      <trkpt lat="43.79908" lon="7.2619">
        <ele>491.20001220703</ele>
        <time>2013-05-13T17:57:55.000Z</time>
      </trkpt>
      <trkpt lat="43.79903" lon="7.26198">
        <ele>490.20001220703</ele>
        <time>2013-05-13T17:57:56.000Z</time>
      </trkpt>
      <trkpt lat="43.79898" lon="7.26208">
        <ele>489.60000610352</ele>
        <time>2013-05-13T17:57:57.000Z</time>
      </trkpt>
      <trkpt lat="43.79893" lon="7.26217">
        <ele>489</ele>
        <time>2013-05-13T17:57:58.000Z</time>
      </trkpt>
      <trkpt lat="43.79888" lon="7.26225">
        <ele>488.20001220703</ele>
        <time>2013-05-13T17:57:59.000Z</time>
      </trkpt>
      <trkpt lat="43.79883" lon="7.2623">
        <ele>487.20001220703</ele>
        <time>2013-05-13T17:58:00.000Z</time>
      </trkpt>
      <trkpt lat="43.79878" lon="7.26232">
        <ele>486.60000610352</ele>
        <time>2013-05-13T17:58:01.000Z</time>
      </trkpt>
      <trkpt lat="43.79872" lon="7.2623">
        <ele>485.60000610352</ele>
        <time>2013-05-13T17:58:02.000Z</time>
      </trkpt>
      <trkpt lat="43.79866" lon="7.26224">
        <ele>484.60000610352</ele>
        <time>2013-05-13T17:58:03.000Z</time>
      </trkpt>
      <trkpt lat="43.79861" lon="7.26216">
        <ele>483.60000610352</ele>
        <time>2013-05-13T17:58:04.000Z</time>
      </trkpt>
      <trkpt lat="43.79856" lon="7.26206">
        <ele>482.60000610352</ele>
        <time>2013-05-13T17:58:05.000Z</time>
      </trkpt>
      <trkpt lat="43.79853" lon="7.26199">
        <ele>481.60000610352</ele>
        <time>2013-05-13T17:58:06.000Z</time>
      </trkpt>
      <trkpt lat="43.79849" lon="7.26193">
        <ele>480.20001220703</ele>
        <time>2013-05-13T17:58:07.000Z</time>
      </trkpt>
      <trkpt lat="43.79843" lon="7.2619">
        <ele>479.20001220703</ele>
        <time>2013-05-13T17:58:08.000Z</time>
      </trkpt>
      <trkpt lat="43.79837" lon="7.26193">
        <ele>478.20001220703</ele>
        <time>2013-05-13T17:58:09.000Z</time>
      </trkpt>
      <trkpt lat="43.79831" lon="7.26197">
        <ele>477.20001220703</ele>
        <time>2013-05-13T17:58:10.000Z</time>
      </trkpt>
      <trkpt lat="43.79824" lon="7.26202">
        <ele>476</ele>
        <time>2013-05-13T17:58:11.000Z</time>
      </trkpt>
      <trkpt lat="43.79817" lon="7.26207">
        <ele>475</ele>
        <time>2013-05-13T17:58:12.000Z</time>
      </trkpt>
      <trkpt lat="43.79812" lon="7.26211">
        <ele>474</ele>
        <time>2013-05-13T17:58:13.000Z</time>
      </trkpt>
      <trkpt lat="43.79807" lon="7.26214">
        <ele>471.60000610352</ele>
        <time>2013-05-13T17:58:14.000Z</time>
      </trkpt>
      <trkpt lat="43.79805" lon="7.26214">
        <ele>471.60000610352</ele>
        <time>2013-05-13T17:58:15.000Z</time>
      </trkpt>
      <trkpt lat="43.79803" lon="7.26211">
        <ele>469.20001220703</ele>
        <time>2013-05-13T17:58:16.000Z</time>
      </trkpt>
      <trkpt lat="43.79802" lon="7.26207">
        <ele>468</ele>
        <time>2013-05-13T17:58:17.000Z</time>
      </trkpt>
      <trkpt lat="43.79803" lon="7.26202">
        <ele>466.60000610352</ele>
        <time>2013-05-13T17:58:18.000Z</time>
      </trkpt>
      <trkpt lat="43.79803" lon="7.26197">
        <ele>465.60000610352</ele>
        <time>2013-05-13T17:58:19.000Z</time>
      </trkpt>
      <trkpt lat="43.79801" lon="7.26169">
        <ele>465.60000610352</ele>
        <time>2013-05-13T17:58:25.000Z</time>
      </trkpt>
      <trkpt lat="43.79788" lon="7.26134">
        <ele>465.60000610352</ele>
        <time>2013-05-13T17:58:33.000Z</time>
      </trkpt>
      <trkpt lat="43.79783" lon="7.26121">
        <ele>466</ele>
        <time>2013-05-13T17:58:36.000Z</time>
      </trkpt>
      <trkpt lat="43.79781" lon="7.26117">
        <ele>466.20001220703</ele>
        <time>2013-05-13T17:58:37.000Z</time>
      </trkpt>
      <trkpt lat="43.79779" lon="7.26113">
        <ele>466.60000610352</ele>
        <time>2013-05-13T17:58:38.000Z</time>
      </trkpt>
      <trkpt lat="43.79778" lon="7.26108">
        <ele>467.20001220703</ele>
        <time>2013-05-13T17:58:39.000Z</time>
      </trkpt>
      <trkpt lat="43.79776" lon="7.26104">
        <ele>467.60000610352</ele>
        <time>2013-05-13T17:58:40.000Z</time>
      </trkpt>
      <trkpt lat="43.79764" lon="7.26074">
        <ele>467.60000610352</ele>
        <time>2013-05-13T17:58:46.000Z</time>
      </trkpt>
      <trkpt lat="43.79747" lon="7.26034">
        <ele>467.60000610352</ele>
        <time>2013-05-13T17:58:54.000Z</time>
      </trkpt>
      <trkpt lat="43.79736" lon="7.26003">
        <ele>468</ele>
        <time>2013-05-13T17:59:00.000Z</time>
      </trkpt>
      <trkpt lat="43.79734" lon="7.25998">
        <ele>468.20001220703</ele>
        <time>2013-05-13T17:59:01.000Z</time>
      </trkpt>
      <trkpt lat="43.79732" lon="7.25993">
        <ele>468.60000610352</ele>
        <time>2013-05-13T17:59:02.000Z</time>
      </trkpt>
      <trkpt lat="43.7973" lon="7.25988">
        <ele>469.20001220703</ele>
        <time>2013-05-13T17:59:03.000Z</time>
      </trkpt>
      <trkpt lat="43.79729" lon="7.25983">
        <ele>469.60000610352</ele>
        <time>2013-05-13T17:59:04.000Z</time>
      </trkpt>
      <trkpt lat="43.79716" lon="7.25948">
        <ele>469.60000610352</ele>
        <time>2013-05-13T17:59:11.000Z</time>
      </trkpt>
      <trkpt lat="43.79711" lon="7.25933">
        <ele>469.60000610352</ele>
        <time>2013-05-13T17:59:14.000Z</time>
      </trkpt>
      <trkpt lat="43.7971" lon="7.25927">
        <ele>470</ele>
        <time>2013-05-13T17:59:15.000Z</time>
      </trkpt>
      <trkpt lat="43.79709" lon="7.25922">
        <ele>470.20001220703</ele>
        <time>2013-05-13T17:59:16.000Z</time>
      </trkpt>
      <trkpt lat="43.79708" lon="7.25916">
        <ele>470.60000610352</ele>
        <time>2013-05-13T17:59:17.000Z</time>
      </trkpt>
      <trkpt lat="43.79707" lon="7.25911">
        <ele>471.20001220703</ele>
        <time>2013-05-13T17:59:18.000Z</time>
      </trkpt>
      <trkpt lat="43.79707" lon="7.25905">
        <ele>471.60000610352</ele>
        <time>2013-05-13T17:59:19.000Z</time>
      </trkpt>
      <trkpt lat="43.79706" lon="7.2587">
        <ele>471.60000610352</ele>
        <time>2013-05-13T17:59:25.000Z</time>
      </trkpt>
      <trkpt lat="43.79707" lon="7.25859">
        <ele>472</ele>
        <time>2013-05-13T17:59:27.000Z</time>
      </trkpt>
      <trkpt lat="43.79708" lon="7.25853">
        <ele>472.20001220703</ele>
        <time>2013-05-13T17:59:28.000Z</time>
      </trkpt>
      <trkpt lat="43.79709" lon="7.25848">
        <ele>472.60000610352</ele>
        <time>2013-05-13T17:59:29.000Z</time>
      </trkpt>
      <trkpt lat="43.7971" lon="7.25843">
        <ele>473.60000610352</ele>
        <time>2013-05-13T17:59:30.000Z</time>
      </trkpt>
      <trkpt lat="43.79712" lon="7.25834">
        <ele>473.60000610352</ele>
        <time>2013-05-13T17:59:32.000Z</time>
      </trkpt>
      <trkpt lat="43.79718" lon="7.25808">
        <ele>473.60000610352</ele>
        <time>2013-05-13T17:59:37.000Z</time>
      </trkpt>
      <trkpt lat="43.79721" lon="7.25797">
        <ele>474.20001220703</ele>
        <time>2013-05-13T17:59:39.000Z</time>
      </trkpt>
      <trkpt lat="43.79722" lon="7.25792">
        <ele>474.60000610352</ele>
        <time>2013-05-13T17:59:40.000Z</time>
      </trkpt>
      <trkpt lat="43.79723" lon="7.25787">
        <ele>475</ele>
        <time>2013-05-13T17:59:41.000Z</time>
      </trkpt>
      <trkpt lat="43.79724" lon="7.25782">
        <ele>475.20001220703</ele>
        <time>2013-05-13T17:59:42.000Z</time>
      </trkpt>
      <trkpt lat="43.79725" lon="7.25778">
        <ele>475.60000610352</ele>
        <time>2013-05-13T17:59:43.000Z</time>
      </trkpt>
      <trkpt lat="43.79726" lon="7.25773">
        <ele>475.60000610352</ele>
        <time>2013-05-13T17:59:44.000Z</time>
      </trkpt>
      <trkpt lat="43.7973" lon="7.25754">
        <ele>475.60000610352</ele>
        <time>2013-05-13T17:59:48.000Z</time>
      </trkpt>
      <trkpt lat="43.79738" lon="7.25725">
        <ele>475.60000610352</ele>
        <time>2013-05-13T17:59:53.000Z</time>
      </trkpt>
      <trkpt lat="43.79741" lon="7.25714">
        <ele>475.60000610352</ele>
        <time>2013-05-13T17:59:55.000Z</time>
      </trkpt>
      <trkpt lat="43.79745" lon="7.25696">
        <ele>476.20001220703</ele>
        <time>2013-05-13T17:59:58.000Z</time>
      </trkpt>
      <trkpt lat="43.79746" lon="7.2569">
        <ele>476.60000610352</ele>
        <time>2013-05-13T17:59:59.000Z</time>
      </trkpt>
      <trkpt lat="43.79748" lon="7.25685">
        <ele>477</ele>
        <time>2013-05-13T18:00:00.000Z</time>
      </trkpt>
      <trkpt lat="43.79748" lon="7.2568">
        <ele>477.20001220703</ele>
        <time>2013-05-13T18:00:01.000Z</time>
      </trkpt>
      <trkpt lat="43.79749" lon="7.25674">
        <ele>477.60000610352</ele>
        <time>2013-05-13T18:00:02.000Z</time>
      </trkpt>
      <trkpt lat="43.79749" lon="7.25668">
        <ele>477.60000610352</ele>
        <time>2013-05-13T18:00:03.000Z</time>
      </trkpt>
      <trkpt lat="43.79746" lon="7.25652">
        <ele>477.60000610352</ele>
        <time>2013-05-13T18:00:06.000Z</time>
      </trkpt>
      <trkpt lat="43.79744" lon="7.25646">
        <ele>477.60000610352</ele>
        <time>2013-05-13T18:00:07.000Z</time>
      </trkpt>
      <trkpt lat="43.79731" lon="7.25616">
        <ele>477.60000610352</ele>
        <time>2013-05-13T18:00:13.000Z</time>
      </trkpt>
      <trkpt lat="43.7972" lon="7.25607">
        <ele>477.60000610352</ele>
        <time>2013-05-13T18:00:16.000Z</time>
      </trkpt>
      <trkpt lat="43.79716" lon="7.25606">
        <ele>477.60000610352</ele>
        <time>2013-05-13T18:00:17.000Z</time>
      </trkpt>
      <trkpt lat="43.79702" lon="7.25605">
        <ele>478.20001220703</ele>
        <time>2013-05-13T18:00:20.000Z</time>
      </trkpt>
      <trkpt lat="43.79698" lon="7.25605">
        <ele>478.60000610352</ele>
        <time>2013-05-13T18:00:21.000Z</time>
      </trkpt>
      <trkpt lat="43.79694" lon="7.25607">
        <ele>479</ele>
        <time>2013-05-13T18:00:22.000Z</time>
      </trkpt>
      <trkpt lat="43.79691" lon="7.25609">
        <ele>479.60000610352</ele>
        <time>2013-05-13T18:00:23.000Z</time>
      </trkpt>
      <trkpt lat="43.79687" lon="7.25611">
        <ele>480</ele>
        <time>2013-05-13T18:00:24.000Z</time>
      </trkpt>
      <trkpt lat="43.79683" lon="7.25614">
        <ele>480</ele>
        <time>2013-05-13T18:00:25.000Z</time>
      </trkpt>
      <trkpt lat="43.79665" lon="7.25629">
        <ele>480</ele>
        <time>2013-05-13T18:00:30.000Z</time>
      </trkpt>
      <trkpt lat="43.7965" lon="7.25645">
        <ele>480</ele>
        <time>2013-05-13T18:00:35.000Z</time>
      </trkpt>
      <trkpt lat="43.79647" lon="7.25648">
        <ele>480.20001220703</ele>
        <time>2013-05-13T18:00:36.000Z</time>
      </trkpt>
      <trkpt lat="43.79642" lon="7.25651">
        <ele>480.60000610352</ele>
        <time>2013-05-13T18:00:37.000Z</time>
      </trkpt>
      <trkpt lat="43.79638" lon="7.25655">
        <ele>481.20001220703</ele>
        <time>2013-05-13T18:00:38.000Z</time>
      </trkpt>
      <trkpt lat="43.79634" lon="7.25658">
        <ele>481.60000610352</ele>
        <time>2013-05-13T18:00:39.000Z</time>
      </trkpt>
      <trkpt lat="43.7963" lon="7.25661">
        <ele>482</ele>
        <time>2013-05-13T18:00:40.000Z</time>
      </trkpt>
      <trkpt lat="43.79626" lon="7.25664">
        <ele>482</ele>
        <time>2013-05-13T18:00:41.000Z</time>
      </trkpt>
      <trkpt lat="43.79622" lon="7.25667">
        <ele>482</ele>
        <time>2013-05-13T18:00:42.000Z</time>
      </trkpt>
      <trkpt lat="43.79603" lon="7.25671">
        <ele>482</ele>
        <time>2013-05-13T18:00:46.000Z</time>
      </trkpt>
      <trkpt lat="43.79594" lon="7.25671">
        <ele>482</ele>
        <time>2013-05-13T18:00:48.000Z</time>
      </trkpt>
      <trkpt lat="43.79581" lon="7.25666">
        <ele>482</ele>
        <time>2013-05-13T18:00:51.000Z</time>
      </trkpt>
      <trkpt lat="43.79577" lon="7.25664">
        <ele>482</ele>
        <time>2013-05-13T18:00:52.000Z</time>
      </trkpt>
      <trkpt lat="43.79568" lon="7.25652">
        <ele>482.20001220703</ele>
        <time>2013-05-13T18:00:55.000Z</time>
      </trkpt>
      <trkpt lat="43.79565" lon="7.25647">
        <ele>483</ele>
        <time>2013-05-13T18:00:56.000Z</time>
      </trkpt>
      <trkpt lat="43.79563" lon="7.25642">
        <ele>483.20001220703</ele>
        <time>2013-05-13T18:00:57.000Z</time>
      </trkpt>
      <trkpt lat="43.79561" lon="7.25637">
        <ele>483.60000610352</ele>
        <time>2013-05-13T18:00:58.000Z</time>
      </trkpt>
      <trkpt lat="43.7956" lon="7.25632">
        <ele>484.20001220703</ele>
        <time>2013-05-13T18:00:59.000Z</time>
      </trkpt>
      <trkpt lat="43.79555" lon="7.25615">
        <ele>484.20001220703</ele>
        <time>2013-05-13T18:01:02.000Z</time>
      </trkpt>
      <trkpt lat="43.79544" lon="7.2557">
        <ele>484.20001220703</ele>
        <time>2013-05-13T18:01:10.000Z</time>
      </trkpt>
      <trkpt lat="43.79542" lon="7.25565">
        <ele>484.20001220703</ele>
        <time>2013-05-13T18:01:11.000Z</time>
      </trkpt>
      <trkpt lat="43.7954" lon="7.2556">
        <ele>484.60000610352</ele>
        <time>2013-05-13T18:01:12.000Z</time>
      </trkpt>
      <trkpt lat="43.79538" lon="7.25555">
        <ele>485</ele>
        <time>2013-05-13T18:01:13.000Z</time>
      </trkpt>
      <trkpt lat="43.79536" lon="7.2555">
        <ele>485.20001220703</ele>
        <time>2013-05-13T18:01:14.000Z</time>
      </trkpt>
      <trkpt lat="43.79534" lon="7.25545">
        <ele>485.60000610352</ele>
        <time>2013-05-13T18:01:15.000Z</time>
      </trkpt>
      <trkpt lat="43.79531" lon="7.25541">
        <ele>486.20001220703</ele>
        <time>2013-05-13T18:01:16.000Z</time>
      </trkpt>
      <trkpt lat="43.79518" lon="7.25529">
        <ele>486.20001220703</ele>
        <time>2013-05-13T18:01:20.000Z</time>
      </trkpt>
      <trkpt lat="43.79513" lon="7.25527">
        <ele>486.20001220703</ele>
        <time>2013-05-13T18:01:21.000Z</time>
      </trkpt>
      <trkpt lat="43.795" lon="7.25526">
        <ele>486.20001220703</ele>
        <time>2013-05-13T18:01:24.000Z</time>
      </trkpt>
      <trkpt lat="43.79488" lon="7.25531">
        <ele>486.20001220703</ele>
        <time>2013-05-13T18:01:27.000Z</time>
      </trkpt>
      <trkpt lat="43.79481" lon="7.25536">
        <ele>486.20001220703</ele>
        <time>2013-05-13T18:01:29.000Z</time>
      </trkpt>
      <trkpt lat="43.79466" lon="7.25549">
        <ele>486.20001220703</ele>
        <time>2013-05-13T18:01:34.000Z</time>
      </trkpt>
      <trkpt lat="43.79463" lon="7.25552">
        <ele>486.60000610352</ele>
        <time>2013-05-13T18:01:35.000Z</time>
      </trkpt>
      <trkpt lat="43.79459" lon="7.25554">
        <ele>487</ele>
        <time>2013-05-13T18:01:36.000Z</time>
      </trkpt>
      <trkpt lat="43.79455" lon="7.25556">
        <ele>487.20001220703</ele>
        <time>2013-05-13T18:01:37.000Z</time>
      </trkpt>
      <trkpt lat="43.7945" lon="7.25557">
        <ele>487.60000610352</ele>
        <time>2013-05-13T18:01:38.000Z</time>
      </trkpt>
      <trkpt lat="43.79446" lon="7.25559">
        <ele>488.20001220703</ele>
        <time>2013-05-13T18:01:39.000Z</time>
      </trkpt>
      <trkpt lat="43.79423" lon="7.25559">
        <ele>488.20001220703</ele>
        <time>2013-05-13T18:01:44.000Z</time>
      </trkpt>
      <trkpt lat="43.79415" lon="7.25557">
        <ele>488.20001220703</ele>
        <time>2013-05-13T18:01:46.000Z</time>
      </trkpt>
      <trkpt lat="43.79406" lon="7.25554">
        <ele>488.20001220703</ele>
        <time>2013-05-13T18:01:48.000Z</time>
      </trkpt>
      <trkpt lat="43.79403" lon="7.25552">
        <ele>488.20001220703</ele>
        <time>2013-05-13T18:01:49.000Z</time>
      </trkpt>
      <trkpt lat="43.79393" lon="7.25543">
        <ele>488.60000610352</ele>
        <time>2013-05-13T18:01:52.000Z</time>
      </trkpt>
      <trkpt lat="43.79389" lon="7.25541">
        <ele>489</ele>
        <time>2013-05-13T18:01:53.000Z</time>
      </trkpt>
      <trkpt lat="43.79386" lon="7.25538">
        <ele>489.60000610352</ele>
        <time>2013-05-13T18:01:54.000Z</time>
      </trkpt>
      <trkpt lat="43.79382" lon="7.25535">
        <ele>490</ele>
        <time>2013-05-13T18:01:55.000Z</time>
      </trkpt>
      <trkpt lat="43.79379" lon="7.25533">
        <ele>490.20001220703</ele>
        <time>2013-05-13T18:01:56.000Z</time>
      </trkpt>
      <trkpt lat="43.7936" lon="7.25521">
        <ele>490.20001220703</ele>
        <time>2013-05-13T18:02:01.000Z</time>
      </trkpt>
      <trkpt lat="43.79356" lon="7.25518">
        <ele>490.20001220703</ele>
        <time>2013-05-13T18:02:02.000Z</time>
      </trkpt>
      <trkpt lat="43.79345" lon="7.25509">
        <ele>490.20001220703</ele>
        <time>2013-05-13T18:02:05.000Z</time>
      </trkpt>
      <trkpt lat="43.79339" lon="7.25501">
        <ele>490.20001220703</ele>
        <time>2013-05-13T18:02:07.000Z</time>
      </trkpt>
      <trkpt lat="43.79335" lon="7.25497">
        <ele>490.60000610352</ele>
        <time>2013-05-13T18:02:08.000Z</time>
      </trkpt>
      <trkpt lat="43.79332" lon="7.25492">
        <ele>491.20001220703</ele>
        <time>2013-05-13T18:02:09.000Z</time>
      </trkpt>
      <trkpt lat="43.79329" lon="7.25488">
        <ele>491.60000610352</ele>
        <time>2013-05-13T18:02:10.000Z</time>
      </trkpt>
      <trkpt lat="43.79326" lon="7.25483">
        <ele>492</ele>
        <time>2013-05-13T18:02:11.000Z</time>
      </trkpt>
      <trkpt lat="43.79324" lon="7.25479">
        <ele>492.20001220703</ele>
        <time>2013-05-13T18:02:12.000Z</time>
      </trkpt>
      <trkpt lat="43.79319" lon="7.2547">
        <ele>492.20001220703</ele>
        <time>2013-05-13T18:02:14.000Z</time>
      </trkpt>
      <trkpt lat="43.79313" lon="7.25449">
        <ele>492.20001220703</ele>
        <time>2013-05-13T18:02:18.000Z</time>
      </trkpt>
      <trkpt lat="43.7931" lon="7.2543">
        <ele>492.60000610352</ele>
        <time>2013-05-13T18:02:22.000Z</time>
      </trkpt>
      <trkpt lat="43.7931" lon="7.25425">
        <ele>493.60000610352</ele>
        <time>2013-05-13T18:02:23.000Z</time>
      </trkpt>
      <trkpt lat="43.7931" lon="7.25419">
        <ele>494</ele>
        <time>2013-05-13T18:02:24.000Z</time>
      </trkpt>
      <trkpt lat="43.79309" lon="7.25414">
        <ele>494.20001220703</ele>
        <time>2013-05-13T18:02:25.000Z</time>
      </trkpt>
      <trkpt lat="43.79308" lon="7.25391">
        <ele>494.20001220703</ele>
        <time>2013-05-13T18:02:29.000Z</time>
      </trkpt>
      <trkpt lat="43.79305" lon="7.2535">
        <ele>494.20001220703</ele>
        <time>2013-05-13T18:02:36.000Z</time>
      </trkpt>
      <trkpt lat="43.79304" lon="7.25345">
        <ele>494.60000610352</ele>
        <time>2013-05-13T18:02:37.000Z</time>
      </trkpt>
      <trkpt lat="43.79302" lon="7.25339">
        <ele>495.20001220703</ele>
        <time>2013-05-13T18:02:38.000Z</time>
      </trkpt>
      <trkpt lat="43.793" lon="7.25334">
        <ele>495.60000610352</ele>
        <time>2013-05-13T18:02:39.000Z</time>
      </trkpt>
      <trkpt lat="43.79298" lon="7.25329">
        <ele>496.20001220703</ele>
        <time>2013-05-13T18:02:40.000Z</time>
      </trkpt>
      <trkpt lat="43.79295" lon="7.25324">
        <ele>496.60000610352</ele>
        <time>2013-05-13T18:02:41.000Z</time>
      </trkpt>
      <trkpt lat="43.79288" lon="7.25317">
        <ele>496.60000610352</ele>
        <time>2013-05-13T18:02:43.000Z</time>
      </trkpt>
      <trkpt lat="43.7928" lon="7.25311">
        <ele>496.60000610352</ele>
        <time>2013-05-13T18:02:45.000Z</time>
      </trkpt>
      <trkpt lat="43.79276" lon="7.25309">
        <ele>496.60000610352</ele>
        <time>2013-05-13T18:02:46.000Z</time>
      </trkpt>
      <trkpt lat="43.79263" lon="7.25309">
        <ele>496.60000610352</ele>
        <time>2013-05-13T18:02:49.000Z</time>
      </trkpt>
      <trkpt lat="43.79258" lon="7.25309">
        <ele>496.60000610352</ele>
        <time>2013-05-13T18:02:50.000Z</time>
      </trkpt>
      <trkpt lat="43.7925" lon="7.25312">
        <ele>497</ele>
        <time>2013-05-13T18:02:52.000Z</time>
      </trkpt>
      <trkpt lat="43.79246" lon="7.25313">
        <ele>497.20001220703</ele>
        <time>2013-05-13T18:02:53.000Z</time>
      </trkpt>
      <trkpt lat="43.79241" lon="7.25315">
        <ele>497.60000610352</ele>
        <time>2013-05-13T18:02:54.000Z</time>
      </trkpt>
      <trkpt lat="43.79237" lon="7.25317">
        <ele>498.20001220703</ele>
        <time>2013-05-13T18:02:55.000Z</time>
      </trkpt>
      <trkpt lat="43.79233" lon="7.25319">
        <ele>498.60000610352</ele>
        <time>2013-05-13T18:02:56.000Z</time>
      </trkpt>
      <trkpt lat="43.79221" lon="7.25325">
        <ele>498.60000610352</ele>
        <time>2013-05-13T18:02:59.000Z</time>
      </trkpt>
      <trkpt lat="43.79205" lon="7.25334">
        <ele>498.60000610352</ele>
        <time>2013-05-13T18:03:03.000Z</time>
      </trkpt>
      <trkpt lat="43.79189" lon="7.25342">
        <ele>499.20001220703</ele>
        <time>2013-05-13T18:03:07.000Z</time>
      </trkpt>
      <trkpt lat="43.79185" lon="7.25344">
        <ele>499.60000610352</ele>
        <time>2013-05-13T18:03:08.000Z</time>
      </trkpt>
      <trkpt lat="43.79181" lon="7.25345">
        <ele>500</ele>
        <time>2013-05-13T18:03:09.000Z</time>
      </trkpt>
      <trkpt lat="43.79178" lon="7.25347">
        <ele>500.20001220703</ele>
        <time>2013-05-13T18:03:10.000Z</time>
      </trkpt>
      <trkpt lat="43.79174" lon="7.25349">
        <ele>500.60000610352</ele>
        <time>2013-05-13T18:03:11.000Z</time>
      </trkpt>
      <trkpt lat="43.79159" lon="7.25357">
        <ele>500.60000610352</ele>
        <time>2013-05-13T18:03:15.000Z</time>
      </trkpt>
      <trkpt lat="43.79151" lon="7.25362">
        <ele>500.60000610352</ele>
        <time>2013-05-13T18:03:17.000Z</time>
      </trkpt>
      <trkpt lat="43.79139" lon="7.25366">
        <ele>500.60000610352</ele>
        <time>2013-05-13T18:03:20.000Z</time>
      </trkpt>
      <trkpt lat="43.79127" lon="7.2537">
        <ele>501.20001220703</ele>
        <time>2013-05-13T18:03:23.000Z</time>
      </trkpt>
      <trkpt lat="43.79123" lon="7.25371">
        <ele>501.60000610352</ele>
        <time>2013-05-13T18:03:24.000Z</time>
      </trkpt>
      <trkpt lat="43.79119" lon="7.25372">
        <ele>502</ele>
        <time>2013-05-13T18:03:25.000Z</time>
      </trkpt>
      <trkpt lat="43.79115" lon="7.25373">
        <ele>502.20001220703</ele>
        <time>2013-05-13T18:03:26.000Z</time>
      </trkpt>
      <trkpt lat="43.79111" lon="7.25373">
        <ele>502.60000610352</ele>
        <time>2013-05-13T18:03:27.000Z</time>
      </trkpt>
      <trkpt lat="43.79106" lon="7.25373">
        <ele>502.60000610352</ele>
        <time>2013-05-13T18:03:28.000Z</time>
      </trkpt>
      <trkpt lat="43.79075" lon="7.25375">
        <ele>502.60000610352</ele>
        <time>2013-05-13T18:03:35.000Z</time>
      </trkpt>
      <trkpt lat="43.79053" lon="7.25375">
        <ele>503.20001220703</ele>
        <time>2013-05-13T18:03:40.000Z</time>
      </trkpt>
      <trkpt lat="43.79049" lon="7.25375">
        <ele>503.60000610352</ele>
        <time>2013-05-13T18:03:41.000Z</time>
      </trkpt>
      <trkpt lat="43.79044" lon="7.25375">
        <ele>504</ele>
        <time>2013-05-13T18:03:42.000Z</time>
      </trkpt>
      <trkpt lat="43.79039" lon="7.25375">
        <ele>504.60000610352</ele>
        <time>2013-05-13T18:03:43.000Z</time>
      </trkpt>
      <trkpt lat="43.79035" lon="7.25374">
        <ele>505</ele>
        <time>2013-05-13T18:03:44.000Z</time>
      </trkpt>
      <trkpt lat="43.79004" lon="7.25371">
        <ele>505</ele>
        <time>2013-05-13T18:03:51.000Z</time>
      </trkpt>
      <trkpt lat="43.79" lon="7.25371">
        <ele>505.20001220703</ele>
        <time>2013-05-13T18:03:52.000Z</time>
      </trkpt>
      <trkpt lat="43.78996" lon="7.2537">
        <ele>505.60000610352</ele>
        <time>2013-05-13T18:03:53.000Z</time>
      </trkpt>
      <trkpt lat="43.78992" lon="7.25369">
        <ele>506.20001220703</ele>
        <time>2013-05-13T18:03:54.000Z</time>
      </trkpt>
      <trkpt lat="43.78988" lon="7.25368">
        <ele>506.60000610352</ele>
        <time>2013-05-13T18:03:55.000Z</time>
      </trkpt>
      <trkpt lat="43.78983" lon="7.25367">
        <ele>507</ele>
        <time>2013-05-13T18:03:56.000Z</time>
      </trkpt>
      <trkpt lat="43.78975" lon="7.25363">
        <ele>507</ele>
        <time>2013-05-13T18:03:58.000Z</time>
      </trkpt>
      <trkpt lat="43.78963" lon="7.25356">
        <ele>507</ele>
        <time>2013-05-13T18:04:01.000Z</time>
      </trkpt>
      <trkpt lat="43.78952" lon="7.25347">
        <ele>507</ele>
        <time>2013-05-13T18:04:04.000Z</time>
      </trkpt>
      <trkpt lat="43.78949" lon="7.25343">
        <ele>507</ele>
        <time>2013-05-13T18:04:05.000Z</time>
      </trkpt>
      <trkpt lat="43.78939" lon="7.25325">
        <ele>507.20001220703</ele>
        <time>2013-05-13T18:04:09.000Z</time>
      </trkpt>
      <trkpt lat="43.78937" lon="7.2532">
        <ele>507.60000610352</ele>
        <time>2013-05-13T18:04:10.000Z</time>
      </trkpt>
      <trkpt lat="43.78935" lon="7.25315">
        <ele>508.20001220703</ele>
        <time>2013-05-13T18:04:11.000Z</time>
      </trkpt>
      <trkpt lat="43.78933" lon="7.2531">
        <ele>508.60000610352</ele>
        <time>2013-05-13T18:04:12.000Z</time>
      </trkpt>
      <trkpt lat="43.78931" lon="7.25305">
        <ele>509</ele>
        <time>2013-05-13T18:04:13.000Z</time>
      </trkpt>
      <trkpt lat="43.78922" lon="7.25281">
        <ele>509</ele>
        <time>2013-05-13T18:04:18.000Z</time>
      </trkpt>
      <trkpt lat="43.7891" lon="7.2526">
        <ele>509.20001220703</ele>
        <time>2013-05-13T18:04:23.000Z</time>
      </trkpt>
      <trkpt lat="43.78907" lon="7.25257">
        <ele>509.60000610352</ele>
        <time>2013-05-13T18:04:24.000Z</time>
      </trkpt>
      <trkpt lat="43.78904" lon="7.25253">
        <ele>510.20001220703</ele>
        <time>2013-05-13T18:04:25.000Z</time>
      </trkpt>
      <trkpt lat="43.789" lon="7.25251">
        <ele>510.60000610352</ele>
        <time>2013-05-13T18:04:26.000Z</time>
      </trkpt>
      <trkpt lat="43.78896" lon="7.25248">
        <ele>511</ele>
        <time>2013-05-13T18:04:27.000Z</time>
      </trkpt>
      <trkpt lat="43.78887" lon="7.25244">
        <ele>511</ele>
        <time>2013-05-13T18:04:29.000Z</time>
      </trkpt>
      <trkpt lat="43.78883" lon="7.25243">
        <ele>511</ele>
        <time>2013-05-13T18:04:30.000Z</time>
      </trkpt>
      <trkpt lat="43.78867" lon="7.25243">
        <ele>511</ele>
        <time>2013-05-13T18:04:34.000Z</time>
      </trkpt>
      <trkpt lat="43.78845" lon="7.25241">
        <ele>511.20001220703</ele>
        <time>2013-05-13T18:04:39.000Z</time>
      </trkpt>
      <trkpt lat="43.78841" lon="7.25241">
        <ele>512</ele>
        <time>2013-05-13T18:04:40.000Z</time>
      </trkpt>
      <trkpt lat="43.78837" lon="7.25239">
        <ele>512.40002441406</ele>
        <time>2013-05-13T18:04:41.000Z</time>
      </trkpt>
      <trkpt lat="43.78833" lon="7.25237">
        <ele>512.59997558594</ele>
        <time>2013-05-13T18:04:42.000Z</time>
      </trkpt>
      <trkpt lat="43.7883" lon="7.25235">
        <ele>513.20001220703</ele>
        <time>2013-05-13T18:04:43.000Z</time>
      </trkpt>
      <trkpt lat="43.78822" lon="7.25231">
        <ele>513.20001220703</ele>
        <time>2013-05-13T18:04:45.000Z</time>
      </trkpt>
      <trkpt lat="43.78819" lon="7.25228">
        <ele>513.20001220703</ele>
        <time>2013-05-13T18:04:46.000Z</time>
      </trkpt>
      <trkpt lat="43.78795" lon="7.25213">
        <ele>513.20001220703</ele>
        <time>2013-05-13T18:04:52.000Z</time>
      </trkpt>
      <trkpt lat="43.78791" lon="7.25212">
        <ele>513.40002441406</ele>
        <time>2013-05-13T18:04:53.000Z</time>
      </trkpt>
      <trkpt lat="43.78787" lon="7.25211">
        <ele>514</ele>
        <time>2013-05-13T18:04:54.000Z</time>
      </trkpt>
      <trkpt lat="43.78782" lon="7.2521">
        <ele>514.40002441406</ele>
        <time>2013-05-13T18:04:55.000Z</time>
      </trkpt>
      <trkpt lat="43.78777" lon="7.25211">
        <ele>514.59997558594</ele>
        <time>2013-05-13T18:04:56.000Z</time>
      </trkpt>
      <trkpt lat="43.78772" lon="7.25211">
        <ele>515.20001220703</ele>
        <time>2013-05-13T18:04:57.000Z</time>
      </trkpt>
      <trkpt lat="43.78768" lon="7.25213">
        <ele>515.20001220703</ele>
        <time>2013-05-13T18:04:58.000Z</time>
      </trkpt>
      <trkpt lat="43.78745" lon="7.25229">
        <ele>515.20001220703</ele>
        <time>2013-05-13T18:05:04.000Z</time>
      </trkpt>
      <trkpt lat="43.78726" lon="7.25245">
        <ele>515.40002441406</ele>
        <time>2013-05-13T18:05:09.000Z</time>
      </trkpt>
      <trkpt lat="43.78723" lon="7.25249">
        <ele>516</ele>
        <time>2013-05-13T18:05:10.000Z</time>
      </trkpt>
      <trkpt lat="43.78719" lon="7.25252">
        <ele>516.40002441406</ele>
        <time>2013-05-13T18:05:11.000Z</time>
      </trkpt>
      <trkpt lat="43.78714" lon="7.25255">
        <ele>516.59997558594</ele>
        <time>2013-05-13T18:05:12.000Z</time>
      </trkpt>
      <trkpt lat="43.7871" lon="7.25259">
        <ele>517.20001220703</ele>
        <time>2013-05-13T18:05:13.000Z</time>
      </trkpt>
      <trkpt lat="43.78698" lon="7.25265">
        <ele>517.20001220703</ele>
        <time>2013-05-13T18:05:16.000Z</time>
      </trkpt>
      <trkpt lat="43.78687" lon="7.25267">
        <ele>517.20001220703</ele>
        <time>2013-05-13T18:05:19.000Z</time>
      </trkpt>
      <trkpt lat="43.78679" lon="7.25267">
        <ele>517.20001220703</ele>
        <time>2013-05-13T18:05:21.000Z</time>
      </trkpt>
      <trkpt lat="43.78674" lon="7.25267">
        <ele>517.20001220703</ele>
        <time>2013-05-13T18:05:22.000Z</time>
      </trkpt>
      <trkpt lat="43.7867" lon="7.25267">
        <ele>517.59997558594</ele>
        <time>2013-05-13T18:05:23.000Z</time>
      </trkpt>
      <trkpt lat="43.78665" lon="7.25267">
        <ele>518.20001220703</ele>
        <time>2013-05-13T18:05:24.000Z</time>
      </trkpt>
      <trkpt lat="43.78661" lon="7.25266">
        <ele>518.40002441406</ele>
        <time>2013-05-13T18:05:25.000Z</time>
      </trkpt>
      <trkpt lat="43.78657" lon="7.25265">
        <ele>519</ele>
        <time>2013-05-13T18:05:26.000Z</time>
      </trkpt>
      <trkpt lat="43.78652" lon="7.25264">
        <ele>519.40002441406</ele>
        <time>2013-05-13T18:05:27.000Z</time>
      </trkpt>
      <trkpt lat="43.78626" lon="7.25258">
        <ele>519.40002441406</ele>
        <time>2013-05-13T18:05:33.000Z</time>
      </trkpt>
      <trkpt lat="43.78606" lon="7.2526">
        <ele>519.40002441406</ele>
        <time>2013-05-13T18:05:38.000Z</time>
      </trkpt>
      <trkpt lat="43.78602" lon="7.2526">
        <ele>519.59997558594</ele>
        <time>2013-05-13T18:05:39.000Z</time>
      </trkpt>
      <trkpt lat="43.78598" lon="7.2526">
        <ele>520.20001220703</ele>
        <time>2013-05-13T18:05:40.000Z</time>
      </trkpt>
      <trkpt lat="43.78594" lon="7.2526">
        <ele>521</ele>
        <time>2013-05-13T18:05:41.000Z</time>
      </trkpt>
      <trkpt lat="43.7859" lon="7.25261">
        <ele>521.40002441406</ele>
        <time>2013-05-13T18:05:42.000Z</time>
      </trkpt>
      <trkpt lat="43.78581" lon="7.25262">
        <ele>521.40002441406</ele>
        <time>2013-05-13T18:05:44.000Z</time>
      </trkpt>
      <trkpt lat="43.78577" lon="7.25263">
        <ele>521.40002441406</ele>
        <time>2013-05-13T18:05:45.000Z</time>
      </trkpt>
      <trkpt lat="43.7856" lon="7.25264">
        <ele>521.40002441406</ele>
        <time>2013-05-13T18:05:49.000Z</time>
      </trkpt>
      <trkpt lat="43.78533" lon="7.25265">
        <ele>522</ele>
        <time>2013-05-13T18:05:55.000Z</time>
      </trkpt>
      <trkpt lat="43.78528" lon="7.25266">
        <ele>522.40002441406</ele>
        <time>2013-05-13T18:05:56.000Z</time>
      </trkpt>
      <trkpt lat="43.78524" lon="7.25266">
        <ele>522.59997558594</ele>
        <time>2013-05-13T18:05:57.000Z</time>
      </trkpt>
      <trkpt lat="43.78519" lon="7.25267">
        <ele>523.20001220703</ele>
        <time>2013-05-13T18:05:58.000Z</time>
      </trkpt>
      <trkpt lat="43.78515" lon="7.25268">
        <ele>523.40002441406</ele>
        <time>2013-05-13T18:05:59.000Z</time>
      </trkpt>
      <trkpt lat="43.78505" lon="7.2527">
        <ele>523.40002441406</ele>
        <time>2013-05-13T18:06:01.000Z</time>
      </trkpt>
      <trkpt lat="43.78479" lon="7.25275">
        <ele>523.40002441406</ele>
        <time>2013-05-13T18:06:07.000Z</time>
      </trkpt>
      <trkpt lat="43.78464" lon="7.2528">
        <ele>524</ele>
        <time>2013-05-13T18:06:11.000Z</time>
      </trkpt>
      <trkpt lat="43.78461" lon="7.25281">
        <ele>524.40002441406</ele>
        <time>2013-05-13T18:06:12.000Z</time>
      </trkpt>
      <trkpt lat="43.78458" lon="7.25282">
        <ele>524.59997558594</ele>
        <time>2013-05-13T18:06:13.000Z</time>
      </trkpt>
      <trkpt lat="43.78454" lon="7.25284">
        <ele>525.20001220703</ele>
        <time>2013-05-13T18:06:14.000Z</time>
      </trkpt>
      <trkpt lat="43.78449" lon="7.25285">
        <ele>525.59997558594</ele>
        <time>2013-05-13T18:06:15.000Z</time>
      </trkpt>
      <trkpt lat="43.78442" lon="7.25289">
        <ele>525.59997558594</ele>
        <time>2013-05-13T18:06:17.000Z</time>
      </trkpt>
      <trkpt lat="43.78415" lon="7.253">
        <ele>525.59997558594</ele>
        <time>2013-05-13T18:06:23.000Z</time>
      </trkpt>
      <trkpt lat="43.78407" lon="7.25303">
        <ele>526.20001220703</ele>
        <time>2013-05-13T18:06:25.000Z</time>
      </trkpt>
      <trkpt lat="43.78402" lon="7.25305">
        <ele>526.40002441406</ele>
        <time>2013-05-13T18:06:26.000Z</time>
      </trkpt>
      <trkpt lat="43.78398" lon="7.25307">
        <ele>527</ele>
        <time>2013-05-13T18:06:27.000Z</time>
      </trkpt>
      <trkpt lat="43.78394" lon="7.25309">
        <ele>527.40002441406</ele>
        <time>2013-05-13T18:06:28.000Z</time>
      </trkpt>
      <trkpt lat="43.7839" lon="7.25311">
        <ele>527.59997558594</ele>
        <time>2013-05-13T18:06:29.000Z</time>
      </trkpt>
      <trkpt lat="43.78386" lon="7.25313">
        <ele>527.59997558594</ele>
        <time>2013-05-13T18:06:30.000Z</time>
      </trkpt>
      <trkpt lat="43.78362" lon="7.25326">
        <ele>527.59997558594</ele>
        <time>2013-05-13T18:06:36.000Z</time>
      </trkpt>
      <trkpt lat="43.78358" lon="7.25328">
        <ele>527.59997558594</ele>
        <time>2013-05-13T18:06:37.000Z</time>
      </trkpt>
      <trkpt lat="43.78348" lon="7.25336">
        <ele>528.20001220703</ele>
        <time>2013-05-13T18:06:40.000Z</time>
      </trkpt>
      <trkpt lat="43.78344" lon="7.25338">
        <ele>528.40002441406</ele>
        <time>2013-05-13T18:06:41.000Z</time>
      </trkpt>
      <trkpt lat="43.7834" lon="7.25341">
        <ele>529</ele>
        <time>2013-05-13T18:06:42.000Z</time>
      </trkpt>
      <trkpt lat="43.78336" lon="7.25343">
        <ele>529.40002441406</ele>
        <time>2013-05-13T18:06:43.000Z</time>
      </trkpt>
      <trkpt lat="43.78332" lon="7.25346">
        <ele>530</ele>
        <time>2013-05-13T18:06:44.000Z</time>
      </trkpt>
      <trkpt lat="43.78317" lon="7.25358">
        <ele>530</ele>
        <time>2013-05-13T18:06:48.000Z</time>
      </trkpt>
      <trkpt lat="43.78288" lon="7.25382">
        <ele>530.40002441406</ele>
        <time>2013-05-13T18:06:56.000Z</time>
      </trkpt>
      <trkpt lat="43.78284" lon="7.25385">
        <ele>530.59997558594</ele>
        <time>2013-05-13T18:06:57.000Z</time>
      </trkpt>
      <trkpt lat="43.78281" lon="7.25388">
        <ele>531.20001220703</ele>
        <time>2013-05-13T18:06:58.000Z</time>
      </trkpt>
      <trkpt lat="43.78277" lon="7.25391">
        <ele>531.40002441406</ele>
        <time>2013-05-13T18:06:59.000Z</time>
      </trkpt>
      <trkpt lat="43.78274" lon="7.25394">
        <ele>532</ele>
        <time>2013-05-13T18:07:00.000Z</time>
      </trkpt>
      <trkpt lat="43.78267" lon="7.25399">
        <ele>532</ele>
        <time>2013-05-13T18:07:02.000Z</time>
      </trkpt>
      <trkpt lat="43.78255" lon="7.25405">
        <ele>532</ele>
        <time>2013-05-13T18:07:05.000Z</time>
      </trkpt>
      <trkpt lat="43.78243" lon="7.25405">
        <ele>532</ele>
        <time>2013-05-13T18:07:08.000Z</time>
      </trkpt>
      <trkpt lat="43.78235" lon="7.25402">
        <ele>532.40002441406</ele>
        <time>2013-05-13T18:07:10.000Z</time>
      </trkpt>
      <trkpt lat="43.78232" lon="7.25399">
        <ele>532.59997558594</ele>
        <time>2013-05-13T18:07:11.000Z</time>
      </trkpt>
      <trkpt lat="43.78228" lon="7.25396">
        <ele>533.20001220703</ele>
        <time>2013-05-13T18:07:12.000Z</time>
      </trkpt>
      <trkpt lat="43.78225" lon="7.25391">
        <ele>533.40002441406</ele>
        <time>2013-05-13T18:07:13.000Z</time>
      </trkpt>
      <trkpt lat="43.78222" lon="7.25386">
        <ele>534</ele>
        <time>2013-05-13T18:07:14.000Z</time>
      </trkpt>
      <trkpt lat="43.78218" lon="7.25375">
        <ele>534</ele>
        <time>2013-05-13T18:07:16.000Z</time>
      </trkpt>
      <trkpt lat="43.78216" lon="7.2537">
        <ele>534</ele>
        <time>2013-05-13T18:07:17.000Z</time>
      </trkpt>
      <trkpt lat="43.78211" lon="7.25346">
        <ele>534</ele>
        <time>2013-05-13T18:07:21.000Z</time>
      </trkpt>
      <trkpt lat="43.78209" lon="7.25335">
        <ele>534</ele>
        <time>2013-05-13T18:07:23.000Z</time>
      </trkpt>
      <trkpt lat="43.78208" lon="7.25325">
        <ele>534.40002441406</ele>
        <time>2013-05-13T18:07:25.000Z</time>
      </trkpt>
      <trkpt lat="43.78208" lon="7.2532">
        <ele>534.59997558594</ele>
        <time>2013-05-13T18:07:26.000Z</time>
      </trkpt>
      <trkpt lat="43.78207" lon="7.25314">
        <ele>535.20001220703</ele>
        <time>2013-05-13T18:07:27.000Z</time>
      </trkpt>
      <trkpt lat="43.78206" lon="7.25309">
        <ele>535.40002441406</ele>
        <time>2013-05-13T18:07:28.000Z</time>
      </trkpt>
      <trkpt lat="43.78206" lon="7.25303">
        <ele>536</ele>
        <time>2013-05-13T18:07:29.000Z</time>
      </trkpt>
      <trkpt lat="43.78206" lon="7.25271">
        <ele>536</ele>
        <time>2013-05-13T18:07:35.000Z</time>
      </trkpt>
      <trkpt lat="43.78215" lon="7.25244">
        <ele>536</ele>
        <time>2013-05-13T18:07:40.000Z</time>
      </trkpt>
      <trkpt lat="43.78217" lon="7.25239">
        <ele>536</ele>
        <time>2013-05-13T18:07:41.000Z</time>
      </trkpt>
      <trkpt lat="43.78237" lon="7.25209">
        <ele>536</ele>
        <time>2013-05-13T18:07:47.000Z</time>
      </trkpt>
      <trkpt lat="43.78257" lon="7.25184">
        <ele>536</ele>
        <time>2013-05-13T18:07:53.000Z</time>
      </trkpt>
      <trkpt lat="43.78259" lon="7.25183">
        <ele>535.40002441406</ele>
        <time>2013-05-13T18:07:54.000Z</time>
      </trkpt>
      <trkpt lat="43.78262" lon="7.25182">
        <ele>535.20001220703</ele>
        <time>2013-05-13T18:07:55.000Z</time>
      </trkpt>
      <trkpt lat="43.78263" lon="7.25183">
        <ele>534.59997558594</ele>
        <time>2013-05-13T18:07:56.000Z</time>
      </trkpt>
      <trkpt lat="43.78264" lon="7.25184">
        <ele>534.20001220703</ele>
        <time>2013-05-13T18:07:57.000Z</time>
      </trkpt>
      <trkpt lat="43.78264" lon="7.25184">
        <ele>533.59997558594</ele>
        <time>2013-05-13T18:07:58.000Z</time>
      </trkpt>
      <trkpt lat="43.78264" lon="7.25184">
        <ele>533.59997558594</ele>
        <time>2013-05-13T18:08:02.000Z</time>
      </trkpt>
      <trkpt lat="43.78265" lon="7.25184">
        <ele>533.59997558594</ele>
        <time>2013-05-13T18:08:07.000Z</time>
      </trkpt>
      <trkpt lat="43.78263" lon="7.25183">
        <ele>533.59997558594</ele>
        <time>2013-05-13T18:08:14.000Z</time>
      </trkpt>
      <trkpt lat="43.78257" lon="7.25182">
        <ele>533.59997558594</ele>
        <time>2013-05-13T18:08:28.000Z</time>
      </trkpt>
      <trkpt lat="43.78256" lon="7.25182">
        <ele>533.59997558594</ele>
        <time>2013-05-13T18:08:43.000Z</time>
      </trkpt>
      <trkpt lat="43.78256" lon="7.25182">
        <ele>533.59997558594</ele>
        <time>2013-05-13T18:08:59.000Z</time>
      </trkpt>
      <trkpt lat="43.78256" lon="7.25181">
        <ele>533.59997558594</ele>
        <time>2013-05-13T18:09:16.000Z</time>
      </trkpt>
      <trkpt lat="43.78256" lon="7.25181">
        <ele>533.59997558594</ele>
        <time>2013-05-13T18:09:32.000Z</time>
      </trkpt>
      <trkpt lat="43.78256" lon="7.25181">
        <ele>533.59997558594</ele>
        <time>2013-05-13T18:09:49.000Z</time>
      </trkpt>
      <trkpt lat="43.78256" lon="7.25182">
        <ele>533.59997558594</ele>
        <time>2013-05-13T18:10:03.000Z</time>
      </trkpt>
      <trkpt lat="43.78256" lon="7.25182">
        <ele>533.59997558594</ele>
        <time>2013-05-13T18:10:21.000Z</time>
      </trkpt>
      <trkpt lat="43.78256" lon="7.25182">
        <ele>533.59997558594</ele>
        <time>2013-05-13T18:10:27.000Z</time>
      </trkpt>
      <trkpt lat="43.78256" lon="7.25181">
        <ele>533.59997558594</ele>
        <time>2013-05-13T18:10:34.000Z</time>
      </trkpt>
      <trkpt lat="43.78256" lon="7.25181">
        <ele>533.59997558594</ele>
        <time>2013-05-13T18:10:49.000Z</time>
      </trkpt>
      <trkpt lat="43.78255" lon="7.25182">
        <ele>533.59997558594</ele>
        <time>2013-05-13T18:11:04.000Z</time>
      </trkpt>
      <trkpt lat="43.78252" lon="7.25181">
        <ele>533.59997558594</ele>
        <time>2013-05-13T18:11:18.000Z</time>
      </trkpt>
      <trkpt lat="43.78252" lon="7.25181">
        <ele>533.59997558594</ele>
        <time>2013-05-13T18:11:32.000Z</time>
      </trkpt>
      <trkpt lat="43.7825" lon="7.25181">
        <ele>533.59997558594</ele>
        <time>2013-05-13T18:11:44.000Z</time>
      </trkpt>
      <trkpt lat="43.7825" lon="7.25181">
        <ele>533.59997558594</ele>
        <time>2013-05-13T18:11:55.000Z</time>
      </trkpt>
      <trkpt lat="43.78249" lon="7.25181">
        <ele>533.59997558594</ele>
        <time>2013-05-13T18:12:06.000Z</time>
      </trkpt>
      <trkpt lat="43.78249" lon="7.25181">
        <ele>533.59997558594</ele>
        <time>2013-05-13T18:12:17.000Z</time>
      </trkpt>
      <trkpt lat="43.78249" lon="7.25181">
        <ele>533.59997558594</ele>
        <time>2013-05-13T18:12:29.000Z</time>
      </trkpt>
      <trkpt lat="43.78249" lon="7.25181">
        <ele>533.59997558594</ele>
        <time>2013-05-13T18:12:36.000Z</time>
      </trkpt>
      <trkpt lat="43.78249" lon="7.25181">
        <ele>533.59997558594</ele>
        <time>2013-05-13T18:12:40.000Z</time>
      </trkpt>
      <trkpt lat="43.78257" lon="7.25185">
        <ele>533.59997558594</ele>
        <time>2013-05-13T18:12:45.000Z</time>
      </trkpt>
      <trkpt lat="43.78258" lon="7.25186">
        <ele>533.59997558594</ele>
        <time>2013-05-13T18:12:54.000Z</time>
      </trkpt>
      <trkpt lat="43.78264" lon="7.25189">
        <ele>533.59997558594</ele>
        <time>2013-05-13T18:13:00.000Z</time>
      </trkpt>
      <trkpt lat="43.78264" lon="7.25189">
        <ele>533.59997558594</ele>
        <time>2013-05-13T18:13:10.000Z</time>
      </trkpt>
      <trkpt lat="43.78264" lon="7.25189">
        <ele>533.59997558594</ele>
        <time>2013-05-13T18:13:25.000Z</time>
      </trkpt>
      <trkpt lat="43.78264" lon="7.25189">
        <ele>533.59997558594</ele>
        <time>2013-05-13T18:13:37.000Z</time>
      </trkpt>
      <trkpt lat="43.78265" lon="7.25188">
        <ele>533.59997558594</ele>
        <time>2013-05-13T18:13:49.000Z</time>
      </trkpt>
      <trkpt lat="43.78262" lon="7.25188">
        <ele>533.59997558594</ele>
        <time>2013-05-13T18:13:53.000Z</time>
      </trkpt>
      <trkpt lat="43.78261" lon="7.25185">
        <ele>533.59997558594</ele>
        <time>2013-05-13T18:13:58.000Z</time>
      </trkpt>
      <trkpt lat="43.78261" lon="7.25185">
        <ele>533.59997558594</ele>
        <time>2013-05-13T18:14:10.000Z</time>
      </trkpt>
      <trkpt lat="43.78261" lon="7.25186">
        <ele>533.59997558594</ele>
        <time>2013-05-13T18:14:17.000Z</time>
      </trkpt>
      <trkpt lat="43.78261" lon="7.25185">
        <ele>533.59997558594</ele>
        <time>2013-05-13T18:14:22.000Z</time>
      </trkpt>
      <trkpt lat="43.78261" lon="7.25185">
        <ele>533.59997558594</ele>
        <time>2013-05-13T18:14:31.000Z</time>
      </trkpt>
      <trkpt lat="43.78261" lon="7.25185">
        <ele>533.59997558594</ele>
        <time>2013-05-13T18:14:36.000Z</time>
      </trkpt>
      <trkpt lat="43.78261" lon="7.25185">
        <ele>533.59997558594</ele>
        <time>2013-05-13T18:14:44.000Z</time>
      </trkpt>
      <trkpt lat="43.78261" lon="7.25185">
        <ele>533.59997558594</ele>
        <time>2013-05-13T18:14:47.000Z</time>
      </trkpt>
      <trkpt lat="43.78261" lon="7.25185">
        <ele>533.59997558594</ele>
        <time>2013-05-13T18:14:53.000Z</time>
      </trkpt>
      <trkpt lat="43.78261" lon="7.25185">
        <ele>533.59997558594</ele>
        <time>2013-05-13T18:15:00.000Z</time>
      </trkpt>
      <trkpt lat="43.7826" lon="7.25187">
        <ele>533.59997558594</ele>
        <time>2013-05-13T18:15:05.000Z</time>
      </trkpt>
    </trkseg>
  </trk>
</gpx>